[[{"header":{"parameterUnit":"m.s-1","parameterCategory":1,"la1":30.6,"la2":29.2853,"lo1":-89.7004,"lo2":-87.6739,"dy":0.0162,"dx":0.0183,"nx":112,"ny":82,"refTime":"2024-09-21T12:00:00:Z","depth":0,"parameterNumber":2,"parameterNumberName":"U-component_of_WINDS"},"data":[0.0,0.0,0.0,0.0,0.0,0.0,0.0,0.0,0.0,0.0,0.0,0.0,0.0,0.0,0.0,0.0,0.0,0.0,0.0,0.0,0.0,0.0,0.0,0.0,0.0,0.0,0.0,0.0,0.0,0.0,0.0,0.0,0.0,0.0,0.0,0.0,0.0,0.0,0.0,0.0,0.0,0.0,0.0,0.0,0.0,0.0,0.0,0.0,0.0,0.0,0.0,0.0,0.0,0.0,0.0,0.0,0.0,0.0,0.0,0.0,0.0,0.0,0.0,0.0,0.0,0.0,0.0,0.0,0.0,0.0,0.0,0.0,0.0,0.0,0.0,0.0,0.0,0.0,0.0,0.0,0.0,0.0,0.0,0.0,0.0,0.0,0.0,0.0,0.0,0.0,0.0,0.9987,1.0949,1.1596,1.209,1.1954,1.2552,1.4168,0.0,0.0,0.0,0.0,0.0,0.0,0.0,0.0,0.0,0.0,0.0,0.0,0.0,0.0,0.0,0.0,0.0,0.0,0.0,0.0,0.0,0.0,0.0,0.0,0.0,0.0,0.0,0.0,0.0,0.0,0.0,0.0,0.0,0.0,0.0,0.0,0.0,0.0,0.0,0.0,0.0,0.0,0.0,0.0,0.0,0.0,0.0,0.0,0.0,0.0,0.0,0.0,0.0,0.0,0.0,0.0,0.0,0.0,0.0,0.0,0.0,0.0,0.0,0.0,0.0,0.0,0.0,0.0,0.0,0.0,0.0,0.0,0.0,0.0,0.0,0.0,0.0,0.0,0.0,0.0,0.0,0.0,0.0,0.0,0.0,0.0,0.0,0.0,0.0,0.0,0.0,0.0,0.0,0.0,0.0,0.0,0.0,0.0,0.0,0.0,0.0,0.0,0.0,0.0,0.7862,1.0191,1.1023,1.1893,1.3142,1.2511,1.2789,1.4513,0.0,0.0,0.0,0.0,0.0,0.0,0.0,0.0,0.0,0.0,0.0,0.0,0.0,0.0,0.0,0.0,0.0,0.0,0.0,0.0,0.0,0.0,0.0,0.0,0.0,0.0,0.0,0.0,0.0,0.0,0.0,0.0,0.0,0.0,0.0,0.0,0.0,0.0,0.0,0.0,0.0,0.0,0.0,0.0,0.0,0.0,0.0,0.0,0.0,0.0,0.0,0.0,0.0,0.0,0.0,0.0,0.0,0.0,0.0,0.0,0.0,0.0,0.0,0.0,0.0,0.0,0.0,0.0,0.0,0.0,0.0,0.0,0.0,0.0,0.0,0.0,0.0,0.0,0.0,0.0,0.0,0.0,0.0,0.0,0.0,0.0,0.0,0.0,0.0,0.0,0.0,0.0,0.0,0.0,0.0,0.0,0.0,0.0,0.0,0.0,0.0,0.0,0.0,0.8879,0.9949,1.099,1.1401,1.1953,1.2785,1.2453,1.2758,1.4026,1.3529,0.0,0.0,0.0,0.0,0.0,0.0,0.0,0.0,0.0,0.0,0.0,0.0,0.0,0.0,0.0,0.0,0.0,0.0,0.0,0.0,0.0,0.0,0.0,0.0,0.0,0.0,0.0,0.0,0.0,0.0,0.0,0.0,0.0,0.0,0.0,0.0,0.0,0.0,0.0,0.0,0.0,0.0,0.0,0.0,0.0,0.0,0.0,0.0,0.0,0.0,0.0,0.0,0.0,0.0,0.0,0.0,0.0,0.0,0.0,0.0,0.0,0.0,0.0,0.0,0.0,0.0,0.0,0.0,0.0,0.0,0.0,0.0,0.0,0.0,0.0,0.0,0.0,0.0,0.0,0.0,0.0,0.0,0.0,0.0,0.0,0.0,0.0,0.0,0.0,0.0,0.0,0.0,0.0,0.0,0.0,0.0,0.0,0.0,0.0,0.0,0.0,0.0,1.0713,1.1901,1.1859,1.1812,1.2018,1.2559,1.2455,1.2725,1.3591,1.3461,0.0,0.0,0.0,0.0,0.0,0.0,0.0,0.0,0.0,0.0,0.0,0.0,0.0,0.0,0.0,0.0,0.0,0.0,0.0,0.0,0.0,0.0,0.0,0.0,0.0,0.0,0.0,0.0,0.0,0.0,0.0,0.0,0.0,0.0,0.0,0.0,0.0,0.0,0.0,0.0,0.0,0.0,0.0,0.0,0.0,0.0,0.0,0.0,0.0,0.0,0.0,0.0,0.0,0.0,0.0,0.0,0.0,0.0,0.0,0.0,0.0,0.0,0.0,0.0,0.0,0.0,0.0,0.0,0.0,0.0,0.0,0.0,0.0,0.0,0.0,0.0,0.0,0.0,0.0,0.0,0.0,0.0,0.0,0.0,0.0,0.0,0.0,0.0,0.0,0.0,0.0,0.0,0.0,0.0,0.0,0.0,0.0,0.0,0.0,0.0,0.0,0.0,1.0963,1.2556,1.2606,1.2133,1.2261,1.3403,1.2886,1.2851,1.3733,1.267,0.0,0.0,0.0,0.0,0.0,0.0,0.0,0.0,0.0,0.0,0.0,0.0,0.0,0.0,0.0,0.0,0.0,0.0,0.0,0.0,0.0,0.0,0.0,0.0,0.0,0.0,0.0,0.0,0.0,0.0,0.0,0.0,0.0,0.0,0.0,0.0,0.0,0.0,0.0,0.0,0.0,0.0,0.0,0.0,0.0,0.0,0.0,0.0,0.0,0.0,0.0,0.0,0.0,0.0,0.0,0.0,0.0,0.0,0.0,0.0,0.0,0.0,0.0,0.0,0.0,0.0,0.0,0.0,0.0,0.0,0.0,0.0,0.0,0.0,0.0,0.0,0.0,0.0,0.0,0.0,0.0,0.0,0.0,0.0,0.0,0.0,0.0,0.0,0.0,0.0,0.0,0.0,0.0,0.0,0.0,0.0,0.0,0.0,0.0,0.0,0.0,0.0,1.1615,1.2902,0.0,1.2662,1.2096,1.2783,1.2715,1.2781,1.3158,0.0,0.0,0.0,0.0,0.0,0.0,0.0,0.0,0.0,0.0,0.0,0.0,0.0,0.0,0.0,0.0,0.0,0.0,0.0,0.0,0.0,0.0,0.0,0.0,0.0,0.0,0.0,0.0,0.0,0.0,0.0,0.0,0.0,0.0,0.0,0.0,0.0,0.0,0.0,0.0,0.0,0.0,0.0,0.0,0.0,0.0,0.0,0.0,0.0,0.0,0.0,0.0,0.0,0.0,0.0,0.0,0.0,0.0,0.0,0.0,0.0,0.0,0.0,0.0,0.0,0.0,0.0,0.0,0.0,0.0,0.0,0.0,0.0,0.0,0.0,0.0,0.0,0.0,0.0,0.0,0.0,0.0,0.0,0.0,0.0,0.0,0.0,0.0,0.0,0.0,0.0,0.0,0.0,0.0,0.0,0.0,0.0,0.0,0.0,0.0,0.0,0.0,1.0952,1.2085,1.3197,0.0,1.3117,1.2243,1.2395,1.2819,1.2873,1.2415,0.0,0.0,0.0,0.0,0.0,0.0,0.0,0.0,0.0,0.0,0.0,0.0,0.0,0.0,0.0,0.0,0.0,0.0,0.0,0.0,0.0,0.0,0.0,0.0,0.0,0.0,0.0,0.0,0.0,0.0,0.0,0.0,0.0,0.0,0.0,0.0,0.0,0.0,0.0,0.0,0.0,0.0,0.0,0.0,0.0,0.0,0.0,0.0,0.0,0.0,0.0,0.0,0.0,0.0,0.0,0.0,0.0,0.0,0.0,0.0,0.0,0.0,0.0,0.0,0.0,0.0,0.0,0.0,0.0,0.0,0.0,0.0,0.0,0.0,0.0,0.0,0.0,0.0,0.0,0.0,0.0,0.0,0.0,0.0,0.0,0.0,0.0,0.0,0.0,0.0,0.0,0.0,0.0,0.0,0.0,0.0,0.0,0.0,0.0,0.0,0.0,0.0,1.0752,1.2285,1.3526,1.4072,1.3461,1.2835,1.2426,1.3301,1.3206,0.0,0.0,0.0,0.0,0.0,0.0,0.0,0.0,0.0,0.0,0.0,0.0,0.0,0.0,0.0,0.0,0.0,0.0,0.0,0.0,0.0,0.0,0.0,0.0,0.0,0.0,0.0,0.0,0.0,0.0,0.0,0.0,0.0,0.0,0.0,0.0,0.0,0.0,0.0,0.0,0.0,0.0,0.0,0.0,0.0,0.0,0.0,0.0,0.0,0.0,0.0,0.0,0.0,0.0,0.0,0.0,0.0,0.0,0.0,0.0,0.0,0.0,0.0,0.0,0.0,0.0,0.0,0.0,0.0,0.0,0.0,0.0,0.0,0.0,0.0,0.0,0.0,0.0,0.0,0.0,0.0,0.0,0.0,0.0,0.0,0.0,0.0,0.0,0.0,0.0,0.0,0.0,0.0,0.0,0.0,0.0,0.0,0.0,0.0,0.0,0.0,0.0,0.0,1.2886,1.3477,1.4207,1.5452,1.4034,1.2839,1.2437,1.2807,1.2883,1.2502,0.0,0.0,0.0,0.0,0.0,0.0,0.0,0.0,0.0,0.0,0.0,0.0,0.0,0.0,0.0,0.0,0.0,0.0,0.0,0.0,0.0,0.0,0.0,0.0,0.0,0.0,0.0,0.0,0.0,0.0,0.0,0.0,0.0,0.0,0.0,0.0,0.0,0.0,0.0,0.0,0.0,0.0,0.0,0.0,0.0,0.0,0.0,0.0,0.0,0.0,0.0,0.0,0.0,0.0,0.0,0.0,0.0,0.0,0.0,0.0,0.0,0.0,0.0,0.0,0.0,0.0,0.0,0.0,0.0,0.0,0.0,0.0,0.0,0.0,0.0,0.0,0.0,0.0,0.0,0.0,0.0,0.0,0.0,0.0,0.0,0.0,0.0,0.0,0.0,0.0,0.0,0.0,0.0,0.0,0.0,0.0,0.0,0.0,0.0,0.0,0.0,0.0,1.3643,1.3908,1.4415,1.5816,1.4504,1.3364,1.2955,1.3429,1.3496,1.2937,0.0,0.0,0.0,0.0,0.0,0.0,0.0,0.0,0.0,0.0,0.0,0.0,0.0,0.0,0.0,0.0,0.0,0.0,0.0,0.0,0.0,0.0,0.0,0.0,0.0,0.0,0.0,0.0,0.0,0.0,0.0,0.0,0.0,0.0,0.0,0.0,0.0,0.0,0.0,0.0,0.0,0.0,0.0,0.0,0.0,0.0,0.0,0.0,0.0,0.0,0.0,0.0,0.0,0.0,0.0,0.0,0.0,0.0,0.0,0.0,0.0,0.0,0.0,0.0,0.0,0.0,0.0,0.0,0.0,0.0,0.0,0.0,0.0,0.0,0.0,0.0,0.0,0.0,0.0,0.0,0.0,0.0,0.0,0.0,0.0,0.0,0.0,0.0,0.0,0.0,0.0,0.0,0.0,0.0,0.0,0.0,0.0,0.0,0.0,0.0,0.0,0.0,1.3556,1.3994,1.4535,1.5562,1.4906,1.422,1.3736,1.4617,1.4555,1.3105,0.0,0.0,0.0,0.0,0.0,0.0,0.0,0.0,0.0,0.0,0.0,0.0,0.0,0.0,0.0,0.0,0.0,0.0,0.0,0.0,0.0,0.0,0.0,0.0,0.0,0.0,0.0,0.0,0.0,0.0,0.0,0.0,0.0,0.0,0.0,0.0,0.0,0.0,0.0,0.0,0.0,0.0,0.0,0.0,0.0,0.0,0.0,0.0,0.0,0.0,0.0,0.0,0.0,0.0,0.0,0.0,0.0,0.0,0.0,0.0,-0.3543,0.0,0.0,0.0,0.0,0.0,0.0,0.0,0.0,0.0,0.0,0.0,0.0,0.0,0.0,0.0,0.0,0.0,0.0,0.0,0.0,0.0,0.0,0.0,0.0,0.0,0.0,0.0,0.0,0.0,0.0,0.0,0.0,0.0,0.0,0.0,0.0,0.0,0.0,0.0,0.0,0.0,1.4921,1.5683,1.6093,1.6062,1.5533,1.4744,1.3699,1.4019,1.4153,1.3867,1.2471,0.0,0.0,0.0,0.0,0.0,0.0,0.0,0.0,0.0,0.0,0.0,0.0,0.0,0.0,0.0,0.0,0.0,0.0,0.0,0.0,0.0,0.0,0.0,0.0,0.0,0.0,0.0,0.0,0.0,0.0,0.0,0.0,0.0,0.0,0.0,0.0,0.0,0.0,0.0,0.0,0.0,0.0,0.0,0.0,0.0,0.0,0.0,0.0,0.0,0.0,0.0,0.0,0.0,0.0,0.0,0.0,0.0,0.0,0.0,0.0,-0.6336,0.0,0.0,0.0,0.0,0.0,0.0,0.0,0.0,0.0,0.0,0.0,0.0,0.0,0.0,0.0,0.0,0.0,0.0,0.0,0.0,0.0,0.0,0.0,0.0,0.0,0.0,0.0,0.0,0.0,0.0,0.0,0.0,0.0,0.0,0.0,0.0,0.0,0.0,0.0,0.0,1.5314,1.6188,1.6562,1.6238,1.5654,1.5007,1.4284,1.4401,1.4581,1.4726,1.3325,0.0,0.0,0.0,0.0,0.0,0.0,0.0,0.0,0.0,0.0,0.0,0.0,0.0,0.0,0.0,0.0,0.0,0.0,0.0,0.0,0.0,0.0,0.0,0.0,0.0,0.0,0.0,0.0,0.0,0.0,0.0,0.0,0.0,0.0,0.0,0.0,0.0,0.0,0.0,0.0,0.0,0.0,0.0,0.0,0.0,0.0,0.0,0.0,0.0,0.0,0.0,0.0,0.0,-0.5444,-0.5319,-0.4569,-0.4174,-0.4171,-0.4616,-0.656,-0.7982,-0.895,0.0,0.0,0.0,0.0,0.0,0.0,0.0,0.0,0.0,0.0,0.0,0.0,0.0,0.0,0.0,0.0,0.0,0.0,0.0,0.0,0.0,0.0,0.0,0.0,0.0,-0.4424,-0.558,0.0,0.0,0.0,0.0,0.0,0.0,0.0,0.0,0.0,0.0,0.0,0.0,1.5404,1.644,1.6792,1.6131,1.566,1.5225,1.4856,1.4992,1.5168,1.5296,1.4415,1.3662,0.0,0.0,0.0,0.0,0.0,0.0,0.0,0.0,0.0,0.0,0.0,0.0,0.0,0.0,0.0,0.0,0.0,0.0,0.0,0.0,0.0,0.0,0.0,0.0,0.0,0.0,0.0,0.0,0.0,0.0,0.0,0.0,-0.586,-0.6695,0.0,0.0,0.0,0.0,0.0,0.0,0.0,0.0,0.0,0.0,0.0,0.0,0.0,0.0,-0.5432,-0.4904,-0.4301,-0.3576,-0.3627,-0.3296,-0.2535,-0.1862,-0.1917,-0.2634,-0.4042,0.0,-0.8788,-1.059,0.0,0.0,0.0,0.0,0.0,0.0,0.0,0.0,0.0,0.0,0.0,0.0,0.0,0.0,0.0,0.0,0.0,0.0,0.0,0.0,0.0,0.0,-0.1178,-0.2432,-0.386,-0.5291,0.0,-0.6203,-0.5033,-0.2667,0.0,0.0,0.0,0.0,0.0,0.0,0.0,0.0,1.5705,1.7394,1.7759,1.5721,1.5887,1.5695,1.4567,1.487,1.5056,1.4973,1.4232,1.3793,1.3686,1.2027,0.0,0.0,0.0,0.0,0.0,0.0,0.0,0.0,0.0,0.0,0.0,0.0,0.0,0.0,0.0,0.0,0.0,0.0,0.0,0.0,0.0,0.0,0.0,0.0,0.0,0.0,0.0,0.0,0.0,-0.5056,-0.6493,-0.7681,-0.7085,-0.6861,0.0,0.0,0.0,0.0,0.0,0.0,0.0,0.0,0.0,-0.4573,-0.4239,-0.3733,-0.3059,-0.273,-0.1963,-0.0815,-0.0815,-0.0217,0.092,0.1241,0.1405,0.141,-0.0372,-0.1906,-0.3509,-0.8037,-0.9814,-0.9562,0.0,0.0,0.0,0.0,0.0,-0.4588,-0.3869,-0.3609,0.0,0.0,0.0,0.0,0.0,0.0,0.0,0.0,0.0,0.0,0.0,0.0,0.0,0.0842,-0.1039,-0.2843,-0.3606,-0.4513,-0.5067,0.0,-0.2733,-0.01,0.2654,0.0,0.0,0.0,0.0,0.0,1.5764,1.7548,1.8103,1.6218,1.6056,1.5784,1.5086,1.4827,1.4762,1.4878,1.4487,1.4222,1.4185,1.3499,1.2753,0.0,0.0,0.0,0.0,0.0,0.0,0.0,0.0,0.0,0.0,0.0,0.0,0.0,0.0,0.0,0.0,0.0,0.0,0.0,0.0,0.0,0.0,0.0,0.0,0.0,0.0,0.0,0.0,-0.496,-0.6472,-0.7967,-0.7884,-0.799,0.0,0.0,0.0,0.0,0.0,0.0,-0.4717,-0.4114,-0.3332,-0.2413,-0.2061,-0.1352,-0.0273,0.0109,0.0926,0.2238,0.2238,0.2995,0.4405,0.4412,0.4696,0.5093,0.3312,0.2277,0.1459,-0.4811,-0.7762,-0.8165,-0.7139,-0.6415,-0.581,-0.4754,-0.405,-0.3452,-0.2701,-0.243,-0.2422,-0.2049,0.0,-0.176,-0.1043,0.0,0.0,0.0,0.0,0.3972,0.4293,0.4379,0.4456,0.4663,0.273,0.0849,0.069,-0.0897,-0.288,0.0,-0.3113,-0.0364,0.2436,0.0,0.0,0.0,0.0,1.5789,1.5865,1.75,1.8035,1.6452,1.6136,1.5923,1.5627,1.5161,1.4982,1.5222,1.5106,1.4977,1.4866,1.4958,1.4555,1.354,0.0,0.0,0.0,0.0,0.0,0.0,0.0,0.0,0.0,0.0,0.0,0.0,0.0,0.0,0.0,0.0,0.0,0.0,0.0,0.0,0.0,0.0,0.0,0.0,0.0,0.0,0.0,0.0,0.0,-0.7448,-0.7629,0.0,0.0,0.0,0.0,-0.5731,-0.4893,-0.3745,-0.2239,-0.2119,-0.1433,0.0,0.1386,0.2101,0.203,0.3398,0.4497,0.5275,0.5275,0.603,0.7382,0.7475,0.7475,0.7382,0.663,0.5528,0.3758,-0.2086,-0.4513,-0.4566,-0.4517,-0.4467,-0.4147,-0.2064,-0.1309,-0.1147,-0.044,-0.0166,-0.0276,-0.094,-0.1162,-0.0995,-0.0277,0.0991,0.0,0.0,0.4848,0.5712,0.7063,0.7382,0.7582,0.8241,0.7261,0.5912,0.5222,0.3943,0.1889,0.0,-0.1612,-0.0108,0.2776,0.0,0.8453,1.116,1.4239,1.6209,1.6091,1.7353,1.7582,1.5918,1.6182,1.6313,1.5902,1.6073,1.6181,1.6145,1.6183,1.6104,1.5834,1.608,1.5993,1.5473,1.4812,0.0,0.0,0.0,0.0,0.0,0.0,0.0,0.0,0.0,0.0,0.0,0.0,0.0,0.0,0.0,0.0,0.0,0.0,0.0,0.0,0.0,0.0,0.0,0.0,0.0,0.0,0.0,0.0,-0.6133,-0.5878,0.0,-0.7427,-0.5463,-0.3931,-0.3482,-0.2189,-0.0757,0.0895,0.1538,0.2594,0.4111,0.4722,0.5088,0.5346,0.5858,0.6624,0.7541,0.7541,0.8279,0.9651,0.9673,0.9673,0.96,0.8449,0.7641,0.6908,0.3449,0.1184,-0.0161,-0.0648,-0.027,0.07,0.1464,0.2014,0.2404,0.2203,0.2098,0.1932,0.0719,0.0663,0.1156,0.1926,0.3132,0.4609,0.6035,0.7009,0.7753,0.8691,0.9327,0.9703,1.001,0.9299,0.8391,0.7652,0.6738,0.5552,0.3857,0.2929,0.3084,0.5022,0.7713,1.0324,1.2589,1.521,1.6835,1.675,1.76,1.7924,1.7125,1.6604,1.6395,1.6588,1.6055,1.587,1.6184,1.5654,1.5562,1.6063,1.6179,1.6098,1.5793,1.5299,1.4412,0.0,0.0,0.0,0.0,0.0,0.0,0.0,0.0,0.0,0.0,0.0,0.0,0.0,0.0,0.0,0.0,0.0,0.0,0.0,0.0,0.0,0.0,0.0,0.0,0.0,0.0,-0.208,-0.3849,-0.3495,-0.3688,-0.5115,-0.331,-0.1621,-0.064,0.071,0.2215,0.3888,0.4566,0.5492,0.6795,0.7335,0.7712,0.7989,0.8397,0.8963,0.9619,0.9458,1.0026,1.1116,1.0914,1.0914,1.1065,0.9923,0.9252,0.8947,0.7276,0.5726,0.4287,0.3049,0.3165,0.4095,0.4318,0.4714,0.5066,0.458,0.4252,0.386,0.2923,0.2916,0.34,0.3896,0.5205,0.6785,0.7706,0.8665,0.9555,1.0207,1.078,1.1216,1.1434,1.0939,1.0308,0.9857,0.9179,0.8554,0.8106,0.6668,0.5882,0.7018,0.9351,1.163,1.3439,1.5719,1.7183,1.7126,1.7851,1.8253,1.7959,1.7125,1.6767,1.7216,1.6398,1.6025,1.6393,1.5819,1.5753,1.6393,1.6596,1.6651,1.651,1.5327,1.3841,1.2098,0.0,0.0,0.0,0.0,0.0,0.0,0.0,0.0,0.0,0.0,0.0,0.0,0.0,0.0,0.0,0.0,0.0,0.0,0.0,0.0,0.0,0.0,0.0,0.1232,0.0738,0.0,-0.0731,-0.0606,-0.0857,-0.1961,-0.0443,0.1217,0.2635,0.3581,0.4841,0.6607,0.6672,0.7049,0.7757,0.9266,0.9973,0.985,1.095,1.155,1.1534,1.1071,1.12,1.185,1.1191,1.1233,1.1832,1.1124,1.0466,0.9806,0.9051,0.881,0.8633,0.6426,0.5608,0.5666,0.6406,0.6696,0.6642,0.6642,0.6126,0.5554,0.5554,0.5554,0.5608,0.5608,0.7057,0.8783,0.8783,0.9769,1.0965,1.1665,1.1814,1.2021,1.2715,1.2344,1.1814,1.1814,1.1266,1.0813,1.0813,0.9179,0.797,0.8724,1.0455,1.2223,1.3543,1.5719,0.0,1.7139,1.8043,1.8567,1.8253,1.7697,1.7455,1.7805,1.721,1.6853,1.6821,1.6821,1.6795,1.6821,1.7375,1.7665,1.7642,1.4933,1.2105,0.919,0.0,0.0,0.0,0.0,0.0,0.0,0.0,0.0,0.0,0.0,0.0,0.0,0.0,0.0,0.0,0.0,0.0,0.0,0.0,0.0,0.0,0.0,0.2645,0.1642,0.1834,0.1656,0.0778,0.1878,0.2332,0.1369,0.2929,0.4375,0.5408,0.5748,0.6677,0.8468,0.8533,0.8954,0.9794,1.0767,1.1156,1.0894,1.1807,1.2427,1.2644,1.2529,1.2804,1.3437,1.2987,1.2846,1.2989,1.195,1.1416,1.1216,1.0501,1.0246,1.0056,0.7894,0.7427,0.7966,0.8652,0.8587,0.8053,0.7551,0.6902,0.6298,0.6298,0.6977,0.7811,0.7811,0.8919,1.034,1.0788,1.1249,1.1665,1.2403,1.2608,1.2666,1.2832,1.2774,1.2452,1.1922,1.1665,1.1366,1.0914,1.1123,1.1437,1.1653,1.2474,1.357,1.4869,1.6323,0.0,1.7793,1.801,1.8342,1.8866,1.8362,1.8095,1.848,1.8071,1.7728,1.7534,1.7014,1.6972,1.7486,1.7443,1.7101,1.6423,1.4904,1.2442,0.0,0.0,0.0,0.0,0.0,0.0,0.0,0.0,0.0,0.0,0.0,0.0,0.0,0.0,0.0,0.0,0.0,0.0,0.0,0.0,0.0,0.0,0.4564,0.513,0.4537,0.437,0.4105,0.357,0.4769,0.5298,0.4355,0.5607,0.6802,0.7668,0.7733,0.8511,1.0268,1.0338,1.0717,1.16,1.2389,1.2704,1.2492,1.318,1.3632,1.3792,1.3614,1.3692,1.4077,1.3887,1.3769,0.0,1.2887,1.2429,1.231,1.1739,1.1455,0.0,0.0,0.0,0.0,0.0,0.9938,0.9511,0.9117,0.8541,0.8037,0.8511,0.9025,0.9539,0.9989,1.0889,1.1826,1.2019,1.2287,1.256,1.2822,1.2881,1.2881,1.2881,1.2881,1.2774,1.2344,1.2236,1.2138,1.1742,0.0,0.0,1.3501,1.4089,1.4733,1.5487,1.6574,1.7504,1.8027,1.8224,1.86,1.9318,1.8812,1.8512,1.8749,1.8283,0.0,0.0,0.0,1.7287,1.765,1.7486,0.0,0.0,0.0,0.0,0.0,0.0,0.0,0.0,0.3491,0.3595,0.0,0.0,0.0,0.0,0.0,0.0,0.0,0.0,0.0,0.0,0.0,0.0,0.0,0.0,0.0,0.0,0.6886,0.7744,0.8591,0.7768,0.7024,0.6807,0.7548,0.7817,0.7006,0.7767,0.8652,0.9444,0.9538,1.0251,1.1821,0.0,0.0,0.0,0.0,1.4249,1.4213,1.463,1.4853,1.4853,1.4463,1.4223,1.4223,1.4175,1.4209,1.418,1.376,1.3413,1.3168,1.2821,1.2565,1.224,1.1256,1.0905,1.0914,1.0813,1.0864,0.0,0.0,0.0,0.0,1.1153,1.1185,1.0958,1.1939,1.2703,1.3122,1.2775,1.3101,1.3477,1.3066,1.2949,1.2939,1.2891,1.2881,1.2881,1.2881,1.2881,1.2891,1.2939,1.3008,1.3402,1.4545,1.5175,1.5543,1.5676,1.6544,1.7394,1.7947,1.8496,1.9006,1.9566,0.0,0.0,1.8807,1.8201,1.7843,1.7802,1.7769,1.7659,1.7566,1.7478,1.6711,1.5093,1.3328,1.0908,0.7755,0.6069,0.4321,0.2589,0.2689,0.2883,0.0,0.0,0.0,0.0,0.0,0.0,0.0,0.0,0.0,0.0,0.0,0.0,0.0,0.0,0.0,0.8176,0.9124,0.9806,1.0716,1.0397,0.9539,0.7902,0.8479,0.9005,0.8801,0.9776,1.0509,1.064,1.0855,1.1519,1.2653,1.2719,0.0,1.3446,1.4312,1.4599,1.4213,1.4915,1.5293,1.5293,0.0,0.0,1.5156,1.4814,1.4658,1.4639,1.4199,1.3946,1.3907,1.383,1.3733,1.3582,1.1964,1.1482,1.1566,1.1015,1.1166,1.1516,1.0965,1.096,1.1223,1.1447,1.1995,1.2652,1.2841,1.3358,0.0,1.3811,1.3908,1.3863,1.3496,1.3389,1.3301,1.2959,1.2881,1.2881,1.2881,1.2881,1.2988,1.332,1.3518,1.3942,1.5023,1.5002,1.5197,1.6194,1.6497,1.6837,1.7394,1.7907,1.8458,1.9006,1.9339,1.9495,1.9495,1.8987,1.8621,1.8504,1.81,1.784,1.7826,1.7453,1.6507,1.487,1.3087,1.1067,0.8822,0.6928,0.562,0.4862,0.3718,0.3528,0.0,0.0,0.0,0.0,0.0,0.0,0.0,0.0,0.0,0.0,0.0,0.3065,0.4901,0.0,0.8577,0.9721,1.0381,1.0987,1.1554,1.1269,1.06,0.9598,0.9913,1.0171,1.0309,1.0855,1.141,1.1938,1.208,1.2766,1.4148,1.4213,1.4465,1.5115,1.5566,1.5723,1.5444,1.566,1.5732,1.5732,1.5518,1.541,1.54,1.5195,1.5098,1.5078,1.4648,1.458,1.4775,1.4775,1.4648,1.4379,1.3496,1.3046,1.2894,1.2583,1.2687,1.2894,1.2583,1.2396,1.2377,1.296,1.3277,1.3542,1.4082,1.4486,1.4727,1.4521,1.4463,1.4365,1.3926,1.3818,1.3769,1.3555,1.3506,1.3506,1.3506,1.3506,1.3574,1.3779,1.389,1.4345,1.5554,1.5344,1.5349,1.6331,1.6522,1.668,1.7229,1.7544,1.8027,1.8817,1.8893,1.9132,1.9639,1.9207,1.8763,1.8409,1.8158,1.788,1.7611,1.7357,1.6439,1.4769,1.3523,1.1771,0.9392,0.8082,0.696,0.6063,0.599,0.5829,0.0,0.0,0.0,0.0,0.0,0.0,0.0,0.0,0.013,0.1241,0.3442,0.5497,0.6664,0.8917,1.0653,1.0924,1.132,1.1663,1.1844,1.1463,1.1162,1.1162,1.1116,1.1169,1.1403,1.1476,1.1923,1.2871,1.2999,1.3826,1.5611,1.5685,1.6058,1.6792,1.6855,1.6816,1.6665,1.6377,1.6191,1.6182,1.5742,1.5537,1.5537,1.5449,1.541,1.54,1.5137,1.5176,1.542,1.5498,1.5293,1.4902,1.4902,1.4697,1.4301,1.4145,1.4077,1.4077,1.4077,1.3803,1.3589,1.4492,1.4496,1.4268,1.5129,1.541,1.5342,1.5,1.4902,1.4805,1.4375,1.4258,1.4184,1.4097,1.4077,1.4077,1.4077,1.4077,1.4107,1.4248,1.4136,1.4523,1.5851,1.5759,1.5738,1.6541,1.6584,1.668,1.7076,1.7229,1.7626,1.8496,1.8302,1.8419,1.9169,1.893,1.8535,1.7987,1.7947,1.7747,1.7312,1.6954,1.6133,1.4744,1.381,1.2271,1.0097,0.9445,0.8521,0.7427,0.8685,0.8429,-0.7056,-0.6041,-0.4765,-0.3959,-0.2377,-0.0917,0.0,0.0,0.2421,0.4874,0.5631,0.6766,0.9554,1.0378,1.0936,1.1911,1.2151,1.2124,1.1904,1.1817,1.177,1.177,1.1536,1.139,1.1423,1.1663,1.2241,1.3207,1.3476,1.4474,1.6363,1.6501,1.6773,1.7324,1.7314,1.7119,1.6675,1.668,1.666,1.665,1.6201,1.5986,1.6037,1.5586,1.541,1.543,1.5771,1.5723,1.5439,1.583,1.5732,1.5342,1.5342,1.5312,1.5176,1.4414,1.4077,1.4077,1.4077,1.433,1.4605,1.4775,1.4982,1.5226,1.5342,1.541,1.54,1.5352,1.5342,1.5244,1.4824,1.4717,1.4619,1.4175,1.4077,1.4077,1.4077,1.4077,1.4248,1.4639,1.4404,1.4463,1.5548,1.5959,1.6374,1.7169,1.6848,1.6522,1.6595,1.6993,1.7353,1.7463,1.7867,1.7947,1.7585,1.7947,1.7947,1.7435,1.7394,1.7353,1.7312,1.5784,1.4926,1.4698,1.2918,1.1855,1.1548,1.0906,1.0501,1.0348,1.0934,1.0204,-0.5095,-0.3808,-0.2398,-0.1684,-0.0423,0.0849,0.1609,0.314,0.4798,0.5874,0.7569,0.9155,1.046,1.1156,1.1719,0.0,1.2164,1.2064,1.2118,1.1977,1.1931,1.2098,1.2011,1.2145,1.2707,1.2899,1.3607,1.5141,1.5354,1.6,1.7354,1.7432,1.7493,1.7754,1.7744,1.7656,1.748,1.7227,1.7109,1.7109,1.666,1.6455,1.6445,1.6269,1.6182,1.6191,1.6367,1.6348,1.6191,1.6377,1.6191,1.582,1.6084,1.6016,1.5713,1.5107,1.4883,1.4883,1.4883,1.5,1.5146,1.5146,1.5264,1.541,1.541,1.541,1.541,1.541,1.541,1.5371,1.5195,1.5146,1.5107,1.4922,1.4883,1.4883,1.4883,1.4883,1.4932,1.5117,1.5,1.5157,1.6001,1.6396,1.6792,1.7593,1.756,1.7501,1.7501,1.7422,1.7222,1.6876,1.7585,1.7747,1.6909,1.7353,1.7435,1.6879,1.6837,1.6697,1.633,1.562,1.4869,1.419,1.3369,1.2599,1.1814,1.1516,1.1327,1.1239,1.1835,1.1771,-0.2651,-0.1455,-0.007,0.1085,0.2143,0.3133,0.4142,0.5747,0.7166,0.7385,0.9219,1.0864,1.1162,1.1842,1.2305,1.2305,1.2342,1.2346,1.2345,1.2335,1.2346,1.2278,1.2305,1.284,1.4149,1.3935,1.4378,1.607,1.6419,1.6991,1.794,1.8008,1.8008,1.8008,1.8008,1.8008,1.8008,1.7705,1.7559,1.7549,1.7119,1.6914,1.6914,1.6787,1.6665,1.6738,1.6865,1.6846,1.6685,1.6865,1.665,1.6279,1.6602,1.6533,1.6211,1.5889,1.5771,1.5771,1.5771,1.5693,1.5586,1.5586,1.5508,1.541,1.541,1.541,1.541,1.541,1.541,1.541,1.541,1.541,1.541,1.541,1.541,1.541,1.541,1.541,1.541,1.541,1.541,1.5584,1.6093,1.6477,1.6989,1.7728,1.8111,1.8276,1.8194,1.7852,1.7451,1.7024,1.7673,1.78,1.7018,1.7311,1.7385,1.6986,1.6835,1.6534,1.6016,1.5692,1.5084,1.4167,1.3962,1.3412,1.2411,1.2411,1.2353,1.2219,1.2823,1.331,-0.0207,0.0764,0.1966,0.3978,0.53,0.6314,0.7358,0.8415,0.9508,1.0473,1.0703,1.1087,1.207,1.2305,1.2305,1.2305,1.3091,1.3302,1.2445,1.3084,1.3302,1.2445,1.2305,1.3205,0.0,1.4501,1.4099,1.5163,1.6079,1.6991,1.794,1.8008,1.8008,1.8008,1.8008,1.8008,1.8008,1.7998,1.7988,1.7988,1.7568,1.7363,1.7344,1.6924,1.6665,1.6758,1.7178,1.7119,1.6768,1.7187,1.7109,1.6655,1.6728,1.6665,1.6709,1.6699,1.6626,1.6626,1.6626,1.6406,1.6105,1.6105,1.5752,1.541,1.541,1.541,1.541,1.541,1.541,1.541,1.541,1.541,1.541,1.541,1.541,1.541,1.541,1.541,1.541,1.541,1.541,1.541,1.541,1.6026,1.6733,1.7501,1.824,1.8582,1.8234,1.8191,1.8179,1.8154,1.8201,1.8201,1.8154,1.8154,1.8154,1.8154,1.7652,1.7288,1.7037,1.5941,1.5247,1.5081,1.441,1.4092,1.4038,1.4038,1.4048,1.4014,1.4496,1.4756,0.273,0.3792,0.4991,0.6357,0.7484,0.8355,0.8652,0.9578,1.0466,1.0942,1.1446,1.1981,1.2559,1.2438,1.2519,1.3098,1.3455,1.36,1.3237,1.3528,1.3382,1.2445,1.2478,0.0,0.0,0.0,0.0,1.7768,1.7675,1.7772,1.8339,1.8164,1.8008,1.8008,1.8281,1.8428,1.8428,1.8428,1.8428,1.8418,1.7998,1.7803,1.7793,1.7646,1.7578,1.7588,1.7734,1.7715,1.7588,1.7734,1.7549,1.7197,1.7471,1.7412,1.7197,1.748,1.7578,1.75,1.6934,1.6631,1.6514,1.6514,1.6406,1.623,1.5937,1.584,1.5781,1.5498,1.541,1.5478,1.5762,1.584,1.5918,1.6221,1.6289,1.6289,1.6289,1.6289,1.6289,1.6289,1.6289,1.6191,1.5898,1.6483,1.7288,1.817,1.898,1.928,1.8783,1.8744,1.8606,1.8242,1.8204,1.8204,1.8204,1.8204,1.8204,1.8204,1.7566,1.6991,1.6516,1.5618,1.4966,1.445,1.4184,1.4077,1.4077,1.4077,1.4277,1.457,1.4717,1.4932,0.528,0.6419,0.7508,0.851,0.969,1.061,1.0551,1.145,1.2177,1.1924,1.2209,1.2518,1.2788,1.2505,1.2553,1.3248,1.3631,1.3778,1.341,1.3704,1.3557,1.2608,1.2708,1.3279,0.0,0.0,0.0,1.8644,1.8556,1.8584,1.8857,1.8467,1.8301,1.8467,1.8574,1.8711,1.8867,1.8867,1.8867,1.8867,1.8437,1.8232,1.8223,1.8076,1.8008,1.8008,1.8008,1.8008,1.8008,1.8008,1.7852,1.7637,1.79,1.7842,1.7637,1.791,1.8008,1.793,1.7383,1.709,1.6963,1.6963,1.6855,1.668,1.6387,1.6299,1.624,1.5967,1.5879,1.5947,1.623,1.6299,1.6377,1.667,1.6665,1.6665,1.6665,1.6665,1.6665,1.6665,1.6665,1.6641,1.6357,1.6951,1.7605,1.825,1.8987,1.9412,1.9296,1.9309,1.9171,1.8807,1.8781,1.8671,1.8413,1.8363,1.8264,1.8003,1.7349,1.6809,1.6337,1.5669,1.5083,1.458,1.4535,1.4535,1.4535,1.4535,1.4736,1.501,1.501,1.5156,0.7496,0.8568,0.9536,1.0662,1.2022,1.3058,1.2974,1.3971,1.4491,1.3516,1.3037,1.2822,1.2822,1.2518,1.2418,1.2775,1.3658,1.3892,1.2995,1.3665,1.3892,0.0,0.0,0.0,0.0,0.0,0.0,1.7764,0.0,1.9224,1.9316,1.8906,1.8857,1.9277,1.8906,1.8896,1.9316,1.9316,1.9307,1.9277,1.8867,1.8672,1.8652,1.8252,1.8057,1.8047,1.8047,1.8027,1.8008,1.8008,1.8008,1.8008,1.8008,1.8008,1.8008,1.8008,1.794,1.794,1.794,1.7677,1.7346,1.7412,1.7074,1.6724,1.6704,1.6768,1.6758,1.6738,1.6665,1.6738,1.6758,1.6768,1.6714,1.6787,1.6797,1.6797,1.6797,1.6797,1.6797,1.6797,1.6777,1.6768,1.6768,1.7274,1.7739,1.7791,1.8391,1.9102,1.975,1.9834,1.9834,1.9886,1.9886,1.9614,1.8905,1.8798,1.8464,1.7722,1.7122,1.6754,1.656,1.5974,1.5629,1.5469,1.5459,1.5459,1.5478,1.5459,1.5449,1.5449,1.5449,1.5449,0.9563,1.0592,1.1758,1.311,1.429,1.5149,1.5419,1.5104,1.4724,1.4421,1.3558,1.2822,1.2822,1.2761,0.0,1.3705,1.4219,0.0,1.4142,1.4374,0.0,1.3243,0.0,1.3863,1.5203,1.6085,0.0,0.0,1.8346,1.8592,1.9662,1.9355,1.918,1.9287,1.9482,1.9639,1.9756,1.9756,1.96,1.9287,1.918,1.9121,1.9121,1.9014,1.8789,1.8477,1.8477,1.8301,1.8008,1.8008,1.8008,1.8008,1.8008,1.8008,1.8008,1.8008,1.7579,1.6922,1.6922,1.6858,1.6921,1.7639,1.7273,1.6708,1.7108,1.7217,1.7148,1.6826,1.6665,1.6807,1.7139,1.7217,1.7295,1.7607,1.7686,1.7686,1.7686,1.7686,1.7686,1.7686,1.7432,1.7217,1.7217,1.7061,1.7149,1.7739,1.7975,1.8594,1.9915,2.0117,2.0353,2.0999,2.1054,2.0999,2.0822,2.0185,1.9613,1.9124,1.7855,1.7053,1.7005,1.605,1.5782,1.6387,1.6064,1.6064,1.6396,1.6064,1.5898,1.5898,1.5898,1.5898,1.1703,1.2875,1.3947,1.4832,1.6013,1.679,1.5915,1.5745,1.5265,1.3724,1.3088,1.2669,1.2203,1.251,1.3015,0.0,0.0,0.0,1.4165,1.4165,1.3933,0.0,1.3547,0.0,1.4707,1.5442,1.6527,0.0,1.8706,1.9326,2.0185,1.9795,1.9648,1.9844,1.9893,2.001,2.0195,2.0195,2.0078,1.9844,1.9658,1.9561,1.9561,1.9375,1.915,1.8926,0.0,1.8789,1.8574,1.8574,1.8457,1.8212,1.7786,1.7524,1.7364,1.6932,1.6437,1.6009,1.6009,1.572,1.5579,1.6932,1.7001,1.6738,1.7446,1.7656,1.7531,1.6873,1.6948,1.7212,1.7102,1.7369,1.7715,1.7959,1.8008,1.8008,1.8008,1.8008,1.8008,1.8008,1.7822,1.7656,1.7656,1.7451,1.7416,1.7839,1.7904,1.8331,1.9627,1.973,1.9808,2.0296,2.0354,2.0238,1.9878,1.9456,1.8929,1.8368,1.7486,1.6961,1.6961,1.6356,1.623,1.6719,1.6484,1.6484,1.6665,1.6484,1.6357,1.6357,1.6357,1.6357,1.3576,1.488,1.5934,1.6035,1.7234,1.7817,1.5761,1.592,1.5614,1.2527,1.2285,1.2267,1.1301,1.2018,1.2929,1.316,0.0,1.3661,1.3694,1.3701,1.3701,1.3701,1.3701,1.3801,1.4062,1.4334,1.5311,1.718,1.9353,2.0566,2.0566,2.0205,2.0176,2.0557,2.0195,2.0185,2.0634,2.0566,2.0566,2.0634,2.0185,2.0,1.999,1.9619,1.9424,1.9375,0.0,0.0,1.9287,1.9141,1.8807,1.835,1.7379,1.6759,1.6289,1.5568,1.5133,1.5029,1.5078,1.4418,1.381,1.579,1.6349,1.6358,1.7364,1.7647,1.7442,1.6636,1.7001,1.7432,1.6636,1.7139,1.7794,1.7657,1.7716,1.7794,1.7794,1.794,1.8008,1.8008,1.8008,1.8008,1.8008,1.8008,1.8008,1.8008,1.8008,1.8269,1.9044,1.9028,1.8989,1.911,1.911,1.8868,1.8216,1.8102,1.7719,1.6997,1.688,1.6816,1.6816,1.6758,1.6724,1.6904,1.6846,1.6846,1.6904,1.6846,1.6816,1.6816,1.6816,1.6816,1.4649,1.57,1.6617,1.7349,1.7701,1.7872,1.7885,1.5984,0.0,1.2929,1.2049,1.1354,1.0976,1.1961,1.2929,1.316,1.3454,1.3728,1.3975,1.4008,1.4008,0.0,1.4008,1.4035,1.4082,1.5718,0.0,0.0,0.0,2.0566,2.0566,2.0498,2.0488,2.0566,2.0498,2.0488,2.0566,2.0566,2.0566,2.0566,2.0488,2.0449,2.0449,2.0381,2.0146,1.9805,0.0,0.0,1.9214,1.8313,1.777,1.736,1.6553,1.588,1.548,1.5493,1.4839,1.3992,1.4281,1.3534,1.2879,1.4807,1.4879,1.4378,1.5376,1.5658,1.5658,1.5517,1.5587,1.5658,1.5517,1.6149,1.6636,1.5869,1.6289,1.6853,1.6853,1.7432,1.8008,1.8008,1.8008,1.8008,1.8008,1.8008,1.8008,1.8008,1.8008,1.8076,1.8202,1.8833,1.9512,2.0206,2.0333,2.0269,2.0142,1.9447,1.8835,1.8321,1.7636,1.7275,1.7275,1.6924,1.7061,1.7773,1.7451,1.7441,1.7783,1.7441,1.7275,1.7275,1.7275,1.7275,1.579,1.6944,1.7947,1.7833,1.8091,1.7932,1.6191,0.0,0.0,1.0659,1.0656,1.079,1.0143,1.1544,1.2876,1.2946,1.322,1.3574,1.4021,1.4088,1.4142,1.4295,1.4449,1.4422,0.0,1.5127,0.0,0.0,0.0,1.878,2.0479,2.0566,2.0566,2.0566,2.0566,2.0566,2.0566,2.0566,2.0566,2.0566,2.0566,2.0323,1.9766,1.9766,1.933,1.8581,1.8581,0.0,1.8148,1.7077,1.6378,1.5915,1.4416,1.3895,1.3923,1.362,1.346,1.3473,1.3621,1.3271,1.2898,1.3681,1.3807,1.3882,1.4879,1.5234,1.5092,1.4601,1.4807,1.5092,1.4522,1.5163,1.579,1.5305,1.5517,1.6009,1.6489,1.7097,1.7764,1.8191,1.8516,1.8672,1.8672,1.8486,1.833,1.833,1.8154,1.8008,1.8008,1.8327,1.8787,1.9177,1.9243,1.9243,1.9243,1.8844,1.8496,1.8284,1.7962,1.7705,1.7705,1.751,1.7588,1.8008,1.7812,1.7812,1.8008,1.7803,1.7705,1.7705,1.7705,1.7705,1.711,1.8242,1.9078,1.8033,1.7967,1.7321,1.4073,1.2772,1.1365,0.8385,0.921,1.0265,0.9448,1.1193,1.2768,0.0,1.3053,1.3434,1.4088,1.4182,1.4289,0.0,1.4823,0.0,1.4322,1.4729,0.0,0.0,0.0,0.0,1.9766,2.0157,2.0157,1.9913,1.9913,1.9913,1.9913,1.9913,1.9913,1.9913,1.9913,1.9432,1.8638,1.8638,1.8149,1.7253,1.7074,0.0,0.0,1.5427,1.4643,1.4132,1.2246,1.1857,1.2172,1.1778,1.2104,1.2889,1.32,1.326,1.318,1.2999,1.3216,1.3616,1.433,1.4593,1.4378,1.3593,1.3954,1.4378,1.36,1.4171,1.4895,1.4976,1.5,1.5224,1.6014,1.656,1.7152,1.7884,1.8363,1.8673,1.8912,1.8634,1.8485,1.8708,1.8418,1.8144,1.8144,1.8066,1.8008,1.8008,1.8008,1.794,1.7716,1.7862,1.794,1.7716,1.7872,1.8008,1.8008,1.8008,1.8008,1.8008,1.8008,1.8008,1.8008,1.8008,1.8008,1.8008,1.8008,1.8008,1.8797,1.9146,1.9155,1.8446,1.681,1.4981,1.3632,0.0,0.8613,0.7932,0.8689,0.9448,0.9296,1.0968,1.2525,1.308,1.3193,1.3507,1.4362,1.4482,1.4589,1.4883,0.0,0.0,1.489,0.0,0.0,0.0,0.0,0.0,0.0,1.855,1.863,1.7666,1.7577,1.7577,1.7577,1.7577,1.7577,1.7577,1.7577,1.7577,1.7423,1.7423,1.7415,1.7253,0.0,0.0,0.0,1.3407,1.2326,1.1958,1.1064,1.0401,1.0131,1.1413,1.1764,1.1846,1.3095,1.3427,1.3253,1.3487,1.3252,1.2804,1.26,1.2592,1.2519,1.2445,1.2519,1.2519,1.2445,1.3091,1.3893,1.4193,1.4268,1.4343,1.4721,1.5478,1.6178,1.6254,1.6279,1.6615,1.7701,1.7823,1.8101,1.9073,1.8857,1.8504,1.8504,1.8242,1.8008,1.8008,1.8008,1.7647,1.6775,1.7501,1.7647,1.6775,1.7501,1.8008,1.8008,1.8008,1.8008,1.8008,1.8008,1.8008,1.8008,1.8008,1.8008,1.8008,1.8008,1.8008,1.9136,1.902,1.8467,1.7527,1.5862,1.3906,1.1864,0.9953,0.8304,0.7236,0.7787,0.848,0.848,0.9606,1.0616,1.0886,1.1582,1.2265,1.3076,1.3957,1.4629,1.493,1.5271,0.0,0.0,0.0,0.0,0.0,0.0,0.0,0.0,1.7244,1.7747,1.7334,1.7342,1.7342,1.7342,1.7342,1.7342,1.7342,1.7342,1.6927,1.6273,1.5666,1.4906,1.4246,0.0,0.0,0.0,1.0828,1.0186,0.9947,0.8931,0.8789,0.9351,1.0614,1.1517,1.2206,1.3438,1.3834,1.3728,1.3661,1.348,1.3233,1.2939,1.2719,1.2565,1.2565,1.2565,1.2525,1.2351,1.2729,1.3187,1.3313,1.3495,1.374,1.4469,1.5108,1.5787,1.6325,1.6583,1.6905,1.7386,1.7819,1.8212,1.8666,1.8848,1.9023,1.9023,1.8887,1.8556,1.7903,1.7446,1.7001,1.6636,1.6428,1.6158,1.579,1.6088,1.6585,1.7139,1.7139,1.7432,1.8008,1.8008,1.8008,1.8008,1.8008,1.8008,1.8008,1.8008,1.8144,1.9551,1.9108,1.8213,1.7175,1.5138,1.29,1.0702,0.9137,0.7838,0.6694,0.7301,0.8032,0.7978,0.8769,0.9378,0.9118,1.0079,1.119,1.1905,1.3248,1.4428,1.5177,0.0,0.0,0.0,0.0,0.0,0.0,0.0,0.0,0.0,1.4877,1.5646,1.5982,1.5899,1.5854,1.5831,1.6191,1.6363,1.6363,1.6011,1.5426,1.4685,1.3484,1.2559,1.1724,0.0,0.0,0.0,0.8886,0.854,0.8803,0.7577,0.7841,0.8978,0.9836,1.0611,1.1466,1.2693,1.3039,1.3008,1.2816,1.2698,1.2612,1.2832,1.2942,1.2879,1.2879,1.2879,1.2832,1.2625,1.2726,1.2906,1.2993,1.318,1.3513,1.4301,1.4728,1.5124,1.5828,1.6191,1.6445,1.6764,1.7199,1.7743,1.8378,1.8816,1.9094,1.9473,1.9136,1.8535,1.7784,1.6353,1.566,1.5973,1.538,1.4904,1.4897,1.4896,1.5281,1.6149,1.6544,1.6982,1.7579,1.7862,1.8076,1.8193,1.8193,1.8262,1.8389,1.8389,1.8545,2.0439,1.9825,1.8709,1.7577,1.4774,1.1865,1.0534,0.848,0.6841,0.6536,0.7396,0.8187,0.7999,0.8917,0.9361,0.835,0.9358,1.0489,1.1276,1.2428,1.3866,0.0,0.0,0.0,0.0,0.0,0.0,0.0,0.0,0.0,0.0,1.1291,1.1701,1.2809,1.2715,1.2592,1.2328,1.3555,1.4166,1.4088,1.2936,1.2322,1.2328,1.1123,1.0611,0.0,0.0,0.0,0.0,0.7577,0.7841,0.8803,0.7577,0.7841,0.889,0.889,0.889,0.9061,1.0269,1.0611,1.0611,1.0605,1.0459,1.049,1.19,1.2731,1.3206,1.3206,1.3206,1.3206,1.32,1.32,1.328,1.3567,1.3552,1.3721,1.4015,1.4082,1.4082,1.4166,1.4166,1.4496,1.5538,1.5696,1.6511,1.863,1.8614,1.8669,1.9752,1.863,1.7701,1.771,1.4811,1.3427,1.4554,1.441,1.4271,1.4178,1.4234,1.4562,1.5188,1.6384,1.6911,1.6645,1.7501,1.8213,1.8562,1.8562,1.8848,1.9277,1.9277,1.9277,1.95,1.8641,1.7274,1.5873,1.317,1.0533,0.9274,0.7381,0.579,0.5622,0.5191,0.486,0.4826,0.5032,0.5134,0.4944,0.5941,0.7126,0.0,0.0,0.0,1.3966,1.4349,0.0,0.0,0.0,0.0,0.0,0.0,0.0,0.0,1.0904,1.0712,1.1631,1.1473,1.1357,1.1279,1.1559,1.174,1.1735,1.13,1.1123,1.1123,0.9923,0.0,0.0,0.0,0.0,0.0,0.8193,0.854,0.8978,0.9314,0.9231,0.8978,0.9749,0.9579,0.9061,1.0183,1.0611,1.0611,1.0611,1.0565,1.052,1.1016,1.1674,1.25,1.3251,1.336,1.3213,1.3213,1.336,1.3527,1.3539,1.3801,1.3975,1.4068,1.4088,1.4088,1.4088,1.4088,1.4166,1.4573,1.5213,1.5944,1.6675,1.7235,1.7729,1.8047,1.7706,1.7154,1.6429,1.4696,1.3628,1.3475,1.2074,1.1488,1.2308,1.2365,1.3118,1.4713,1.5192,1.5638,1.6186,1.6482,1.7075,1.7963,1.7963,1.8403,1.9297,1.958,1.9717,1.7703,1.7165,1.5802,1.4525,1.1831,0.9192,0.8016,0.6126,0.4524,0.3898,0.3214,0.279,0.2682,0.2665,0.2674,0.2731,0.4194,0.5639,0.0,0.0,0.0,1.3331,0.0,0.0,0.0,0.0,0.0,0.0,0.0,0.0,0.0,0.0,0.9502,0.9931,1.0209,1.025,1.0257,1.0573,1.077,1.077,1.0327,1.0154,1.0065,0.8918,0.0,0.0,0.0,0.0,0.0,0.7929,0.8452,0.8978,0.9666,0.9492,0.8978,0.9666,0.9231,0.8364,0.9052,0.9309,0.9309,0.9309,0.9575,0.9923,0.9923,1.0942,1.226,1.3463,1.3681,1.354,1.354,1.3674,1.3808,1.3808,1.3955,1.4088,1.4088,1.4088,1.4088,1.4088,1.4088,1.4088,1.4088,1.465,1.5213,1.5621,1.6273,1.6846,1.7253,1.6927,1.6437,1.5779,1.4337,1.3182,1.2669,1.1013,1.0491,1.1549,1.1717,1.2494,1.4052,1.4538,1.5,1.5473,1.5847,1.6455,1.7301,1.7449,1.8141,1.9156,1.9411,1.9765,0.0,1.5073,1.4178,1.3182,1.0465,0.7784,0.6503,0.4737,0.0,0.1645,0.1401,0.1414,0.1388,0.1493,0.1594,0.1577,0.3697,0.5483,0.0,0.8171,0.0,0.0,0.0,0.0,0.0,0.0,0.0,0.0,0.0,0.0,0.0,0.0,0.8038,0.8038,0.8867,0.9366,0.9181,1.0269,1.0808,1.0808,0.9714,0.9161,0.9161,0.8059,0.0,0.0,0.0,0.0,0.0,0.7245,0.794,0.889,0.899,0.8986,0.8894,0.8903,0.8113,0.7139,0.7139,0.7139,0.7139,0.7139,0.7841,0.8803,0.889,1.0524,1.2504,1.3646,1.3997,1.4088,1.4088,1.4088,1.4088,1.4088,1.4088,1.4088,1.4088,1.4088,1.4088,1.4088,1.4088,1.4088,1.4088,1.4088,1.4412,1.5455,1.5621,1.5951,1.6927,1.6191,1.5621,1.5621,1.3594,1.2328,1.2328,1.13,1.0947,1.1904,1.2193,1.2631,1.3214,1.4394,1.4874,1.4572,1.5466,1.6158,1.6656,1.7161,1.7989,1.9036,1.9116,1.9678,0.8371,0.0,1.0676,0.9271,0.7313,0.523,0.0,0.1787,0.0523,-0.0704,-0.1684,-0.2056,-0.1178,-0.099,-0.0362,0.1607,0.2464,0.3628,0.5716,0.0,0.0,0.0,0.0,0.0,0.0,0.0,0.0,0.0,0.0,0.0,0.0,0.0,0.8038,0.8038,0.8199,0.83,0.814,0.8302,0.8426,0.843,0.8153,0.7966,0.7969,0.7691,0.0,0.0,0.0,0.0,0.7406,0.8294,0.8746,0.899,1.0014,0.9716,0.8907,0.9042,0.8209,0.7139,0.7139,0.7139,0.7139,0.7139,0.7316,0.7665,0.8627,1.0524,1.2328,1.2674,1.3379,1.4088,1.4088,1.4088,1.4088,1.4088,1.4088,1.4088,1.4088,1.4088,1.4088,1.4088,1.4088,1.4088,1.4088,1.4088,1.4173,1.4412,1.4489,1.4573,1.4824,1.4657,1.4489,1.4489,1.319,1.2328,1.2328,1.13,1.1101,1.2155,1.2292,1.2796,1.3798,1.4192,1.4268,1.42,1.5234,1.582,1.5904,1.7696,1.8718,1.9036,1.9844,2.0323,0.4248,0.5687,0.6998,0.5774,0.3972,0.2117,0.0414,-0.0764,-0.1734,-0.2365,-0.3101,-0.3235,-0.2023,-0.183,-0.092,0.1631,0.2508,0.0,0.0,0.0,0.0,0.0,0.0,0.0,0.0,0.0,0.0,0.0,0.0,0.0,0.0,0.0,0.8038,0.8038,0.8038,0.7997,0.7916,0.7838,0.7801,0.7801,0.7801,0.7801,0.7801,0.7801,0.7763,0.0,0.0,0.0,0.7567,0.8203,0.8329,0.8442,0.9613,0.9763,0.9148,0.9154,0.8766,0.8136,0.7444,0.72,0.7153,0.7224,0.72,0.7228,0.7841,0.9314,1.0869,1.1381,1.2334,1.3288,1.3288,1.3646,1.4088,1.4088,1.4088,1.4088,1.4088,1.4088,1.4128,1.4262,1.4282,1.4329,1.4469,1.4489,1.4489,1.4489,1.4376,1.4282,1.4282,1.4168,1.4135,1.4269,1.3662,1.3355,1.3573,1.2961,1.2505,1.2339,1.2851,1.3203,1.3288,1.3288,1.3288,1.3288,1.386,1.4441,1.4977,1.6198,1.7009,1.7496,1.8621,1.9353,0.1563,0.2376,0.3282,0.2386,0.0726,-0.107,-0.2079,-0.28,-0.3366,-0.3563,-0.3625,-0.316,-0.1754,-0.1483,-0.056,0.2198,0.0,0.0,0.0,0.0,0.0,0.0,0.0,0.0,0.0,0.0,0.0,0.0,0.0,0.0,0.0,0.0,0.0,0.8038,0.8038,0.8038,0.8038,0.8038,0.8038,0.8038,0.8038,0.8038,0.8038,0.8038,0.797,0.0,0.0,0.0,0.7631,0.7631,0.7617,0.7695,0.873,0.9088,0.925,0.9376,0.9274,0.9039,0.7813,0.7319,0.7227,0.7336,0.7282,0.717,0.7146,0.7841,0.8798,0.9836,1.1037,1.2072,1.2072,1.2772,1.3646,1.3822,1.3822,1.3919,1.4142,1.4155,1.4242,1.4529,1.4589,1.4669,1.4917,1.4963,1.4963,1.4963,1.475,1.4589,1.4589,1.4376,1.4315,1.4563,1.4589,1.4689,1.4943,1.4963,1.4382,1.2825,1.3645,1.3691,1.2589,1.2589,1.2589,1.2589,1.2589,1.3118,1.4088,1.425,1.481,1.5703,1.682,1.7912,0.032,-0.0249,-0.0842,-0.0872,-0.1909,-0.318,-0.4325,-0.3942,-0.3744,-0.4854,-0.4246,-0.2856,-0.0564,-0.0094,0.1145,0.0,0.0,0.0,0.0,0.0,0.0,0.0,0.0,0.0,0.0,0.0,0.0,0.0,0.0,0.0,0.0,0.0,0.0,0.8038,0.8038,0.8038,0.8038,0.8038,0.8038,0.8038,0.8038,0.8038,0.8038,0.8038,0.8028,0.0,0.0,0.7919,0.778,0.778,0.7706,0.7611,0.7917,0.7984,0.8077,0.9242,0.8922,0.7872,0.7667,0.755,0.7512,0.7407,0.7356,0.7312,0.718,0.7228,0.7404,0.7577,0.9222,1.0864,1.0864,1.1042,1.1386,1.2334,1.2589,1.2912,1.413,1.4456,1.4543,1.4836,1.4897,1.491,1.4957,1.4963,1.4963,1.4963,1.4923,1.4897,1.4897,1.4856,1.485,1.489,1.4897,1.4917,1.4963,1.4963,1.4923,1.4556,1.4502,1.4256,1.3835,1.3822,1.3822,1.3822,1.3822,1.3906,1.4088,1.497,1.5538,1.5703,1.7076,1.7804,-0.0711,-0.1318,-0.1858,-0.2287,-0.2831,-0.343,-0.4068,-0.3819,-0.3152,-0.2431,-0.1841,-0.0752,0.1823,0.0,0.311,0.5601,0.0,0.0,0.0,0.0,0.0,0.0,0.0,0.0,0.0,0.0,0.0,0.0,0.0,0.0,0.0,0.0,0.0,0.0,0.8038,0.8038,0.8038,0.8038,0.8038,0.8038,0.8038,0.8038,0.8038,0.8038,0.8038,0.8038,0.0,0.7997,0.7933,0.7933,0.7896,0.7845,0.7909,0.8279,0.8995,0.9643,0.8987,0.7726,0.7807,0.7733,0.76,0.7607,0.7502,0.7373,0.7383,0.7272,0.7156,0.7241,0.8436,0.9666,0.9666,1.0183,1.088,1.1401,1.1585,1.2065,1.3361,1.3659,1.4014,1.5046,1.5197,1.5251,1.5404,1.5431,1.5431,1.5431,1.5297,1.5197,1.5197,1.5064,1.5023,1.5177,1.5197,1.5257,1.5418,1.5431,1.5297,1.4983,1.4282,1.3704,1.358,1.3033,1.2945,1.3573,1.3573,1.3931,1.4563,1.5064,1.531,1.5317,1.6564,1.7149,-0.1011,-0.1303,-0.1522,-0.2197,-0.2597,-0.2932,-0.2872,-0.2508,-0.1527,0.046,0.094,0.1821,0.4093,0.4708,0.0,0.6315,0.0,0.0,0.0,0.0,0.0,0.0,0.0,0.0,0.0,0.0,0.0,0.0,0.0,0.0,0.0,0.0,0.8038,0.8038,0.8038,0.8038,0.8038,0.8038,0.8038,0.8038,0.8038,0.8038,0.8038,0.8038,0.8038,0.8038,0.8038,0.8038,0.8038,0.8038,0.8038,0.8038,0.8038,0.8825,0.9998,0.9608,0.9033,0.8265,0.8096,0.7892,0.7712,0.7787,0.7658,0.7489,0.7573,0.7434,0.7272,0.7394,0.797,0.8573,0.8528,0.9268,1.0129,1.0395,1.0606,1.1007,1.2351,1.2642,1.309,1.4769,1.5019,1.5184,1.5697,1.5832,1.5832,1.5832,1.5645,1.5498,1.5498,1.5022,1.4969,1.5471,1.5212,1.5204,1.571,1.5832,1.5638,1.5197,1.4267,1.3647,1.3586,1.2746,1.2746,1.3586,1.358,1.4044,1.4963,1.4963,1.4963,1.5053,1.5899,1.6359,-0.0078,-0.0083,-0.0174,-0.0174,-0.0952,-0.1656,-0.1451,0.027,0.1887,0.2055,0.2974,0.4195,0.5567,0.6836,0.7726,0.7836,0.0,0.0,0.0,0.0,0.0,0.0,0.0,0.0,0.0,0.0,0.0,0.0,0.0,0.0,0.0,0.0,0.0,0.8038,0.8038,0.8038,0.8038,0.8038,0.8038,0.8038,0.8038,0.8038,0.8038,0.8038,0.8038,0.8038,0.8038,0.8038,0.8038,0.8038,0.8038,0.8038,0.8038,0.8825,0.9805,0.8627,0.8814,0.969,0.8428,0.8024,0.7987,0.7851,0.7797,0.7756,0.7638,0.7584,0.757,0.758,0.767,0.7626,0.7573,0.7653,0.8135,0.914,0.9427,0.985,1.1249,1.1571,1.2115,1.3701,1.404,1.4339,1.5629,1.5832,1.5832,1.5832,1.5812,1.5798,1.5798,1.4709,1.441,1.5602,1.4721,1.4536,1.573,1.5832,1.5812,1.5765,1.5418,1.5146,1.488,1.4777,1.4777,1.4874,1.4874,1.4867,1.4963,1.4963,1.4963,1.497,1.5329,1.5456,-0.0152,0.0,0.0,0.0,0.0795,0.1446,0.0932,0.205,0.3466,0.438,0.4942,0.5666,0.6958,0.0,0.8038,0.0,0.0,0.0,0.0,0.0,0.0,0.0,0.0,0.0,0.0,0.0,0.0,0.0,0.0,0.0,0.0,0.0,0.0,0.8038,0.8038,0.8038,0.8038,0.8038,0.8038,0.8038,0.8038,0.8038,0.8038,0.8038,0.8038,0.8038,0.8038,0.8038,0.8038,0.8038,0.8038,0.8038,0.8038,0.8333,0.8726,0.8237,0.8333,0.8726,0.8137,0.8038,0.8031,0.7974,0.7889,0.7818,0.7862,0.7746,0.7617,0.7706,0.7733,0.7699,0.755,0.7621,0.7825,0.8295,0.8464,0.8844,1.0259,1.0563,1.0969,1.241,1.2619,1.2818,1.3307,1.3397,1.3397,1.3397,1.3397,1.3397,1.3397,1.2915,1.2813,1.3307,1.3686,1.407,1.4561,1.5337,1.5832,1.5832,1.5725,1.5618,1.5504,1.5504,1.5504,1.5504,1.5504,1.5504,1.5504,1.5504,1.5504,1.5504,1.5611,1.5665,-0.076,-0.0571,-0.0435,-0.0088,0.153,0.297,0.2671,0.3816,0.5277,0.6382,0.6631,0.6933,0.7839,0.0,0.0,0.0,0.0,0.0,0.0,0.0,0.0,0.0,0.0,0.0,0.0,0.0,0.0,0.0,0.0,0.0,0.0,0.0,0.0,0.0,0.8038,0.8038,0.8038,0.8038,0.8038,0.8038,0.8038,0.8038,0.8038,0.8038,0.8038,0.8038,0.8038,0.8038,0.8038,0.8038,0.8038,0.8038,0.8038,0.8038,0.8038,0.8038,0.8038,0.8038,0.8038,0.8038,0.8038,0.8038,0.797,0.7902,0.8007,0.7899,0.7756,0.7855,0.7882,0.7862,0.7763,0.7811,0.7882,0.7882,0.7963,0.8237,0.9217,0.941,0.9702,1.1068,1.1268,1.1458,1.1848,1.1945,1.1945,1.1945,1.1945,1.1945,1.1945,1.1556,1.1268,1.1268,1.2522,1.3392,1.3872,1.4657,1.5337,1.5737,1.5832,1.5832,1.5832,1.5832,1.5832,1.5832,1.5832,1.5832,1.5832,1.5832,1.5832,1.5832,1.5832,1.5832,-0.1868,-0.1649,-0.1482,-0.0268,0.0911,0.224,0.3683,0.5875,0.7685,0.798,0.8038,0.8038,0.8038,0.8038,0.0,0.0,0.0,0.0,0.0,0.0,0.0,0.0,0.0,0.0,0.0,0.0,0.0,0.0,0.0,0.0,0.0,0.0,0.0,0.0,0.8038,0.8038,0.8038,0.8038,0.8038,0.8038,0.8038,0.8038,0.8038,0.8038,0.8038,0.8038,0.8038,0.8038,0.8038,0.8038,0.8038,0.8038,0.8038,0.8038,0.8038,0.8038,0.8038,0.8038,0.8038,0.8038,0.8038,0.8038,0.8038,0.8038,0.8038,0.8038,0.8038,0.8038,0.8038,0.8038,0.8038,0.8038,0.8038,0.8038,0.8038,0.8038,0.8038,0.8038,0.8432,0.9706,0.9998,1.0391,1.1658,1.1848,1.1848,1.1848,1.1848,1.1848,1.1848,1.0779,0.9998,0.9998,1.117,1.2431,1.3776,1.3878,1.4459,1.573,1.5832,1.5832,1.5832,1.5832,1.5832,1.5832,1.5832,1.5832,1.5832,1.5832,1.5832,1.5832,1.5832,1.5832,-0.069,-0.049,-0.0435,-0.0088,0.1638,0.3318,0.3888,0.5252,0.6631,0.7799,0.8038,0.8038,0.8038,0.0,0.0,0.0,0.0,0.0,0.0,0.0,0.0,0.0,0.0,0.0,0.0,0.0,0.0,0.0,0.0,0.0,0.0,0.0,0.0,0.0,0.8038,0.8038,0.8038,0.8038,0.8038,0.8038,0.8038,0.8038,0.8038,0.8038,0.8038,0.8038,0.8038,0.8038,0.8038,0.8038,0.8038,0.8038,0.8038,0.8038,0.8038,0.8038,0.8038,0.8038,0.8038,0.8038,0.8038,0.8038,0.8038,0.8038,0.8038,0.8038,0.8038,0.8038,0.8038,0.8038,0.8038,0.8038,0.8038,0.8038,0.8038,0.8038,0.8038,0.8038,0.8137,0.8531,0.8627,0.8726,0.9118,0.9114,0.9114,0.9114,0.9114,0.9114,0.9114,0.8825,0.892,0.9903,1.117,1.2431,1.3776,1.4752,1.5439,1.5737,1.5832,1.5832,1.5832,1.5832,1.5832,1.5832,1.5832,1.5832,1.5832,1.5832,1.5832,1.5832,1.5832,1.5832,-0.0899,-0.0685,-0.0627,-0.0091,0.1593,0.3379,0.4528,0.5728,0.6935,0.7819,0.8038,0.8038,0.8038,0.8038,0.0,0.0,0.0,0.0,0.0,0.0,0.0,0.0,0.0,0.0,0.0,0.0,0.0,0.0,0.0,0.0,0.0,0.0,0.0,0.0,0.7235,0.7434,0.8038,0.8038,0.8038,0.8038,0.8038,0.8038,0.8038,0.8038,0.8038,0.8038,0.8038,0.8038,0.8038,0.8038,0.8038,0.8038,0.8038,0.8038,0.8038,0.8038,0.8038,0.8038,0.8038,0.8038,0.8038,0.8038,0.8038,0.8038,0.8038,0.8038,0.8038,0.8038,0.8038,0.8038,0.8038,0.8038,0.8038,0.8038,0.8038,0.8038,0.8038,0.8038,0.8038,0.8038,0.8038,0.8038,0.8038,0.8038,0.8038,0.8038,0.8038,0.8038,0.8038,0.8432,0.9118,0.9899,1.117,1.2431,1.3776,1.4555,1.5242,1.5737,1.5832,1.5832,1.5832,1.5832,1.5832,1.5832,1.5832,1.5832,1.5832,1.5832,1.5832,1.5832,1.5832,1.5832,-0.1709,-0.1566,-0.1398,-0.0291,0.1077,0.2855,0.5606,0.7135,0.8038,0.8038,0.0,0.8038,0.8038,0.0,0.0,0.0,0.0,0.0,0.0,0.0,0.0,0.0,0.0,0.0,0.0,0.0,0.0,0.0,0.0,0.0,0.0,0.0,0.0,0.0,0.5827,0.6431,0.7839,0.7839,0.7839,0.0,0.8038,0.8038,0.8038,0.8038,0.8038,0.8038,0.8038,0.8038,0.8038,0.8038,0.8038,0.8038,0.8038,0.8038,0.8038,0.8038,0.8038,0.8038,0.8038,0.8038,0.8038,0.8038,0.8038,0.8038,0.8038,0.8038,0.8038,0.8038,0.8038,0.8038,0.8038,0.8038,0.8038,0.8038,0.8038,0.8038,0.8038,0.8038,0.8038,0.8038,0.8038,0.8038,0.8038,0.8038,0.8038,0.8038,0.8038,0.8038,0.8038,0.9019,0.9899,1.0194,1.1165,1.2522,1.3974,1.407,1.4555,1.573,1.5832,1.5832,1.5832,1.5832,1.5832,1.5832,1.5832,1.5832,1.5832,1.5832,1.5832,1.5832,1.5832,1.5832,-0.0439,-0.0361,-0.0279,-0.0095,0.1761,0.4296,0.6924,0.7839,0.8038,0.8038,0.8038,0.8038,0.0,0.0,0.0,0.0,0.0,0.0,0.0,0.0,0.0,0.0,0.0,0.0,0.0,0.0,0.0,0.0,0.0,0.0,0.0,0.0,0.0,0.4418,0.4418,0.512,0.6431,0.6431,0.6933,0.0,0.8038,0.8038,0.8038,0.8038,0.8038,0.8038,0.8038,0.8038,0.8038,0.8038,0.8038,0.8038,0.8038,0.8038,0.8038,0.8038,0.8038,0.8038,0.8038,0.8038,0.8038,0.8038,0.8038,0.8038,0.8038,0.8038,0.8038,0.8038,0.8038,0.8038,0.8038,0.8038,0.8038,0.8038,0.8038,0.8038,0.8038,0.8038,0.8038,0.8038,0.8038,0.8038,0.8038,0.8038,0.8038,0.8038,0.8038,0.8038,0.8038,0.8237,0.9213,1.1263,1.175,1.2818,1.5146,1.5439,1.5534,1.5825,1.5832,1.5832,1.5832,1.5832,1.5832,1.5832,1.5832,1.5832,1.5832,1.5832,1.5832,1.5832,1.5832,1.5832,0.0,0.0462,0.1227,0.2522,0.3961,0.5522,0.7534,0.8038,0.8038,0.8038,0.8038,0.0,0.0,0.0,0.0,0.0,0.0,0.0,0.0,0.0,0.0,0.0,0.0,0.0,0.0,0.0,0.0,0.0,0.0,0.0,0.0,0.4718,0.4016,0.4016,0.4016,0.462,0.6029,0.6631,0.7335,0.8038,0.8038,0.8038,0.8038,0.8038,0.8038,0.8038,0.8038,0.8038,0.8038,0.8038,0.8038,0.8038,0.8038,0.8038,0.8038,0.8038,0.8038,0.8038,0.8038,0.8038,0.8038,0.8038,0.8038,0.8038,0.8038,0.8038,0.8038,0.8038,0.8038,0.8038,0.8038,0.8038,0.8038,0.8038,0.8038,0.8038,0.8038,0.8038,0.8038,0.8038,0.8038,0.8038,0.8038,0.8038,0.8038,0.8038,0.8038,0.8038,0.8038,0.8528,0.9509,1.0877,1.156,1.2721,1.4752,1.4274,1.4172,1.4854,1.4274,1.3884,1.3884,1.3884,1.4561,1.5737,1.5242,1.5146,1.5832,1.5146,1.5242,1.5832,1.5832,1.5832,0.046,0.1417,0.2879,0.5376,0.6029,0.6329,0.7736,0.8038,0.8038,0.8038,0.8038,0.0,0.0,0.0,0.0,0.0,0.0,0.0,0.0,0.0,0.0,0.0,0.0,0.0,0.0,0.0,0.0,0.0,0.0,0.0,0.5727,0.4618,0.3915,0.3615,0.3915,0.4518,0.5627,0.7033,0.7637,0.7637,0.7434,0.7332,0.7332,0.7332,0.7434,0.7637,0.7939,0.7839,0.7637,0.7637,0.7839,0.7939,0.7534,0.7434,0.7637,0.7434,0.7332,0.7332,0.7332,0.7332,0.7332,0.7332,0.7332,0.7332,0.7332,0.7332,0.7332,0.7637,0.7637,0.7736,0.7939,0.8038,0.8038,0.8038,0.8038,0.8038,0.8038,0.8038,0.8038,0.8038,0.8038,0.8038,0.8038,0.8038,0.8038,0.8038,0.8038,0.8038,0.8038,0.892,0.9702,0.9998,1.0974,1.2139,1.3392,1.2528,1.2334,1.3488,1.2528,1.1945,1.1945,1.1945,1.2915,1.5051,1.4076,1.4172,1.5439,1.4459,1.4561,1.5832,1.5832,1.5832,0.2436,0.3011,0.3833,0.5575,0.6029,0.6329,0.7736,0.0,0.8038,0.0,0.0,0.0,0.0,0.0,0.0,0.0,0.0,0.0,0.0,0.0,0.0,0.0,0.0,0.0,0.0,0.0,0.0,0.0,0.0,0.0,0.4318,0.4116,0.3515,0.2314,0.3416,0.4116,0.4218,0.5625,0.6229,0.6229,0.512,0.4516,0.4516,0.4516,0.512,0.6331,0.7537,0.7335,0.6229,0.6229,0.6933,0.7736,0.542,0.522,0.6129,0.492,0.4516,0.4516,0.4516,0.4516,0.4516,0.4516,0.4516,0.4516,0.4516,0.4516,0.4818,0.5927,0.6229,0.6531,0.7736,0.8038,0.8038,0.8038,0.8038,0.8038,0.8038,0.8038,0.8038,0.8038,0.8038,0.8038,0.8038,0.8038,0.8038,0.8038,0.8038,0.8038,0.8038,0.8137,0.8726,0.9899,1.0194,1.0779,1.2042,1.2042,1.1945,1.2139,1.2042,1.1945,1.1945,1.1945,1.2042,1.2431,1.2237,1.2818,1.4166,1.3974,1.4561,1.5832,1.5832,1.5832,0.415,0.465,0.5241,0.6784,0.7135,0.7235,0.7839,0.8038,0.7739,0.0,0.0,0.0,0.0,0.0,0.0,0.0,0.0,0.0,0.0,0.0,0.0,0.0,0.0,0.0,0.0,0.0,0.0,0.0,0.0,0.4016,0.4016,0.3316,0.2614,0.2013,0.2614,0.2914,0.2914,0.4218,0.492,0.492,0.4318,0.4016,0.4016,0.4016,0.4316,0.492,0.552,0.542,0.492,0.492,0.522,0.5622,0.4418,0.4318,0.482,0.4216,0.4016,0.4016,0.4016,0.4016,0.4016,0.4016,0.4016,0.4016,0.4016,0.4016,0.4116,0.4718,0.492,0.502,0.562,0.6326,0.6833,0.6833,0.7434,0.8038,0.8038,0.8038,0.8038,0.8038,0.8038,0.8038,0.8038,0.8038,0.8038,0.8038,0.8038,0.8038,0.8038,0.8038,0.8233,0.8825,0.8924,0.941,1.0681,1.019,0.9998,1.0779,1.0096,0.9702,0.9702,0.9702,0.9702,0.9702,1.0485,1.1843,1.3878,1.3108,1.3788,1.5832,1.5832,1.5832,0.5596,0.6051,0.6443,0.7625,0.8011,0.8038,0.0,0.0,0.7637,0.0,0.0,0.0,0.0,0.0,0.0,0.0,0.0,0.0,0.0,0.0,0.0,0.0,0.0,0.0,0.0,0.0,0.0,0.0,0.0,0.3615,0.4016,0.3015,0.2313,0.2013,0.2314,0.2314,0.2013,0.3015,0.3515,0.3515,0.3115,0.3015,0.3015,0.3015,0.3015,0.3015,0.3715,0.3815,0.3515,0.3515,0.3715,0.3915,0.3215,0.3215,0.3414,0.3115,0.3015,0.3015,0.3015,0.3015,0.3015,0.3015,0.3015,0.3015,0.3015,0.3015,0.3015,0.3416,0.3515,0.3615,0.3915,0.472,0.5525,0.5525,0.6226,0.7129,0.7839,0.8038,0.8038,0.8038,0.8038,0.8038,0.8038,0.8038,0.8038,0.8038,0.8038,0.7839,0.7537,0.7839,0.7839,0.7537,0.7839,0.8432,0.941,0.8531,0.8432,0.941,0.8528,0.8038,0.8038,0.8038,0.8038,0.8038,0.9019,1.0774,1.3392,1.2431,1.3204,1.5832,1.5832,1.5832,0.6743,0.6974,0.7188,0.7712,0.7933,0.8038,0.0,0.0,0.0,0.0,0.0,0.0,0.0,0.0,0.0,0.0,0.0,0.0,0.0,0.0,0.0,0.0,0.0,0.0,0.0,0.0,0.0,0.0,0.0,0.2614,0.3915,0.3915,0.3316,0.2013,0.3215,0.3316,0.2013,0.2113,0.2113,0.2113,0.0807,0.0202,0.0202,0.0202,0.0202,0.0303,0.2914,0.3316,0.2113,0.2113,0.2814,0.3715,0.1209,0.1008,0.1913,0.0706,0.0202,0.0202,0.0202,0.0202,0.0202,0.0202,0.0202,0.0202,0.0202,0.0202,0.0504,0.1712,0.2113,0.2413,0.3715,0.4016,0.4116,0.4116,0.4116,0.4918,0.7434,0.8038,0.8038,0.8038,0.8038,0.8038,0.8038,0.8038,0.8038,0.8038,0.8038,0.7537,0.6229,0.7235,0.7537,0.6232,0.7235,0.8038,0.8137,0.8038,0.8038,0.8137,0.8038,0.8038,0.8038,0.8038,0.8038,0.8038,0.8038,0.941,1.2042,1.1945,1.3204,1.5832,1.5832,1.5832,0.6807,0.7034,0.7248,0.7699,0.7851,0.7919,0.8018,0.8038,0.0,0.0,0.0,0.0,0.0,0.0,0.0,0.0,0.0,0.0,0.0,0.0,0.0,0.0,0.0,0.0,0.0,0.0,0.0,0.0,0.0,0.0,0.141,0.1411,0.1209,0.0706,0.1209,0.1209,0.0706,0.0706,0.0706,0.0706,0.0202,0.0,0.0,0.0,0.0,0.0101,0.1008,0.1209,0.0706,0.0706,0.1008,0.131,0.0404,0.0303,0.0706,0.0202,0.0,0.0,0.0,0.0,0.0,0.0,0.0,0.0,0.0,0.0,0.0101,0.0605,0.0706,0.0807,0.131,0.2113,0.2914,0.3815,0.4016,0.4216,0.522,0.542,0.542,0.542,0.542,0.542,0.542,0.542,0.542,0.542,0.542,0.522,0.482,0.512,0.5622,0.5929,0.6431,0.7033,0.7939,0.8038,0.8038,0.8038,0.8038,0.8038,0.8038,0.8038,0.8038,0.8038,0.8038,0.8924,1.0681,1.0681,1.1556,1.3307,1.4172,1.4561,0.6668,0.6919,0.7166,0.7563,0.7702,0.7794,0.7994,0.0,0.0,0.0,0.0,0.0,0.0,0.0,0.0,0.0,0.0,0.0,0.0,0.0,0.0,0.0,0.0,0.0,0.0,0.0,0.0,0.0,0.0,0.0,0.0605,0.0202,0.0,0.0,0.0,0.0,0.0,0.0,0.0,0.0,0.0,0.0,0.0,0.0,0.0,0.0,0.0,0.0,0.0,0.0,0.0,0.0,0.0,0.0,0.0,0.0,0.0,0.0,0.0,0.0,0.0,0.0,0.0,0.0,0.0,0.0,0.0,0.0,0.0,0.0,0.0,0.0706,0.1511,0.2414,0.2614,0.2614,0.2614,0.3314,0.4016,0.4016,0.4016,0.4016,0.4016,0.4016,0.4016,0.4016,0.4016,0.3815,0.3416,0.3715,0.4318,0.5222,0.5727,0.6531,0.7839,0.8038,0.8038,0.8038,0.8038,0.8038,0.8038,0.8038,0.8038,0.8038,0.8038,0.8432,0.9316,0.9801,1.0681,1.1945,1.2818,1.3488,0.0,0.0,0.0,0.0,0.0,0.0,0.7967,0.0,0.0,0.0,0.0,0.0,0.0,0.0,0.0,0.0,0.0,0.0,0.0,0.0,0.0,0.0,0.0,0.0,0.0,0.0,0.0,0.0,0.0,0.0605,0.1913,0.0706,0.0,0.0,0.0,0.0,0.0,0.0,0.0,0.0,0.0,0.0,0.0,0.0,0.0,0.0,0.0,0.0,0.0,0.0,0.0,0.0,0.0,0.0,0.0,0.0,0.0,0.0,0.0,0.0,0.0,0.0,0.0,0.0,0.0,0.0,0.0,0.0,0.0,0.0,0.0,0.0,0.0,0.0,0.0,0.0,0.0,0.2013,0.3915,0.3915,0.3915,0.3915,0.3915,0.3915,0.3915,0.3915,0.3915,0.3416,0.2113,0.3115,0.3915,0.3915,0.5122,0.6531,0.7839,0.7939,0.8038,0.8038,0.8038,0.8038,0.8038,0.8038,0.8038,0.8038,0.8038,0.8038,0.8038,0.9312,1.0583,1.175,1.1848,1.2619,0.639,0.0,0.0,0.0,0.0,0.0,0.0,0.0,0.0,0.0,0.0,0.0,0.0,0.0,0.0,0.0,0.0,0.0,0.0,0.0,0.0,0.0,0.0,0.0,0.0,0.0,0.0,0.0,0.0202,0.0202,0.0504,0.0202,0.0,0.0,0.0,0.0,0.0,0.0,0.0,0.0,0.0,0.0,0.0,0.0,0.0,0.0,0.0,0.0,0.0,0.0,0.0,0.0,0.0,0.0,0.0,0.0,0.0,0.0,0.0,0.0,0.0,0.0,0.0,0.0,0.0,0.0,0.0,0.0,0.0,0.0,0.0,0.0,0.0,0.0,0.0,0.0,0.0,0.0605,0.1109,0.1109,0.1109,0.1109,0.1109,0.1109,0.1109,0.1109,0.1109,0.1008,0.0605,0.0907,0.1511,0.2414,0.3717,0.512,0.6429,0.7437,0.8038,0.8038,0.8038,0.8038,0.8038,0.8038,0.8038,0.8038,0.8038,0.8038,0.8038,0.8333,0.8726,0.9118,1.0092,1.1745,0.5044,0.551,0.6089,0.0,0.0,0.0,0.0,0.7702,0.0,0.0,0.0,0.0,0.0,0.0,0.0,0.0,0.0,0.0,0.0,0.0,0.0,0.0,0.0,0.0,0.0,0.0,0.0,0.0,0.0,0.0,0.0,0.0,0.0,0.0,0.0,0.0,0.0,0.0,0.0,0.0,0.0,0.0,0.0,0.0,0.0,0.0,0.0,0.0,0.0,0.0,0.0,0.0,0.0,0.0,0.0,0.0,0.0,0.0,0.0,0.0,0.0,0.0,0.0,0.0,0.0,0.0,0.0,0.0,0.0,0.0,0.0,0.0,0.0,0.0,0.0,0.0,0.0,0.0,0.0,0.0,0.0,0.0,0.0,0.0,0.0,0.0,0.0,0.0,0.0,0.0,0.0504,0.1812,0.2715,0.393,0.5989,0.6759,0.7459,0.813,0.8075,0.8038,0.8038,0.8038,0.8038,0.8038,0.8038,0.8038,0.8038,0.8038,0.8038,0.8038,0.9414,1.1068,0.307,0.3969,0.5017,0.0,0.0,0.0,0.7675,0.7665,0.0,0.0,0.0,0.0,0.0,0.0,0.0,0.0,0.0,0.0,0.0,0.0,0.0,0.0,0.0,0.0,0.0,0.0,0.0,0.0,0.0,0.0,0.0,0.0,0.0,0.0,0.0,0.0,0.0,0.0,0.0,0.0,0.0,0.0,0.0,0.0,0.0,0.0,0.0,0.0,0.0,0.0,0.0,0.0,0.0,0.0,0.0,0.0,0.0,0.0,0.0,0.0,0.0,0.0,0.0,0.0,0.0,0.0,0.0,0.0,0.0,0.0,0.0,0.0,0.0,0.0,0.0,0.0,0.0,0.0,0.0,0.0,0.0,0.0,0.0,0.0,0.0,0.0,0.0,0.0,0.0,0.0,0.0504,0.1611,0.1913,0.3039,0.5562,0.5888,0.6584,0.7948,0.7922,0.7839,0.8038,0.7839,0.7839,0.8038,0.8038,0.8038,0.8038,0.8038,0.8038,0.8038,0.9213,1.0485,0.0,0.0,0.0,0.0,0.0,0.0,0.7277,0.7438,0.0,0.0,0.0,0.0,0.0,0.0,0.0,0.0,0.0,0.0,0.0,0.0,0.0,0.0,0.0,0.0,0.0,0.0,0.0,0.0,0.0,0.0,0.0,0.0,0.0,0.0,0.0,0.0,0.0,0.0,0.0,0.0,0.0,0.0,0.0,0.0,0.0,0.0,0.0,0.0,0.0,0.0,0.0,0.0,0.0,0.0,0.0,0.0,0.0,0.0,0.0,0.0,0.0,0.0,0.0,0.0,0.0,0.0,0.0,0.0,0.0,0.0,0.0,0.0,0.0,0.0,0.0,0.0,0.0,0.0,0.0,0.0,0.0,0.0,0.0,0.0,0.0,0.0,0.0,0.0,0.0,0.0,0.0101,0.0404,0.1309,0.223,0.2786,0.4774,0.6078,0.6398,0.6396,0.6833,0.7939,0.6933,0.6933,0.7939,0.8038,0.8038,0.8038,0.8038,0.8038,0.8038,0.8233,0.9118,0.0,0.0,0.0,0.4096,0.0,0.0,0.0,0.0,0.7247,0.0,0.0,0.0,0.0,0.0,0.0,0.0,0.0,0.0,0.0,0.0,0.0,0.0,0.0,0.0,0.0,0.0,0.0,0.0,0.0,0.0,0.0,0.0,0.0,0.0,0.0,0.0,0.0,0.0,0.0,0.0,0.0,0.0,0.0,0.0,0.0,0.0,0.0,0.0,0.0,0.0,0.0,0.0,0.0,0.0,0.0,0.0,0.0,0.0,0.0,0.0,0.0,0.0,0.0,0.0,0.0,0.0,0.0,0.0,0.0,0.0,0.0,0.0,0.0,0.0,0.0,0.0,0.0,0.0,0.0,0.0,0.0,0.0,0.0,0.0,0.0,0.0,0.0,0.0,0.0,0.0,0.0,0.0,0.0619,0.1252,0.2017,0.3239,0.4355,0.502,0.5041,0.5273,0.6024,0.6078,0.685,0.8258,0.8262,0.8225,0.8153,0.8153,0.8113,0.8038,0.8038,0.8726,0.0,0.0,0.0,0.0,0.0,0.5486,0.0,0.0,0.0,0.6205,0.0,0.0,0.0,0.0,0.0,0.0,0.0,0.0,0.0,0.0,0.0,0.0,0.0,0.0,0.0,0.0,0.0,0.0,0.0,0.0,0.0,0.0,0.0,0.0,0.0,0.0,0.0,0.0,0.0,0.0,0.0,0.0,0.0,0.0,0.0,0.0,0.0,0.0,0.0,0.0,0.0,0.0,0.0,0.0,0.0,0.0,0.0,0.0,0.0,0.0,0.0,0.0,0.0,0.0,0.0,0.0,0.0,0.0,0.0,0.0,0.0,0.0,0.0,0.0,0.0,0.0,0.0,0.0,0.0,0.0,0.0,0.0,0.0,0.0,0.0,0.0,0.0,0.0,0.0,0.0,0.0,0.0,0.0,0.043,0.1636,0.1934,0.2553,0.3732,0.3658,0.3698,0.3959,0.5453,0.6995,0.8479,0.8482,0.8411,0.8272,0.8272,0.8191,0.8038,0.8038,0.8627,0.0,0.0,0.0,0.0,0.2986,0.0,0.0,0.0,0.7343,0.7055,0.0,0.0,0.0,0.0,0.0,0.0,0.0,0.0,0.0,0.0,0.0,0.0,0.0,0.0,0.0,0.0,0.0,0.0,0.0,0.0,0.0,0.0,0.0,0.0,0.0,0.0,0.0,0.0,0.0,0.0,0.0,0.0,0.0,0.0,0.0,0.0,0.0,0.0,0.0,0.0,0.0,0.0,0.0,0.0,0.0,0.0,0.0,0.0,0.0,0.0,0.0,0.0,0.0,0.0,0.0,0.0,0.0,0.0,0.0,0.0,0.0,0.0,0.0,0.0,0.0,0.0,0.0,0.0,0.0,0.0,0.0,0.0,0.0,0.0,0.0,0.0,0.0,0.0,0.0,0.0,0.0,0.0,0.0,0.0107,0.0219,0.129,0.2033,0.2282,0.2214,0.2809,0.4003,0.5488,0.6981,0.8482,0.8482,0.8411,0.8272,0.8272,0.8191,0.8038,0.8038,0.8038,0.0,0.0,0.0,0.0,0.0,0.0,0.6128,0.0,0.7244,0.0,0.0,0.0,0.0,0.0,0.0,0.0,0.0,0.0,0.0,0.0,0.0,0.0,0.0,0.0,0.0,0.0,0.0,0.0,0.0,0.0,0.0,0.0,0.0,0.0,0.0,0.0,0.0,0.0,0.0,0.0,0.0,0.0,0.0,0.0,0.0,0.0,0.0,0.0,0.0,0.0,0.0,0.0,0.0,0.0,0.0,0.0,0.0,0.0,0.0,0.0,0.0,0.0,0.0,0.0,0.0,0.0,0.0,0.0,0.0,0.0,0.0,0.0,0.0,0.0,0.0,0.0,0.0,0.0,0.0,0.0,0.0,0.0,0.0,0.0,0.0,0.0,0.0,0.0,0.0,0.0,0.0,0.0,0.0,0.0,0.0,0.0551,0.0877,0.0875,0.16,0.2741,0.4242,0.5783,0.7211,0.8615,0.8615,0.8503,0.8272,0.8272,0.8191,0.8038,0.8038,0.8038,0.0,0.0,0.0,0.0,0.0,0.0,0.0,0.0,0.0,0.0,0.0,0.0,0.0,0.0,0.0,0.0,0.0,0.0,0.0,0.0,0.0,0.0,0.0,0.0,0.0,0.0,0.0,0.0,0.0,0.0,0.0,0.0,0.0,0.0,0.0,0.0,0.0,0.0,0.0,0.0,0.0,0.0,0.0,0.0,0.0,0.0,0.0,0.0,0.0,0.0,0.0,0.0,0.0,0.0,0.0,0.0,0.0,0.0,0.0,0.0,0.0,0.0,0.0,0.0,0.0,0.0,0.0,0.0,0.0,0.0,0.0,0.0,0.0,0.0,0.0,0.0,0.0,0.0,0.0,0.0,0.0,0.0,0.0,0.0,0.0,0.0,0.0,0.0,0.0,0.0,0.0,0.0,0.0,0.0,0.0,0.0,0.0,0.0,0.0976,0.2469,0.4353,0.5392,0.684,0.8648,0.8648,0.8523,0.8272,0.8272,0.8191,0.8038,0.8038,0.8038,0.0,0.0,0.0,0.1539,0.0,0.0,0.0,0.0,0.7322,0.0,0.0,0.0,0.0,0.0,0.0,0.563,0.0,0.0,0.0,0.0,0.0,0.0,0.0,0.0,0.0,0.0,0.0,0.0,0.0,0.0,0.0,0.0,0.0,0.0,0.0,0.0,0.0,0.0,0.0,0.0,0.0,0.0,0.0,0.0,0.0,0.0,0.0,0.0,0.0,0.0,0.0,0.0,0.0,0.0,0.0,0.0,0.0,0.0,0.0,0.0,0.0,0.0,0.0,0.0,0.0,0.0,0.0,0.0,0.0,0.0,0.0,0.0,0.0,0.0,0.0,0.0,0.0,0.0,0.0,0.0,0.0,0.0,0.0,0.0,0.0,0.0,0.0,0.0,0.0,0.0,0.0,0.0,0.0,0.0,0.0,0.0,0.0,0.0,0.0,0.1322,0.4143,0.4208,0.5614,0.8489,0.8489,0.8418,0.8272,0.8272,0.8191,0.8038,0.8038,0.8038,0.0,0.0,0.0289,0.1478,0.0,0.0,0.0,0.0,0.0,0.0,0.0,0.0,0.0,0.0,0.5622,0.4374,0.3235,0.0,0.0,0.0,0.0,0.0,0.0,0.0,0.0,0.0,0.0,0.0,0.0,0.0,0.0,0.0,0.0,0.0,0.0,0.0,0.0,0.0,0.0,0.0,0.0,0.0,0.0,0.0,0.0,0.0,0.0,0.0,0.0,0.0,0.0,0.0,0.0,0.0,0.0,0.0,0.0,-0.0101,-0.1008,-0.131,-0.131,-0.131,-0.131,-0.1108,-0.0303,0.0,0.0,0.0,0.0,0.0,0.0,0.0,0.0,0.0,0.0,0.0,0.0,0.0,0.0,0.0,0.0,0.0,0.0,0.0,0.0,0.0,0.0,0.0,0.0,0.0,0.0,0.0,0.0,0.0,0.0,0.0,0.0,0.0,0.0888,0.2324,0.4322,0.521,0.6619,0.8635,0.8442,0.8364,0.8411,0.8316,0.8245,0.8194,0.8194,0.8136,0.2119,0.1359,0.0,0.1601,0.1791,0.0,0.4278,0.0,0.0,0.0,0.0,0.0,0.0,0.0,0.0,0.3157,0.2336,0.0,0.0,0.0,0.0,0.0,0.0,0.0,0.0,0.0,0.0,0.0,0.0,0.0,0.0,0.0,0.0,0.0,0.0,0.0,0.0,0.0,0.0,0.0,0.0,0.0,0.0,0.0,0.0,0.0,0.0,0.0,0.0,0.0,0.0,0.0,0.0,-0.0303,-0.0605,-0.0202,-0.0303,-0.0907,-0.2213,-0.2715,-0.2715,-0.2715,-0.2413,-0.1812,-0.1008,-0.0404,0.0,0.0,0.0,0.0,0.0,0.0,0.0,0.0,0.0,0.0,0.0,0.0,0.0,0.0,0.0,0.0,0.0,0.0,0.0,0.0,0.0,0.0,0.0,0.0,0.0,0.0,0.0,0.0,0.0,0.0,0.0,0.0,0.0891,0.2109,0.3599,0.4899,0.6401,0.7767,0.8229,0.818,0.7737,0.818,0.8137,0.7613,0.8137,0.8292]},{"header":{"parameterUnit":"m.s-1","parameterCategory":1,"la1":30.6,"la2":29.2853,"lo1":-89.7004,"lo2":-87.6739,"dy":0.0162,"dx":0.0183,"nx":112,"ny":82,"refTime":"2024-09-21T12:00:00:Z","depth":0,"parameterNumber":3,"parameterNumberName":"V-component_of_WINDS"},"data":[0.0,0.0,0.0,0.0,0.0,0.0,0.0,0.0,0.0,0.0,0.0,0.0,0.0,0.0,0.0,0.0,0.0,0.0,0.0,0.0,0.0,0.0,0.0,0.0,0.0,0.0,0.0,0.0,0.0,0.0,0.0,0.0,0.0,0.0,0.0,0.0,0.0,0.0,0.0,0.0,0.0,0.0,0.0,0.0,0.0,0.0,0.0,0.0,0.0,0.0,0.0,0.0,0.0,0.0,0.0,0.0,0.0,0.0,0.0,0.0,0.0,0.0,0.0,0.0,0.0,0.0,0.0,0.0,0.0,0.0,0.0,0.0,0.0,0.0,0.0,0.0,0.0,0.0,0.0,0.0,0.0,0.0,0.0,0.0,0.0,0.0,0.0,0.0,0.0,0.0,0.0,1.2169,0.7991,0.349,-0.1191,-0.3655,-0.5167,-0.5652,0.0,0.0,0.0,0.0,0.0,0.0,0.0,0.0,0.0,0.0,0.0,0.0,0.0,0.0,0.0,0.0,0.0,0.0,0.0,0.0,0.0,0.0,0.0,0.0,0.0,0.0,0.0,0.0,0.0,0.0,0.0,0.0,0.0,0.0,0.0,0.0,0.0,0.0,0.0,0.0,0.0,0.0,0.0,0.0,0.0,0.0,0.0,0.0,0.0,0.0,0.0,0.0,0.0,0.0,0.0,0.0,0.0,0.0,0.0,0.0,0.0,0.0,0.0,0.0,0.0,0.0,0.0,0.0,0.0,0.0,0.0,0.0,0.0,0.0,0.0,0.0,0.0,0.0,0.0,0.0,0.0,0.0,0.0,0.0,0.0,0.0,0.0,0.0,0.0,0.0,0.0,0.0,0.0,0.0,0.0,0.0,0.0,0.0,0.0,0.0,0.0,0.0,0.0,0.0,1.2705,0.9462,0.7124,0.4212,0.0229,-0.3265,-0.5102,-0.4821,0.0,0.0,0.0,0.0,0.0,0.0,0.0,0.0,0.0,0.0,0.0,0.0,0.0,0.0,0.0,0.0,0.0,0.0,0.0,0.0,0.0,0.0,0.0,0.0,0.0,0.0,0.0,0.0,0.0,0.0,0.0,0.0,0.0,0.0,0.0,0.0,0.0,0.0,0.0,0.0,0.0,0.0,0.0,0.0,0.0,0.0,0.0,0.0,0.0,0.0,0.0,0.0,0.0,0.0,0.0,0.0,0.0,0.0,0.0,0.0,0.0,0.0,0.0,0.0,0.0,0.0,0.0,0.0,0.0,0.0,0.0,0.0,0.0,0.0,0.0,0.0,0.0,0.0,0.0,0.0,0.0,0.0,0.0,0.0,0.0,0.0,0.0,0.0,0.0,0.0,0.0,0.0,0.0,0.0,0.0,0.0,0.0,0.0,0.0,0.0,0.0,0.0,0.0,1.3164,1.1147,0.8132,0.685,0.4559,0.0446,-0.2364,-0.3962,-0.4155,-0.0827,0.0,0.0,0.0,0.0,0.0,0.0,0.0,0.0,0.0,0.0,0.0,0.0,0.0,0.0,0.0,0.0,0.0,0.0,0.0,0.0,0.0,0.0,0.0,0.0,0.0,0.0,0.0,0.0,0.0,0.0,0.0,0.0,0.0,0.0,0.0,0.0,0.0,0.0,0.0,0.0,0.0,0.0,0.0,0.0,0.0,0.0,0.0,0.0,0.0,0.0,0.0,0.0,0.0,0.0,0.0,0.0,0.0,0.0,0.0,0.0,0.0,0.0,0.0,0.0,0.0,0.0,0.0,0.0,0.0,0.0,0.0,0.0,0.0,0.0,0.0,0.0,0.0,0.0,0.0,0.0,0.0,0.0,0.0,0.0,0.0,0.0,0.0,0.0,0.0,0.0,0.0,0.0,0.0,0.0,0.0,0.0,0.0,0.0,0.0,0.0,0.0,0.0,1.227,1.0483,0.7702,0.6649,0.4553,0.0686,-0.1447,-0.2879,-0.361,-0.0647,0.0,0.0,0.0,0.0,0.0,0.0,0.0,0.0,0.0,0.0,0.0,0.0,0.0,0.0,0.0,0.0,0.0,0.0,0.0,0.0,0.0,0.0,0.0,0.0,0.0,0.0,0.0,0.0,0.0,0.0,0.0,0.0,0.0,0.0,0.0,0.0,0.0,0.0,0.0,0.0,0.0,0.0,0.0,0.0,0.0,0.0,0.0,0.0,0.0,0.0,0.0,0.0,0.0,0.0,0.0,0.0,0.0,0.0,0.0,0.0,0.0,0.0,0.0,0.0,0.0,0.0,0.0,0.0,0.0,0.0,0.0,0.0,0.0,0.0,0.0,0.0,0.0,0.0,0.0,0.0,0.0,0.0,0.0,0.0,0.0,0.0,0.0,0.0,0.0,0.0,0.0,0.0,0.0,0.0,0.0,0.0,0.0,0.0,0.0,0.0,0.0,0.0,1.2337,1.1157,0.8344,0.6216,0.4043,0.1586,-0.0788,-0.2469,-0.3202,-0.0803,0.0,0.0,0.0,0.0,0.0,0.0,0.0,0.0,0.0,0.0,0.0,0.0,0.0,0.0,0.0,0.0,0.0,0.0,0.0,0.0,0.0,0.0,0.0,0.0,0.0,0.0,0.0,0.0,0.0,0.0,0.0,0.0,0.0,0.0,0.0,0.0,0.0,0.0,0.0,0.0,0.0,0.0,0.0,0.0,0.0,0.0,0.0,0.0,0.0,0.0,0.0,0.0,0.0,0.0,0.0,0.0,0.0,0.0,0.0,0.0,0.0,0.0,0.0,0.0,0.0,0.0,0.0,0.0,0.0,0.0,0.0,0.0,0.0,0.0,0.0,0.0,0.0,0.0,0.0,0.0,0.0,0.0,0.0,0.0,0.0,0.0,0.0,0.0,0.0,0.0,0.0,0.0,0.0,0.0,0.0,0.0,0.0,0.0,0.0,0.0,0.0,0.0,1.1615,1.0448,0.0,0.6073,0.4224,0.2514,-0.0028,-0.1825,-0.2528,0.0,0.0,0.0,0.0,0.0,0.0,0.0,0.0,0.0,0.0,0.0,0.0,0.0,0.0,0.0,0.0,0.0,0.0,0.0,0.0,0.0,0.0,0.0,0.0,0.0,0.0,0.0,0.0,0.0,0.0,0.0,0.0,0.0,0.0,0.0,0.0,0.0,0.0,0.0,0.0,0.0,0.0,0.0,0.0,0.0,0.0,0.0,0.0,0.0,0.0,0.0,0.0,0.0,0.0,0.0,0.0,0.0,0.0,0.0,0.0,0.0,0.0,0.0,0.0,0.0,0.0,0.0,0.0,0.0,0.0,0.0,0.0,0.0,0.0,0.0,0.0,0.0,0.0,0.0,0.0,0.0,0.0,0.0,0.0,0.0,0.0,0.0,0.0,0.0,0.0,0.0,0.0,0.0,0.0,0.0,0.0,0.0,0.0,0.0,0.0,0.0,0.0,1.2163,1.1468,1.0264,0.0,0.6116,0.4396,0.3004,0.0588,-0.1211,-0.2022,0.0,0.0,0.0,0.0,0.0,0.0,0.0,0.0,0.0,0.0,0.0,0.0,0.0,0.0,0.0,0.0,0.0,0.0,0.0,0.0,0.0,0.0,0.0,0.0,0.0,0.0,0.0,0.0,0.0,0.0,0.0,0.0,0.0,0.0,0.0,0.0,0.0,0.0,0.0,0.0,0.0,0.0,0.0,0.0,0.0,0.0,0.0,0.0,0.0,0.0,0.0,0.0,0.0,0.0,0.0,0.0,0.0,0.0,0.0,0.0,0.0,0.0,0.0,0.0,0.0,0.0,0.0,0.0,0.0,0.0,0.0,0.0,0.0,0.0,0.0,0.0,0.0,0.0,0.0,0.0,0.0,0.0,0.0,0.0,0.0,0.0,0.0,0.0,0.0,0.0,0.0,0.0,0.0,0.0,0.0,0.0,0.0,0.0,0.0,0.0,0.0,0.0,1.2701,1.202,1.0856,0.8623,0.6349,0.4419,0.3041,0.1018,-0.0663,0.0,0.0,0.0,0.0,0.0,0.0,0.0,0.0,0.0,0.0,0.0,0.0,0.0,0.0,0.0,0.0,0.0,0.0,0.0,0.0,0.0,0.0,0.0,0.0,0.0,0.0,0.0,0.0,0.0,0.0,0.0,0.0,0.0,0.0,0.0,0.0,0.0,0.0,0.0,0.0,0.0,0.0,0.0,0.0,0.0,0.0,0.0,0.0,0.0,0.0,0.0,0.0,0.0,0.0,0.0,0.0,0.0,0.0,0.0,0.0,0.0,0.0,0.0,0.0,0.0,0.0,0.0,0.0,0.0,0.0,0.0,0.0,0.0,0.0,0.0,0.0,0.0,0.0,0.0,0.0,0.0,0.0,0.0,0.0,0.0,0.0,0.0,0.0,0.0,0.0,0.0,0.0,0.0,0.0,0.0,0.0,0.0,0.0,0.0,0.0,0.0,0.0,0.0,1.2607,1.1767,1.0417,0.8216,0.6175,0.4641,0.3743,0.1629,-0.045,-0.2317,0.0,0.0,0.0,0.0,0.0,0.0,0.0,0.0,0.0,0.0,0.0,0.0,0.0,0.0,0.0,0.0,0.0,0.0,0.0,0.0,0.0,0.0,0.0,0.0,0.0,0.0,0.0,0.0,0.0,0.0,0.0,0.0,0.0,0.0,0.0,0.0,0.0,0.0,0.0,0.0,0.0,0.0,0.0,0.0,0.0,0.0,0.0,0.0,0.0,0.0,0.0,0.0,0.0,0.0,0.0,0.0,0.0,0.0,0.0,0.0,0.0,0.0,0.0,0.0,0.0,0.0,0.0,0.0,0.0,0.0,0.0,0.0,0.0,0.0,0.0,0.0,0.0,0.0,0.0,0.0,0.0,0.0,0.0,0.0,0.0,0.0,0.0,0.0,0.0,0.0,0.0,0.0,0.0,0.0,0.0,0.0,0.0,0.0,0.0,0.0,0.0,0.0,1.2834,1.1774,1.033,0.8277,0.6269,0.4798,0.4054,0.1977,0.0059,-0.1531,0.0,0.0,0.0,0.0,0.0,0.0,0.0,0.0,0.0,0.0,0.0,0.0,0.0,0.0,0.0,0.0,0.0,0.0,0.0,0.0,0.0,0.0,0.0,0.0,0.0,0.0,0.0,0.0,0.0,0.0,0.0,0.0,0.0,0.0,0.0,0.0,0.0,0.0,0.0,0.0,0.0,0.0,0.0,0.0,0.0,0.0,0.0,0.0,0.0,0.0,0.0,0.0,0.0,0.0,0.0,0.0,0.0,0.0,0.0,0.0,0.0,0.0,0.0,0.0,0.0,0.0,0.0,0.0,0.0,0.0,0.0,0.0,0.0,0.0,0.0,0.0,0.0,0.0,0.0,0.0,0.0,0.0,0.0,0.0,0.0,0.0,0.0,0.0,0.0,0.0,0.0,0.0,0.0,0.0,0.0,0.0,0.0,0.0,0.0,0.0,0.0,0.0,1.3263,1.2005,1.0464,0.8626,0.652,0.4896,0.4036,0.2087,0.0667,0.0029,0.0,0.0,0.0,0.0,0.0,0.0,0.0,0.0,0.0,0.0,0.0,0.0,0.0,0.0,0.0,0.0,0.0,0.0,0.0,0.0,0.0,0.0,0.0,0.0,0.0,0.0,0.0,0.0,0.0,0.0,0.0,0.0,0.0,0.0,0.0,0.0,0.0,0.0,0.0,0.0,0.0,0.0,0.0,0.0,0.0,0.0,0.0,0.0,0.0,0.0,0.0,0.0,0.0,0.0,0.0,0.0,0.0,0.0,0.0,0.0,1.9842,0.0,0.0,0.0,0.0,0.0,0.0,0.0,0.0,0.0,0.0,0.0,0.0,0.0,0.0,0.0,0.0,0.0,0.0,0.0,0.0,0.0,0.0,0.0,0.0,0.0,0.0,0.0,0.0,0.0,0.0,0.0,0.0,0.0,0.0,0.0,0.0,0.0,0.0,0.0,0.0,0.0,1.3201,1.2253,1.0753,0.8228,0.6594,0.5113,0.3735,0.2126,0.0866,0.0061,0.049,0.0,0.0,0.0,0.0,0.0,0.0,0.0,0.0,0.0,0.0,0.0,0.0,0.0,0.0,0.0,0.0,0.0,0.0,0.0,0.0,0.0,0.0,0.0,0.0,0.0,0.0,0.0,0.0,0.0,0.0,0.0,0.0,0.0,0.0,0.0,0.0,0.0,0.0,0.0,0.0,0.0,0.0,0.0,0.0,0.0,0.0,0.0,0.0,0.0,0.0,0.0,0.0,0.0,0.0,0.0,0.0,0.0,0.0,0.0,0.0,2.0406,0.0,0.0,0.0,0.0,0.0,0.0,0.0,0.0,0.0,0.0,0.0,0.0,0.0,0.0,0.0,0.0,0.0,0.0,0.0,0.0,0.0,0.0,0.0,0.0,0.0,0.0,0.0,0.0,0.0,0.0,0.0,0.0,0.0,0.0,0.0,0.0,0.0,0.0,0.0,0.0,1.3195,1.2366,1.0859,0.8096,0.6807,0.5425,0.3661,0.2572,0.1404,0.0096,0.1195,0.0,0.0,0.0,0.0,0.0,0.0,0.0,0.0,0.0,0.0,0.0,0.0,0.0,0.0,0.0,0.0,0.0,0.0,0.0,0.0,0.0,0.0,0.0,0.0,0.0,0.0,0.0,0.0,0.0,0.0,0.0,0.0,0.0,0.0,0.0,0.0,0.0,0.0,0.0,0.0,0.0,0.0,0.0,0.0,0.0,0.0,0.0,0.0,0.0,0.0,0.0,0.0,0.0,2.3819,2.3747,2.3784,2.3083,2.3063,2.3476,2.1971,2.1349,2.1344,0.0,0.0,0.0,0.0,0.0,0.0,0.0,0.0,0.0,0.0,0.0,0.0,0.0,0.0,0.0,0.0,0.0,0.0,0.0,0.0,0.0,0.0,0.0,0.0,0.0,2.2499,2.1575,0.0,0.0,0.0,0.0,0.0,0.0,0.0,0.0,0.0,0.0,0.0,0.0,1.3509,1.2615,1.1114,0.8308,0.7178,0.5844,0.3946,0.3118,0.2098,0.0701,0.2122,0.3725,0.0,0.0,0.0,0.0,0.0,0.0,0.0,0.0,0.0,0.0,0.0,0.0,0.0,0.0,0.0,0.0,0.0,0.0,0.0,0.0,0.0,0.0,0.0,0.0,0.0,0.0,0.0,0.0,0.0,0.0,0.0,0.0,2.0954,2.1563,0.0,0.0,0.0,0.0,0.0,0.0,0.0,0.0,0.0,0.0,0.0,0.0,0.0,0.0,2.4503,2.4654,2.4707,2.4664,2.4637,2.4624,2.4635,2.4343,2.4358,2.4547,2.3522,0.0,2.3196,2.2581,0.0,0.0,0.0,0.0,0.0,0.0,0.0,0.0,0.0,0.0,0.0,0.0,0.0,0.0,0.0,0.0,0.0,0.0,0.0,0.0,0.0,0.0,2.3447,2.3134,2.2761,2.2471,0.0,2.1811,2.1168,2.1338,0.0,0.0,0.0,0.0,0.0,0.0,0.0,0.0,1.4774,1.3712,1.2091,0.9214,0.7792,0.6461,0.5087,0.357,0.279,0.3012,0.3123,0.4382,0.7125,0.6294,0.0,0.0,0.0,0.0,0.0,0.0,0.0,0.0,0.0,0.0,0.0,0.0,0.0,0.0,0.0,0.0,0.0,0.0,0.0,0.0,0.0,0.0,0.0,0.0,0.0,0.0,0.0,0.0,0.0,2.1684,2.2276,2.2308,2.2996,2.3349,0.0,0.0,0.0,0.0,0.0,0.0,0.0,0.0,0.0,2.4975,2.4995,2.4976,2.4911,2.4929,2.4942,2.4908,2.4908,2.4862,2.4807,2.4715,2.4745,2.4823,2.4372,2.4222,2.42,2.3342,2.312,2.3373,0.0,0.0,0.0,0.0,0.0,2.388,2.4086,2.4146,0.0,0.0,0.0,0.0,0.0,0.0,0.0,0.0,0.0,0.0,0.0,0.0,0.0,2.4106,2.3786,2.3579,2.3771,2.3218,2.2623,0.0,2.2668,2.2832,2.2422,0.0,0.0,0.0,0.0,0.0,1.5025,1.3958,1.2384,0.9793,0.8492,0.7235,0.5716,0.4675,0.3921,0.3538,0.3814,0.4828,0.669,0.6804,0.7326,0.0,0.0,0.0,0.0,0.0,0.0,0.0,0.0,0.0,0.0,0.0,0.0,0.0,0.0,0.0,0.0,0.0,0.0,0.0,0.0,0.0,0.0,0.0,0.0,0.0,0.0,0.0,0.0,2.2847,2.3338,2.3139,2.3909,2.4409,0.0,0.0,0.0,0.0,0.0,0.0,2.7449,2.7526,2.714,2.6257,2.6188,2.5804,2.5038,2.5,2.4963,2.4958,2.4958,2.484,2.4668,2.4707,2.4734,2.4755,2.474,2.4778,2.4742,2.3915,2.3538,2.3546,2.4102,2.4365,2.4436,2.4743,2.4868,2.4958,2.5168,2.5235,2.5157,2.4661,0.0,2.4409,2.3883,0.0,0.0,0.0,0.0,2.5078,2.4985,2.4832,2.4639,2.4561,2.4438,2.4321,2.4307,2.4163,2.3889,0.0,2.3644,2.3825,2.3173,0.0,0.0,0.0,0.0,1.7768,1.5455,1.4235,1.2687,1.038,0.9316,0.8157,0.6673,0.601,0.5379,0.4654,0.5018,0.5674,0.6658,0.7336,0.7862,0.8257,0.0,0.0,0.0,0.0,0.0,0.0,0.0,0.0,0.0,0.0,0.0,0.0,0.0,0.0,0.0,0.0,0.0,0.0,0.0,0.0,0.0,0.0,0.0,0.0,0.0,0.0,0.0,0.0,0.0,2.3987,2.4197,0.0,0.0,0.0,0.0,2.7255,2.7399,2.752,2.7683,2.7692,2.7345,2.6602,2.6448,2.597,2.5094,2.4965,2.487,2.4817,2.4817,2.4644,2.4335,2.4449,2.4449,2.4335,2.453,2.4681,2.4775,2.4462,2.4351,2.4341,2.437,2.4399,2.4455,2.4836,2.4985,2.5013,2.523,2.5292,2.5291,2.5334,2.5344,2.5332,2.537,2.5234,0.0,0.0,2.4943,2.474,2.4429,2.4335,2.4232,2.3933,2.4126,2.4391,2.4309,2.4549,2.4693,0.0,2.4596,2.4707,2.4845,0.0,2.3382,2.2262,2.0525,1.8647,1.6663,1.5018,1.3309,1.125,1.0259,0.9323,0.8366,0.7495,0.7162,0.7571,0.7205,0.7381,0.8243,0.7843,0.793,0.8665,0.9573,0.0,0.0,0.0,0.0,0.0,0.0,0.0,0.0,0.0,0.0,0.0,0.0,0.0,0.0,0.0,0.0,0.0,0.0,0.0,0.0,0.0,0.0,0.0,0.0,0.0,0.0,0.0,0.0,2.6045,2.6244,0.0,2.6336,2.6852,2.7533,2.8361,2.8608,2.8896,2.9283,2.9354,2.8927,2.7922,2.7845,2.7124,2.57,2.5628,2.5158,2.4286,2.4286,2.4044,2.359,2.3645,2.3645,2.3611,2.4026,2.4234,2.4291,2.4544,2.4659,2.4667,2.4757,2.4725,2.4678,2.482,2.4899,2.4963,2.5177,2.5245,2.5258,2.5361,2.5304,2.5208,2.518,2.5059,2.4869,2.4663,2.4445,2.4219,2.3878,2.3678,2.3569,2.344,2.3606,2.3861,2.4087,2.4298,2.4536,2.4701,2.4749,2.4671,2.4411,2.3739,2.2919,2.1915,2.0184,1.8534,1.7194,1.5299,1.3568,1.2215,1.0938,0.9802,0.8866,0.8537,0.8217,0.7806,0.8499,0.8626,0.8053,0.8922,0.9108,0.853,1.0078,1.0959,0.0,0.0,0.0,0.0,0.0,0.0,0.0,0.0,0.0,0.0,0.0,0.0,0.0,0.0,0.0,0.0,0.0,0.0,0.0,0.0,0.0,0.0,0.0,0.0,0.0,0.0,2.7186,2.7387,2.7474,2.7547,2.7596,2.7969,2.8548,2.9348,2.9581,2.9801,3.0042,3.0105,2.9632,2.8578,2.8364,2.7575,2.613,2.5653,2.4963,2.4109,2.3858,2.3476,2.3045,2.3141,2.3141,2.3069,2.352,2.3792,2.3929,2.4367,2.4556,2.463,2.4833,2.4878,2.4801,2.4803,2.483,2.49,2.5014,2.5072,2.5076,2.5163,2.5105,2.4984,2.4951,2.4752,2.4467,2.4255,2.397,2.365,2.3334,2.3118,2.2996,2.2933,2.3064,2.3289,2.3505,2.3757,2.3989,2.4227,2.4459,2.4499,2.4076,2.3291,2.2461,2.1611,1.994,1.8427,1.7427,1.5724,1.4261,1.3228,1.2047,1.1045,1.0293,1.0098,0.9772,0.9181,1.0029,1.0133,0.9181,0.9923,0.9906,0.9011,1.0732,1.2032,1.286,0.0,0.0,0.0,0.0,0.0,0.0,0.0,0.0,0.0,0.0,0.0,0.0,0.0,0.0,0.0,0.0,0.0,0.0,0.0,0.0,0.0,0.0,0.0,2.8215,2.8174,2.8066,2.7901,2.7767,2.8034,2.8957,2.902,2.935,3.0119,3.0257,3.0141,2.9804,2.9789,2.9361,2.8454,2.7896,2.7215,2.6344,2.5034,2.4353,2.4317,2.3607,2.3091,2.2764,2.3074,2.3032,2.273,2.3063,2.3369,2.3674,2.389,2.4042,2.421,2.4625,2.4784,2.479,2.4771,2.4775,2.479,2.479,2.4801,2.4796,2.4796,2.4796,2.4784,2.4784,2.441,2.3969,2.3969,2.3584,2.3117,2.2772,2.2695,2.2608,2.236,2.25,2.2695,2.2695,2.2972,2.3189,2.3189,2.3757,2.4169,2.3969,2.3074,2.2165,2.1569,1.994,0.0,1.7441,1.6389,1.5306,1.4261,1.3641,1.3153,1.2641,1.2163,1.1856,1.1833,1.1833,1.187,1.1833,1.0857,1.0302,1.034,1.1563,1.3385,1.5758,0.0,0.0,0.0,0.0,0.0,0.0,0.0,0.0,0.0,0.0,0.0,0.0,0.0,0.0,0.0,0.0,0.0,0.0,0.0,0.0,0.0,0.0,2.8785,2.8918,2.8946,2.9172,2.9697,2.9648,2.9635,2.9851,2.9739,2.9719,2.9906,2.9921,2.9808,2.9532,2.9514,2.9287,2.8852,2.8419,2.7786,2.6964,2.6364,2.5622,2.4816,2.459,2.4337,2.3994,2.3551,2.3294,2.3193,2.2955,2.2898,2.2996,2.331,2.3424,2.3548,2.4296,2.4484,2.4335,2.4099,2.4081,2.4244,2.4508,2.4678,2.4799,2.4799,2.4535,2.4221,2.4221,2.3856,2.3361,2.3136,2.2937,2.2772,2.249,2.2398,2.2388,2.2338,2.2349,2.2463,2.266,2.2772,2.2923,2.3141,2.2933,2.2691,2.2625,2.216,2.1507,2.075,1.9626,0.0,1.7949,1.6942,1.5875,1.4873,1.4217,1.3698,1.3242,1.3372,1.3178,1.2449,1.3055,1.3141,1.2415,1.2442,1.2712,1.3299,1.4144,1.5433,0.0,0.0,0.0,0.0,0.0,0.0,0.0,0.0,0.0,0.0,0.0,0.0,0.0,0.0,0.0,0.0,0.0,0.0,0.0,0.0,0.0,0.0,2.9651,2.9855,2.9912,2.968,2.9678,3.0161,3.0113,3.0044,3.0037,2.9889,2.976,2.9649,2.9633,2.9439,2.8997,2.8993,2.8855,2.8533,2.8156,2.7715,2.7254,2.658,2.591,2.527,2.4944,2.4701,2.4506,2.4052,2.3849,0.0,2.3249,2.3254,2.3648,2.3544,2.3749,0.0,0.0,0.0,0.0,0.0,2.3556,2.3689,2.3906,2.4118,2.4373,2.4543,2.4463,2.4372,2.457,2.4314,2.385,2.3337,2.3108,2.2894,2.2434,2.231,2.231,2.231,2.231,2.2349,2.25,2.2537,2.259,2.2798,0.0,0.0,2.1711,2.1287,2.0847,2.0366,1.9492,1.8688,1.8185,1.737,1.6528,1.5714,1.5098,1.4659,1.4387,1.4413,0.0,0.0,0.0,1.4187,1.3605,1.3847,0.0,0.0,0.0,0.0,0.0,0.0,0.0,0.0,2.0585,2.0924,0.0,0.0,0.0,0.0,0.0,0.0,0.0,0.0,0.0,0.0,0.0,0.0,0.0,0.0,0.0,0.0,3.0742,3.1061,3.0979,3.0309,2.9829,2.9779,2.972,2.9691,2.9753,2.9765,2.9683,2.9502,2.9574,2.9355,2.8717,0.0,0.0,0.0,0.0,2.7373,2.7303,2.6258,2.5727,2.5727,2.505,2.476,2.476,2.4675,2.4611,2.456,2.3833,2.4074,2.4896,2.424,2.4527,2.5235,2.3866,2.3253,2.3141,2.3189,2.3165,0.0,0.0,0.0,0.0,2.4193,2.4544,2.4903,2.5314,2.5202,2.481,2.4154,2.3756,2.3342,2.2632,2.2429,2.2412,2.2327,2.231,2.231,2.231,2.231,2.2327,2.2412,2.2304,2.1978,2.1263,2.0697,2.0348,2.0246,1.9543,1.8817,1.8263,1.7706,1.7188,1.6637,0.0,0.0,1.5781,1.5409,1.5106,1.5004,1.5043,1.5082,1.5069,1.5261,1.5928,1.721,1.8176,1.9478,2.1163,2.2071,2.2757,2.3176,2.2299,2.2275,0.0,0.0,0.0,0.0,0.0,0.0,0.0,0.0,0.0,0.0,0.0,0.0,0.0,0.0,0.0,3.1334,3.1559,3.1579,3.1344,3.0627,3.0025,2.975,2.957,2.9455,2.9476,2.9866,3.0093,3.0047,3.0654,3.0808,3.0359,3.0332,0.0,2.8835,2.8394,2.7895,2.7303,2.677,2.6488,2.6488,0.0,0.0,2.6251,2.5659,2.5389,2.5355,2.4594,2.4401,2.4581,2.4445,2.4522,2.4628,2.4261,2.3541,2.2822,2.3093,2.3021,2.2848,2.3117,2.3637,2.4204,2.4272,2.4594,2.4965,2.5066,2.4861,0.0,2.4411,2.4333,2.4133,2.3376,2.319,2.3038,2.2446,2.231,2.231,2.231,2.231,2.2496,2.3071,2.2387,2.1779,2.1859,2.1326,2.0632,1.9909,1.966,1.9369,1.8817,1.8302,1.7747,1.7188,1.6663,1.6358,1.6358,1.6651,1.6475,1.5595,1.5944,1.6205,1.6192,1.7377,1.8252,1.8694,1.9679,2.0815,2.2114,2.2839,2.3638,2.4443,2.3813,2.3605,0.0,0.0,0.0,0.0,0.0,0.0,0.0,0.0,0.0,0.0,0.0,2.9784,3.0092,0.0,3.1732,3.2299,3.1949,3.1684,3.196,3.0962,3.0143,2.9986,2.9842,2.9961,3.0368,3.0654,3.0723,3.0501,3.0865,3.082,3.0168,3.0137,2.9822,2.9036,2.8819,2.8511,2.8151,2.7538,2.7249,2.7249,2.6877,2.6691,2.6674,2.6319,2.615,2.6116,2.5372,2.5253,2.5592,2.5592,2.5372,2.5031,2.4986,2.4408,2.3624,2.3791,2.3736,2.3624,2.3791,2.4197,2.4689,2.4895,2.5236,2.5604,2.5802,2.5734,2.5507,2.5152,2.505,2.4881,2.412,2.3934,2.3849,2.3477,2.3393,2.3393,2.3393,2.3393,2.3511,2.3866,2.3463,2.2957,2.2631,2.2016,2.1126,1.9899,1.969,1.953,1.8968,1.865,1.8185,1.7394,1.7312,1.7076,1.6552,1.6993,1.7193,1.6943,1.7156,1.7417,1.7688,1.8451,1.9248,2.005,2.0724,2.1679,2.2958,2.3472,2.4073,2.4777,2.4252,2.405,0.0,0.0,0.0,0.0,0.0,0.0,0.0,0.0,2.9746,2.9916,3.0804,3.1576,3.169,3.2429,3.3032,3.3128,3.2416,3.2045,3.254,3.1494,3.0668,3.0668,3.054,3.0687,3.1329,3.1531,3.1469,3.1073,3.1189,3.0873,2.9989,2.9972,2.9729,2.9231,2.9194,2.9127,2.9011,2.8366,2.8044,2.8027,2.7266,2.6911,2.6911,2.6759,2.6691,2.6674,2.6218,2.6285,2.6708,2.6843,2.6488,2.5812,2.5812,2.5456,2.4896,2.4625,2.4506,2.4506,2.4506,2.4774,2.5158,2.5484,2.5885,2.6279,2.6605,2.6691,2.6573,2.5981,2.5812,2.5642,2.4898,2.4695,2.4692,2.454,2.4506,2.4506,2.4506,2.4506,2.4557,2.4678,2.4608,2.429,2.361,2.2822,2.1761,2.0156,1.9765,1.953,1.9132,1.8968,1.8574,1.7706,1.7907,1.7787,1.7034,1.7271,1.7666,1.8224,1.8263,1.8458,1.8893,1.9163,1.9834,2.0959,2.1469,2.2251,2.336,2.3674,2.4063,2.4484,2.4191,2.4137,2.6801,2.7249,2.8095,3.0585,3.02,3.0005,0.0,0.0,3.1646,3.2132,3.2346,3.2526,3.2777,3.2914,3.3165,3.3637,3.3613,3.3311,3.2706,3.2467,3.2339,3.2339,3.1696,3.1292,3.1384,3.2045,3.231,3.1885,3.2534,3.2509,3.1601,3.1529,3.1053,3.0006,2.9989,2.9651,2.9028,2.889,2.8856,2.8839,2.8061,2.7689,2.7637,2.6996,2.6691,2.6725,2.7317,2.7232,2.6742,2.7418,2.7249,2.6573,2.6573,2.6522,2.6285,2.4966,2.4506,2.4506,2.4506,2.4946,2.5554,2.5592,2.6081,2.6639,2.6708,2.6691,2.6674,2.659,2.6573,2.6404,2.5676,2.549,2.5321,2.4675,2.4506,2.4506,2.4506,2.4506,2.4678,2.5355,2.4949,2.4553,2.4762,2.3772,2.2433,2.0828,2.0079,1.969,1.9603,1.9207,1.8855,1.8727,1.8341,1.8263,1.8612,1.8263,1.8263,1.8779,1.8817,1.8855,1.8893,2.0112,2.0829,2.0991,2.204,2.2652,2.2788,2.3124,2.331,2.3379,2.3993,2.4186,2.9267,2.9934,3.0472,3.2124,3.2341,3.243,3.3496,3.3368,3.3091,3.3314,3.3451,3.3579,3.3687,3.3586,3.3559,0.0,3.3421,3.3146,3.3293,3.2908,3.2779,3.3238,3.2999,3.27,3.2465,3.2746,3.2649,3.1923,3.219,3.2092,3.147,3.1449,3.1236,3.0751,3.0734,3.0581,3.0277,2.9837,2.9634,2.9634,2.8856,2.8501,2.8484,2.818,2.8027,2.8044,2.8349,2.8315,2.8044,2.8366,2.8044,2.7402,2.7858,2.774,2.7215,2.6167,2.5778,2.5778,2.5778,2.5981,2.6234,2.6234,2.6437,2.6691,2.6691,2.6691,2.6691,2.6691,2.6691,2.6623,2.6319,2.6234,2.6167,2.5845,2.5778,2.5778,2.5778,2.5778,2.5862,2.6184,2.5981,2.5731,2.5607,2.4538,2.3433,2.2417,2.1492,2.0857,2.0857,2.0309,1.9811,1.9413,1.8612,1.8458,1.9281,1.8855,1.8779,1.9332,1.9369,1.9464,1.9722,2.0265,2.0846,2.1337,2.1816,2.2269,2.2695,2.2848,2.3225,2.383,2.3998,2.4269,3.1078,3.1744,3.2051,3.3146,3.3819,3.4095,3.3731,3.3891,3.4079,3.4012,3.4108,3.4195,3.4099,3.391,3.3807,3.3807,3.3231,3.3021,3.3688,3.3213,3.3021,3.3733,3.3807,3.367,3.3332,3.3232,3.2872,3.2057,3.188,3.1623,3.123,3.119,3.119,3.119,3.119,3.119,3.119,3.0666,3.0412,3.0395,2.9651,2.9296,2.9296,2.9076,2.9011,2.8991,2.9211,2.9178,2.9045,2.9211,2.8839,2.8197,2.8755,2.8636,2.8078,2.752,2.7317,2.7317,2.7317,2.7182,2.6996,2.6996,2.686,2.6691,2.6691,2.6691,2.6691,2.6691,2.6691,2.6691,2.6691,2.6691,2.6691,2.6691,2.6691,2.6691,2.6691,2.6691,2.6691,2.6691,2.6691,2.659,2.6262,2.5373,2.4489,2.3959,2.3078,2.2269,2.1779,2.1276,2.0797,2.0288,1.9542,1.9425,2.0191,1.9914,1.9824,2.0243,2.0064,2.0237,2.0872,2.0824,2.1244,2.2238,2.2344,2.2656,2.3219,2.3219,2.3604,2.4374,2.4372,2.4643,3.162,3.1846,3.2147,3.3613,3.3944,3.4068,3.4617,3.4717,3.4576,3.4255,3.4204,3.4123,3.385,3.3807,3.3807,3.3807,3.3447,3.3343,3.3734,3.3429,3.3343,3.3734,3.3807,3.3738,0.0,3.3351,3.3014,3.2517,3.2074,3.1623,3.123,3.119,3.119,3.119,3.119,3.119,3.119,3.1173,3.1157,3.1157,3.0429,3.0074,3.004,2.9313,2.9011,2.9025,2.9753,2.9651,2.9042,2.977,2.9634,2.8994,2.8975,2.9011,2.8941,2.8924,2.8943,2.8943,2.8943,2.8416,2.7755,2.7755,2.7283,2.6691,2.6691,2.6691,2.6691,2.6691,2.6691,2.6691,2.6691,2.6691,2.6691,2.6691,2.6691,2.6691,2.6691,2.6691,2.6691,2.6691,2.6691,2.6691,2.6691,2.628,2.5766,2.5227,2.4649,2.3677,2.1924,2.168,2.1665,2.1635,2.1595,2.1595,2.1635,2.1635,2.1635,2.1635,2.1036,2.116,2.2304,2.2144,2.2604,2.3786,2.4221,2.4408,2.4438,2.4438,2.4455,2.452,2.5234,2.5558,3.2855,3.3281,3.3399,3.4299,3.447,3.4471,3.4699,3.4536,3.4502,3.4969,3.4457,3.4068,3.4504,3.4174,3.3707,3.3465,3.3302,3.3243,3.339,3.3273,3.3332,3.3734,3.4284,0.0,0.0,0.0,0.0,3.3068,3.2051,3.1572,3.1924,3.1461,3.119,3.119,3.1664,3.1918,3.1918,3.1918,3.1918,3.1901,3.1173,3.0835,3.0818,3.0565,3.0446,3.0463,3.0717,3.0683,3.0463,3.0717,3.0395,2.9786,3.026,3.0159,2.9786,3.0277,3.0446,3.0311,2.933,2.8805,2.8602,2.8602,2.8416,2.8112,2.7604,2.7435,2.7334,2.6843,2.6691,2.681,2.73,2.7435,2.7571,2.8095,2.8213,2.8213,2.8213,2.8213,2.8213,2.8213,2.8213,2.8044,2.7537,2.7031,2.6243,2.4895,2.4184,2.3492,2.2484,2.2338,2.2173,2.1739,2.1695,2.1695,2.1695,2.1695,2.1695,2.1695,2.1789,2.2143,2.2837,2.3155,2.3605,2.4288,2.4444,2.4506,2.4506,2.4506,2.4729,2.5236,2.549,2.5862,3.3334,3.381,3.3865,3.4453,3.4647,3.4703,3.4782,3.4723,3.4869,3.5636,3.4961,3.4394,3.4899,3.4357,3.3799,3.3847,3.3737,3.3677,3.3826,3.3707,3.3767,3.4174,3.4679,3.5049,0.0,0.0,0.0,3.3635,3.2632,3.2188,3.2662,3.1985,3.1698,3.1985,3.2171,3.2408,3.2679,3.2679,3.2679,3.2679,3.1935,3.1579,3.1562,3.1309,3.119,3.119,3.119,3.119,3.119,3.119,3.092,3.0548,3.1004,3.0903,3.0548,3.1021,3.119,3.1055,3.0108,2.96,2.9381,2.9381,2.9194,2.889,2.8383,2.823,2.8129,2.7655,2.7503,2.7621,2.8112,2.823,2.8366,2.8873,2.9011,2.9011,2.9011,2.9011,2.9011,2.9011,2.9011,2.8822,2.8332,2.7798,2.7109,2.5943,2.5311,2.4514,2.32,2.3011,2.2847,2.2413,2.2383,2.245,2.2637,2.2677,2.2757,2.2939,2.3023,2.3349,2.4107,2.4244,2.4613,2.5253,2.5302,2.5302,2.5302,2.5302,2.5524,2.5998,2.5998,2.6251,3.3127,3.3431,3.3534,3.4074,3.4426,3.4694,3.4934,3.5242,3.5643,3.615,3.5577,3.499,3.499,3.4394,3.4119,3.4862,3.4673,3.4601,3.4989,3.4691,3.4601,0.0,0.0,0.0,0.0,0.0,0.0,3.4306,0.0,3.3465,3.3457,3.2747,3.2662,3.3389,3.2747,3.273,3.3457,3.3457,3.344,3.3389,3.2679,3.2341,3.2307,3.1613,3.1275,3.1258,3.1258,3.1224,3.119,3.119,3.119,3.119,3.119,3.119,3.119,3.119,3.123,3.123,3.123,3.0772,3.0197,3.0159,2.9722,2.9113,2.9079,2.9042,2.9025,2.8991,2.9011,2.8991,2.9025,2.9042,2.9096,2.9076,2.9093,2.9093,2.9093,2.9093,2.9093,2.9093,2.9059,2.9042,2.9042,2.8607,2.8252,2.8196,2.7785,2.6535,2.4066,2.3743,2.3743,2.3699,2.3699,2.39,2.4416,2.4498,2.4726,2.5192,2.4681,2.4839,2.5994,2.544,2.563,2.6793,2.6776,2.6776,2.681,2.6776,2.6759,2.6759,2.6759,2.6759,3.3079,3.3338,3.367,3.4152,3.4078,3.4026,3.4633,3.5154,3.5548,3.5693,3.5319,3.499,3.499,3.4825,0.0,3.457,3.4974,0.0,3.5447,3.5354,0.0,3.5897,0.0,3.6833,3.6702,3.6773,0.0,0.0,3.4685,3.4065,3.4227,3.3525,3.322,3.3406,3.3744,3.4015,3.4218,3.4218,3.3947,3.3406,3.322,3.3119,3.3119,3.2933,3.2544,3.2002,3.2002,3.1698,3.119,3.119,3.119,3.119,3.119,3.119,3.119,3.119,3.1389,3.166,3.166,3.1539,3.1328,3.1019,3.1001,3.0932,3.0085,2.982,2.9702,2.9144,2.9011,2.911,2.9685,2.982,2.9956,3.0497,3.0632,3.0632,3.0632,3.0632,3.0632,3.0632,3.0192,2.982,2.982,2.9256,2.8682,2.8252,2.8079,2.7437,2.5954,2.5749,2.5588,2.5137,2.5091,2.5137,2.5259,2.572,2.5792,2.5378,2.5979,2.6512,2.6821,2.6449,2.6927,2.8383,2.7824,2.7824,2.8399,2.7824,2.7537,2.7537,2.7537,2.7537,3.3048,3.3322,3.3671,3.391,3.4146,3.4424,3.4923,3.5364,3.5744,3.5987,3.5475,3.5046,3.519,3.5082,3.5044,0.0,0.0,0.0,3.6425,3.6425,3.6535,0.0,3.7221,0.0,3.7576,3.7745,3.756,0.0,3.5555,3.4865,3.4962,3.4286,3.4032,3.437,3.4455,3.4658,3.4979,3.4979,3.4776,3.437,3.4049,3.388,3.388,3.3558,3.3169,3.278,0.0,3.2544,3.2171,3.2171,3.1968,3.1704,3.1922,3.1777,3.1487,3.1677,3.1914,3.2109,3.2109,3.223,3.2298,3.1677,3.164,3.1647,3.0836,3.0581,3.0518,3.0284,3.0108,3.0116,3.0694,3.07,3.0683,3.1106,3.119,3.119,3.119,3.119,3.119,3.119,3.0869,3.0581,3.0581,3.0226,2.9863,2.9543,2.9504,2.9194,2.8292,2.7406,2.6769,2.645,2.6406,2.6494,2.6741,2.7026,2.716,2.6977,2.758,2.7952,2.7952,2.7767,2.8112,2.8958,2.8552,2.8552,2.9011,2.8552,2.8332,2.8332,2.8332,2.8332,3.2979,3.3226,3.3406,3.3618,3.4379,3.5157,3.54,3.5757,3.6125,3.638,3.5678,3.5127,3.5306,3.5151,3.5284,3.6156,0.0,3.7533,3.7624,3.7643,3.7643,3.7643,3.7643,3.7918,3.8634,3.8596,3.8135,3.7266,3.6207,3.5622,3.5622,3.4996,3.4945,3.5605,3.4979,3.4962,3.556,3.5622,3.5622,3.556,3.4962,3.4641,3.4624,3.3981,3.3643,3.3558,0.0,0.0,3.3406,3.349,3.3073,3.2434,3.3031,3.2715,3.1968,3.2456,3.2639,3.2601,3.2707,3.2961,3.3136,3.2196,3.1915,3.1933,3.1487,3.1351,3.1466,3.1789,3.164,3.1449,3.1789,3.1565,3.1291,3.1368,3.1312,3.1291,3.1291,3.123,3.119,3.119,3.119,3.119,3.119,3.119,3.119,3.119,3.119,3.1015,3.0477,2.8885,2.7759,2.7676,2.7676,2.7842,2.8319,2.8415,2.8633,2.8999,2.909,2.9127,2.9127,2.9025,2.9113,2.9279,2.9178,2.9178,2.9279,2.9178,2.9127,2.9127,2.9127,2.9127,3.2709,3.237,3.2437,3.3685,3.4185,3.4515,3.5101,3.6113,0.0,3.5284,3.5243,3.5206,3.4548,3.4737,3.5284,3.6156,3.6964,3.7716,3.8395,3.8487,3.8487,0.0,3.8487,3.856,3.8689,3.7948,0.0,0.0,0.0,3.5622,3.5622,3.5504,3.5487,3.5622,3.5504,3.5487,3.5622,3.5622,3.5622,3.5622,3.5487,3.5419,3.5419,3.5301,3.4895,3.4303,0.0,0.0,3.3448,3.3905,3.3598,3.2997,3.4127,3.367,3.2454,3.3225,3.333,3.3165,3.3849,3.3923,3.355,3.2681,3.2648,3.2872,3.2417,3.2282,3.2282,3.235,3.2316,3.2282,3.235,3.2039,3.1789,3.2179,3.1968,3.1696,3.1696,3.1449,3.119,3.119,3.119,3.119,3.119,3.119,3.119,3.119,3.119,3.1151,3.1055,3.0286,2.9619,2.9127,2.9038,2.9083,2.9171,2.9662,2.9708,2.9178,2.9643,2.9922,2.9922,2.9313,2.955,3.0784,3.0226,3.0209,3.0801,3.0209,2.9922,2.9922,2.9922,2.9922,3.2196,3.2377,3.2882,3.3896,3.4753,3.5384,3.5528,0.0,0.0,3.5138,3.4853,3.475,3.4517,3.4754,3.5137,3.5569,3.6321,3.7294,3.8524,3.8707,3.8854,3.9276,3.9698,3.9625,0.0,3.8649,0.0,0.0,0.0,3.6464,3.565,3.5622,3.5622,3.5622,3.5622,3.5622,3.5622,3.5622,3.5622,3.5622,3.5622,3.5739,3.6028,3.6028,3.5975,3.5885,3.5885,0.0,3.5427,3.5804,3.5527,3.4923,3.5905,3.5502,3.4461,3.5023,3.5064,3.487,3.5253,3.5261,3.4962,3.4075,3.3539,3.3105,3.2648,3.2484,3.255,3.2795,3.2681,3.255,3.2809,3.2517,3.2196,3.2451,3.235,3.2109,3.1844,3.1987,3.2047,3.1828,3.207,3.2341,3.2341,3.2019,3.1749,3.1749,3.1444,3.119,3.119,3.0958,3.0658,3.0393,3.0351,3.0351,3.0351,3.0601,3.063,3.0279,3.0494,3.0666,3.0666,3.0328,3.0463,3.119,3.0852,3.0852,3.119,3.0835,3.0666,3.0666,3.0666,3.0666,3.2179,3.2741,3.3549,3.4276,3.5453,3.6315,3.5957,3.6067,3.6044,3.5267,3.4676,3.4379,3.4653,3.4705,3.4844,0.0,3.5862,3.6909,3.8707,3.8964,3.9258,0.0,4.0726,0.0,3.935,3.9658,0.0,0.0,0.0,0.0,3.6028,3.581,3.581,3.5924,3.5924,3.5924,3.5924,3.5924,3.5924,3.5924,3.5924,3.6165,3.658,3.658,3.6803,3.721,3.725,0.0,0.0,3.7708,3.7412,3.6814,3.7689,3.7322,3.6377,3.6794,3.6708,3.6398,3.6515,3.6431,3.6211,3.5716,3.4655,3.349,3.2957,3.2777,3.2872,3.3225,3.3075,3.2872,3.3243,3.2983,3.2684,3.2862,3.2915,3.2834,3.2652,3.3034,3.3303,3.2938,3.33,3.3686,3.3598,3.3104,3.2672,3.2568,3.1901,3.1427,3.1427,3.1292,3.119,3.119,3.119,3.123,3.1312,3.1252,3.123,3.1312,3.1269,3.119,3.119,3.119,3.119,3.119,3.119,3.119,3.119,3.119,3.119,3.119,3.119,3.119,3.3393,3.333,3.3684,3.4875,3.5844,3.6392,3.5981,0.0,3.6939,3.5412,3.4851,3.4653,3.4694,3.4264,3.4412,3.5936,3.6248,3.711,3.946,3.979,4.0084,4.0891,0.0,0.0,4.091,0.0,0.0,0.0,0.0,0.0,0.0,3.6603,3.6563,3.7038,3.7058,3.7058,3.7058,3.7058,3.7058,3.7058,3.7058,3.7058,3.7152,3.7152,3.7135,3.721,0.0,0.0,0.0,3.839,3.8218,3.7638,3.8906,3.8482,3.7159,3.7623,3.731,3.6731,3.7237,3.689,3.6413,3.7055,3.6164,3.4706,3.3927,3.368,3.3707,3.3734,3.3707,3.3707,3.3734,3.3447,3.3334,3.4055,3.4235,3.4416,3.5105,3.497,3.4695,3.4659,3.4712,3.4639,3.4185,3.4056,3.3864,3.3371,3.2662,3.2212,3.2212,3.1596,3.119,3.119,3.119,3.1351,3.1716,3.1411,3.1351,3.1716,3.1411,3.119,3.119,3.119,3.119,3.119,3.119,3.119,3.119,3.119,3.119,3.119,3.119,3.119,3.3313,3.3963,3.4731,3.5542,3.6699,3.7442,3.6786,3.747,3.785,3.6377,3.5864,3.5666,3.5666,3.4934,3.4722,3.5885,3.5913,3.6655,3.9081,3.9688,4.0194,4.102,4.1956,0.0,0.0,0.0,0.0,0.0,0.0,0.0,0.0,3.7838,3.6999,3.7173,3.719,3.719,3.719,3.719,3.719,3.719,3.719,3.736,3.7649,3.7821,3.8085,3.8358,0.0,0.0,0.0,3.9378,3.9388,3.9167,3.9871,3.9643,3.8952,3.8931,3.8571,3.8133,3.8214,3.801,3.7716,3.7533,3.7037,3.6358,3.555,3.4945,3.4523,3.4523,3.4523,3.4412,3.3935,3.4046,3.4353,3.4681,3.5155,3.5563,3.5589,3.581,3.5879,3.5616,3.5971,3.6252,3.6045,3.5353,3.48,3.4558,3.3656,3.2949,3.2949,3.2713,3.2632,3.2973,3.2132,3.164,3.1789,3.1897,3.2056,3.2196,3.2092,3.186,3.1565,3.1565,3.1449,3.119,3.119,3.119,3.119,3.119,3.119,3.119,3.119,3.1427,3.3863,3.4829,3.5745,3.6211,3.7468,3.8275,3.7324,3.8059,3.8527,3.7017,3.6703,3.661,3.6362,3.5837,3.5622,3.6234,3.6343,3.7181,3.9556,4.0177,4.0743,4.1699,0.0,0.0,0.0,0.0,0.0,0.0,0.0,0.0,0.0,3.979,3.8484,3.8113,3.8148,3.8039,3.7753,3.7685,3.7632,3.7632,3.7719,3.7941,3.8255,3.8612,3.8943,3.9264,0.0,0.0,0.0,4.0081,4.0177,4.012,4.0389,4.0339,4.0081,3.9819,3.9599,3.9339,3.9064,3.897,3.8877,3.8303,3.7951,3.7692,3.7267,3.6297,3.5385,3.5385,3.5385,3.5257,3.4688,3.4963,3.5459,3.5697,3.6211,3.663,3.6539,3.6916,3.7199,3.6841,3.7238,3.7596,3.7433,3.6675,3.598,3.5682,3.4655,3.3921,3.3728,3.3651,3.3785,3.4164,3.3529,3.3017,3.2932,3.317,3.328,3.3069,3.3262,3.2958,3.2039,3.2123,3.1938,3.1389,3.1252,3.1309,3.1512,3.1512,3.163,3.185,3.185,3.2121,3.5402,3.595,3.6522,3.7058,3.799,3.8506,3.7351,3.8251,3.8796,3.7065,3.7182,3.7315,3.6457,3.6786,3.72,3.7279,3.7885,3.9146,4.1361,4.1622,4.205,0.0,0.0,0.0,0.0,0.0,0.0,0.0,0.0,0.0,0.0,4.251,4.1487,4.0319,4.0328,3.9937,3.9099,3.8815,3.8658,3.8707,3.8943,3.908,3.9099,3.9438,3.9599,0.0,0.0,0.0,0.0,4.0389,4.0339,4.012,4.0389,4.0339,4.0101,4.0101,4.0101,4.0042,3.9709,3.9599,3.9599,3.958,3.9033,3.8478,3.8925,3.7776,3.6285,3.6285,3.6285,3.6285,3.6266,3.6266,3.6486,3.7276,3.7489,3.7698,3.8505,3.8689,3.8689,3.8658,3.8658,3.8515,3.798,3.7893,3.7524,3.6563,3.5758,3.5111,3.4558,3.4312,3.4185,3.4202,3.5321,3.5912,3.5575,3.5444,3.51,3.4442,3.501,3.4515,3.257,3.2861,3.2659,3.1806,3.1411,3.1546,3.2313,3.2313,3.2645,3.3389,3.3389,3.3389,3.4117,3.5059,3.6013,3.5863,3.719,3.8305,3.7543,3.8876,3.9934,3.8774,3.8775,3.8877,3.8606,3.8225,3.8349,3.9555,3.9754,4.0412,0.0,0.0,0.0,4.2983,4.3515,0.0,0.0,0.0,0.0,0.0,0.0,0.0,0.0,4.4142,4.3365,4.1588,4.1023,4.061,4.0327,3.9658,3.932,3.9301,3.9408,3.9438,3.9438,3.9797,0.0,0.0,0.0,0.0,0.0,4.0269,4.0177,4.0081,3.9944,3.9983,4.0081,3.984,3.9901,4.0042,3.9731,3.9599,3.9599,3.9599,3.9429,3.926,3.9387,3.8483,3.7359,3.7161,3.6707,3.6303,3.6303,3.6707,3.7165,3.7452,3.7918,3.8395,3.8652,3.8707,3.8707,3.8707,3.8707,3.8658,3.8465,3.8132,3.779,3.7452,3.696,3.6552,3.6396,3.6303,3.6372,3.6684,3.7307,3.7191,3.604,3.6348,3.6435,3.6001,3.6167,3.5797,3.4663,3.4733,3.4513,3.3935,3.3792,3.3694,3.3606,3.3606,3.3545,3.3423,3.3914,3.415,3.4008,3.4806,3.5702,3.5503,3.6961,3.8287,3.7712,3.9232,4.049,3.9574,3.9733,3.9902,3.9597,3.9343,3.948,4.0318,4.0761,4.1434,0.0,0.0,0.0,4.3266,0.0,0.0,0.0,0.0,0.0,0.0,0.0,0.0,0.0,0.0,4.4704,4.345,4.2522,4.1889,4.1525,4.0881,4.0547,4.0547,4.0662,4.0726,4.0748,4.1074,0.0,0.0,0.0,0.0,0.0,4.0321,4.0195,4.0081,3.988,3.9922,4.0081,3.988,3.9983,4.0213,4.0004,3.9925,3.9925,3.9925,3.9882,3.9797,3.9797,3.9124,3.83,3.8019,3.7588,3.7202,3.7202,3.7569,3.7936,3.7936,3.834,3.8707,3.8707,3.8707,3.8707,3.8707,3.8707,3.8707,3.8707,3.8415,3.8132,3.7946,3.7649,3.7396,3.721,3.736,3.7578,3.7859,3.8345,3.8282,3.7322,3.7783,3.783,3.7193,3.7448,3.7072,3.5903,3.5983,3.5771,3.5164,3.4976,3.4889,3.4891,3.5189,3.5035,3.4558,3.5019,3.5112,0.0,3.5083,3.5538,3.5732,3.7107,3.8259,3.7844,3.9286,0.0,3.9653,4.0132,4.0483,3.9741,4.0226,4.0574,4.0125,4.1221,4.2361,0.0,4.3556,0.0,0.0,0.0,0.0,0.0,0.0,0.0,0.0,0.0,0.0,0.0,0.0,4.5586,4.5586,4.4576,4.3595,4.2736,4.2367,4.2172,4.2172,4.2498,4.264,4.264,4.2961,0.0,0.0,0.0,0.0,0.0,4.0569,4.0379,4.0101,4.0138,4.0119,4.012,4.0158,4.0325,4.0489,4.0489,4.0489,4.0489,4.0489,4.0339,4.012,4.0101,3.9622,3.9063,3.8803,3.8719,3.8707,3.8707,3.8707,3.8707,3.8707,3.8707,3.8707,3.8707,3.8707,3.8707,3.8707,3.8707,3.8707,3.8707,3.8707,3.8546,3.8013,3.7946,3.7808,3.736,3.7685,3.7946,3.7946,3.8656,3.9099,3.9099,3.9408,3.9142,3.8044,3.867,3.8303,3.6552,3.6776,3.6584,3.5842,3.5359,3.5456,3.6131,3.6801,3.6882,3.6374,3.6333,3.6054,3.4868,0.0,3.5194,3.4903,3.5943,3.7212,0.0,3.8982,3.9977,4.0326,4.061,4.0944,4.1507,4.1238,4.1522,4.331,4.3387,4.3658,4.4931,0.0,0.0,0.0,0.0,0.0,0.0,0.0,0.0,0.0,0.0,0.0,0.0,0.0,4.5586,4.5586,4.5339,4.4784,4.392,4.3214,4.2851,4.287,4.2944,4.2979,4.2998,4.3069,0.0,0.0,0.0,0.0,4.1473,4.1225,4.0712,4.0138,4.0539,4.0471,4.0177,4.0787,4.0803,4.0489,4.0489,4.0489,4.0489,4.0489,4.0457,4.0372,4.0158,3.9622,3.9099,3.9008,3.8855,3.8707,3.8707,3.8707,3.8707,3.8707,3.8707,3.8707,3.8707,3.8707,3.8707,3.8707,3.8707,3.8707,3.8707,3.8707,3.8676,3.8546,3.8496,3.8465,3.8368,3.8433,3.8496,3.8496,3.8857,3.9099,3.9099,3.9408,3.9363,3.8846,3.8987,3.8804,3.8168,3.8211,3.8162,3.7979,3.7471,3.727,3.7467,3.6893,3.6539,3.6374,3.5985,3.5739,3.5233,3.5405,3.5588,3.5451,3.6267,3.7284,3.7986,3.8899,3.9708,4.0106,4.0526,4.1103,4.2119,4.1913,4.2177,4.3954,4.4167,0.0,0.0,0.0,0.0,0.0,0.0,0.0,0.0,0.0,0.0,0.0,0.0,0.0,0.0,0.0,4.5586,4.5586,4.5586,4.5355,4.4893,4.4451,4.4239,4.4239,4.4239,4.4239,4.4239,4.4239,4.4028,0.0,0.0,0.0,4.2376,4.2198,4.1875,4.1494,4.1639,4.1464,4.1264,4.1722,4.1686,4.1375,4.1168,4.0835,4.0566,4.0969,4.0835,4.0473,4.0339,3.9944,3.9529,3.9364,3.9117,3.8865,3.8865,3.8803,3.8707,3.8707,3.8707,3.8707,3.8707,3.8707,3.8817,3.9184,3.9239,3.9368,3.9753,3.9808,3.9808,3.9808,3.9496,3.9239,3.9239,3.8927,3.8836,3.9203,3.9398,3.9626,3.9986,4.0188,3.9964,3.9136,3.8971,3.8894,3.8865,3.8865,3.8865,3.8865,3.8603,3.8368,3.8267,3.7703,3.7323,3.7097,3.6545,3.6207,3.5806,3.625,3.6591,3.6406,3.6985,3.77,3.8088,3.8825,3.9466,3.9723,4.0424,4.1305,4.2288,4.2474,4.2789,4.3773,0.0,0.0,0.0,0.0,0.0,0.0,0.0,0.0,0.0,0.0,0.0,0.0,0.0,0.0,0.0,0.0,0.0,4.5586,4.5586,4.5586,4.5586,4.5586,4.5586,4.5586,4.5586,4.5586,4.5586,4.5586,4.5201,0.0,0.0,0.0,4.3278,4.3278,4.3201,4.3088,4.291,4.2756,4.2601,4.2733,4.2716,4.2526,4.2153,4.1508,4.0989,4.1604,4.1296,4.0662,4.0527,4.0339,4.0101,3.9819,3.9462,3.9178,3.9178,3.9017,3.8803,3.8762,3.8762,3.8768,3.8854,3.8891,3.9129,3.9918,4.0084,4.0304,4.0983,4.1111,4.1111,4.1111,4.0524,4.0084,4.0084,3.9496,3.9331,4.001,4.0084,4.0359,4.1056,4.1111,4.0614,3.9472,3.9073,3.8932,3.9036,3.9036,3.9036,3.9036,3.9036,3.8923,3.8707,3.8627,3.8332,3.7911,3.7558,3.7136,3.6639,3.8066,3.8604,3.6318,3.6434,3.7286,3.7957,3.8313,3.8883,4.0255,4.1266,4.2169,4.3063,4.3222,4.3715,0.0,0.0,0.0,0.0,0.0,0.0,0.0,0.0,0.0,0.0,0.0,0.0,0.0,0.0,0.0,0.0,0.0,0.0,4.5586,4.5586,4.5586,4.5586,4.5586,4.5586,4.5586,4.5586,4.5586,4.5586,4.5586,4.5528,0.0,0.0,4.4913,4.4124,4.4124,4.3701,4.3162,4.3782,4.3611,4.3057,4.3482,4.3369,4.2996,4.2934,4.2816,4.2604,4.2008,4.172,4.147,4.0719,4.0473,4.0441,4.0389,3.9945,3.951,3.951,3.9481,3.9383,3.9117,3.9036,3.9156,3.9626,3.9717,3.9955,4.0763,4.0928,4.0965,4.1093,4.1111,4.1111,4.1111,4.1001,4.0928,4.0928,4.0818,4.0799,4.091,4.0928,4.0983,4.1111,4.1111,4.1001,4.0822,4.0115,3.9436,3.8799,3.8762,3.8762,3.8762,3.8762,3.8732,3.8707,3.8249,3.798,3.7911,3.8128,3.8182,3.6204,3.7731,3.8686,3.7391,3.8098,3.9206,3.9537,3.966,4.0052,4.1217,4.2167,4.3079,4.3946,0.0,4.4481,4.5614,0.0,0.0,0.0,0.0,0.0,0.0,0.0,0.0,0.0,0.0,0.0,0.0,0.0,0.0,0.0,0.0,0.0,0.0,4.5586,4.5586,4.5586,4.5586,4.5586,4.5586,4.5586,4.5586,4.5586,4.5586,4.5586,4.5586,0.0,4.5355,4.4989,4.4989,4.4778,4.4489,4.4855,4.4669,4.4211,4.4414,4.4173,4.3816,4.4278,4.3855,4.3104,4.3143,4.2547,4.1816,4.1873,4.1239,4.0585,4.1066,4.0558,3.988,3.988,4.0094,4.0255,4.009,4.0403,4.0731,4.0818,4.0822,4.0991,4.1622,4.1754,4.1901,4.2323,4.2396,4.2396,4.2396,4.2029,4.1754,4.1754,4.1387,4.1277,4.1699,4.1754,4.1919,4.2359,4.2396,4.2029,4.1167,4.0898,4.0663,4.0293,4.0411,4.044,4.0274,4.0274,4.0173,4.001,3.9761,3.9626,3.9644,3.95,3.9441,3.565,3.7301,3.874,3.8688,3.9622,4.0656,4.1071,4.0998,4.1143,4.2146,4.3076,4.3907,4.4539,4.4792,0.0,4.5659,0.0,0.0,0.0,0.0,0.0,0.0,0.0,0.0,0.0,0.0,0.0,0.0,0.0,0.0,0.0,0.0,4.5586,4.5586,4.5586,4.5586,4.5586,4.5586,4.5586,4.5586,4.5586,4.5586,4.5586,4.5586,4.5586,4.5586,4.5586,4.5586,4.5586,4.5586,4.5586,4.5586,4.5586,4.54,4.5096,4.5201,4.4901,4.4592,4.5337,4.4759,4.3739,4.4162,4.3431,4.247,4.2951,4.2162,4.1239,4.1931,4.1487,4.0768,4.0558,4.0957,4.1396,4.131,4.176,4.2181,4.2031,4.2006,4.2155,4.259,4.2709,4.2879,4.3422,4.3497,4.3497,4.3497,4.2983,4.258,4.258,4.2128,4.1981,4.2506,4.2662,4.2934,4.3458,4.3497,4.2965,4.1754,4.173,4.169,4.1505,4.1689,4.1689,4.1505,4.1486,4.1373,4.1111,4.1111,4.1111,4.1079,4.0884,4.0745,3.5547,3.7851,3.9785,3.9785,3.9656,3.9927,4.1557,4.1308,4.1168,4.2783,4.3903,4.4588,4.4536,4.507,4.556,4.5601,0.0,0.0,0.0,0.0,0.0,0.0,0.0,0.0,0.0,0.0,0.0,0.0,0.0,0.0,0.0,0.0,0.0,4.5586,4.5586,4.5586,4.5586,4.5586,4.5586,4.5586,4.5586,4.5586,4.5586,4.5586,4.5586,4.5586,4.5586,4.5586,4.5586,4.5586,4.5586,4.5586,4.5586,4.54,4.5159,4.5438,4.5343,4.5104,4.5475,4.5509,4.5297,4.4528,4.422,4.3989,4.3316,4.3008,4.2931,4.2989,4.2953,4.2703,4.1879,4.2321,4.2848,4.2545,4.2522,4.2667,4.3107,4.3184,4.3318,4.3785,4.3862,4.3806,4.3529,4.3497,4.3497,4.3497,4.3442,4.3406,4.3406,4.3643,4.3701,4.3456,4.368,4.3762,4.3513,4.3497,4.3442,4.3314,4.265,4.1897,4.1162,4.1158,4.1158,4.1144,4.1144,4.1126,4.1111,4.1111,4.1111,4.113,4.1831,4.2179,3.4843,3.75,3.9902,3.9902,4.05,4.142,4.2705,4.2685,4.2848,4.4472,4.5121,4.5331,4.521,0.0,4.5586,0.0,0.0,0.0,0.0,0.0,0.0,0.0,0.0,0.0,0.0,0.0,0.0,0.0,0.0,0.0,0.0,0.0,0.0,4.5586,4.5586,4.5586,4.5586,4.5586,4.5586,4.5586,4.5586,4.5586,4.5586,4.5586,4.5586,4.5586,4.5586,4.5586,4.5586,4.5586,4.5586,4.5586,4.5586,4.5513,4.5419,4.555,4.5513,4.5419,4.5568,4.5586,4.5547,4.522,4.4739,4.4335,4.4586,4.3932,4.3201,4.3701,4.3855,4.3662,4.2816,4.322,4.3818,4.3692,4.4057,4.4461,4.4436,4.4425,4.4407,4.4371,4.4373,4.4337,4.4213,4.4165,4.4165,4.4165,4.4165,4.4165,4.4165,4.4308,4.4318,4.4213,4.4076,4.3955,4.3836,4.3612,4.3497,4.3497,4.3204,4.291,4.2598,4.2598,4.2598,4.2598,4.2598,4.2598,4.2598,4.2598,4.2598,4.2598,4.2892,4.3039,3.4816,3.7417,3.9919,4.0234,4.1241,4.2474,4.3668,4.3622,4.3765,4.5413,4.5733,4.5708,4.562,0.0,0.0,0.0,0.0,0.0,0.0,0.0,0.0,0.0,0.0,0.0,0.0,0.0,0.0,0.0,0.0,0.0,0.0,0.0,0.0,0.0,4.5586,4.5586,4.5586,4.5586,4.5586,4.5586,4.5586,4.5586,4.5586,4.5586,4.5586,4.5586,4.5586,4.5586,4.5586,4.5586,4.5586,4.5586,4.5586,4.5586,4.5586,4.5586,4.5586,4.5586,4.5586,4.5586,4.5586,4.5586,4.5201,4.4816,4.5413,4.4797,4.3989,4.4547,4.4701,4.4586,4.4028,4.4297,4.4701,4.4701,4.5163,4.555,4.5302,4.5243,4.5161,4.4806,4.4776,4.4707,4.4606,4.458,4.458,4.458,4.458,4.458,4.458,4.4682,4.4776,4.4776,4.4401,4.4146,4.3998,4.3804,4.3612,4.3532,4.3497,4.3497,4.3497,4.3497,4.3497,4.3497,4.3497,4.3497,4.3497,4.3497,4.3497,4.3497,4.3497,4.3497,3.5635,3.7757,3.9933,4.0937,4.1748,4.2734,4.432,4.3886,4.3585,4.5259,4.5586,4.5586,4.5586,4.5586,0.0,0.0,0.0,0.0,0.0,0.0,0.0,0.0,0.0,0.0,0.0,0.0,0.0,0.0,0.0,0.0,0.0,0.0,0.0,0.0,4.5586,4.5586,4.5586,4.5586,4.5586,4.5586,4.5586,4.5586,4.5586,4.5586,4.5586,4.5586,4.5586,4.5586,4.5586,4.5586,4.5586,4.5586,4.5586,4.5586,4.5586,4.5586,4.5586,4.5586,4.5586,4.5586,4.5586,4.5586,4.5586,4.5586,4.5586,4.5586,4.5586,4.5586,4.5586,4.5586,4.5586,4.5586,4.5586,4.5586,4.5586,4.5586,4.5586,4.5586,4.5495,4.518,4.5096,4.5007,4.4676,4.4606,4.4606,4.4606,4.4606,4.4606,4.4606,4.4896,4.5096,4.5096,4.48,4.4447,4.4028,4.4016,4.3849,4.3513,4.3497,4.3497,4.3497,4.3497,4.3497,4.3497,4.3497,4.3497,4.3497,4.3497,4.3497,4.3497,4.3497,4.3497,3.513,3.7399,3.9919,4.0215,4.1686,4.3369,4.444,4.4378,4.437,4.5389,4.5586,4.5586,4.5586,0.0,0.0,0.0,0.0,0.0,0.0,0.0,0.0,0.0,0.0,0.0,0.0,0.0,0.0,0.0,0.0,0.0,0.0,0.0,0.0,0.0,4.5586,4.5586,4.5586,4.5586,4.5586,4.5586,4.5586,4.5586,4.5586,4.5586,4.5586,4.5586,4.5586,4.5586,4.5586,4.5586,4.5586,4.5586,4.5586,4.5586,4.5586,4.5586,4.5586,4.5586,4.5586,4.5586,4.5586,4.5586,4.5586,4.5586,4.5586,4.5586,4.5586,4.5586,4.5586,4.5586,4.5586,4.5586,4.5586,4.5586,4.5586,4.5586,4.5586,4.5586,4.5568,4.5476,4.5438,4.5419,4.5322,4.5303,4.5303,4.5303,4.5303,4.5303,4.5303,4.54,4.5362,4.5137,4.48,4.4447,4.4028,4.3772,4.3597,4.3532,4.3497,4.3497,4.3497,4.3497,4.3497,4.3497,4.3497,4.3497,4.3497,4.3497,4.3497,4.3497,4.3497,4.3497,3.747,3.9252,4.103,4.1758,4.2939,4.4168,4.4968,4.5028,4.5055,4.5505,4.5586,4.5586,4.5586,4.5586,0.0,0.0,0.0,0.0,0.0,0.0,0.0,0.0,0.0,0.0,0.0,0.0,0.0,0.0,0.0,0.0,0.0,0.0,0.0,0.0,4.568,4.5648,4.5586,4.5586,4.5586,4.5586,4.5586,4.5586,4.5586,4.5586,4.5586,4.5586,4.5586,4.5586,4.5586,4.5586,4.5586,4.5586,4.5586,4.5586,4.5586,4.5586,4.5586,4.5586,4.5586,4.5586,4.5586,4.5586,4.5586,4.5586,4.5586,4.5586,4.5586,4.5586,4.5586,4.5586,4.5586,4.5586,4.5586,4.5586,4.5586,4.5586,4.5586,4.5586,4.5586,4.5586,4.5586,4.5586,4.5586,4.5586,4.5586,4.5586,4.5586,4.5586,4.5586,4.5495,4.5322,4.5118,4.48,4.4447,4.4028,4.3818,4.3646,4.3532,4.3497,4.3497,4.3497,4.3497,4.3497,4.3497,4.3497,4.3497,4.3497,4.3497,4.3497,4.3497,4.3497,4.3497,4.1195,4.2197,4.2711,4.4452,4.4889,4.5066,4.5653,4.5696,4.5586,4.5586,0.0,4.5586,4.5586,0.0,0.0,0.0,0.0,0.0,0.0,0.0,0.0,0.0,0.0,0.0,0.0,0.0,0.0,0.0,0.0,0.0,0.0,0.0,0.0,0.0,4.5803,4.5761,4.562,4.562,4.562,0.0,4.5586,4.5586,4.5586,4.5586,4.5586,4.5586,4.5586,4.5586,4.5586,4.5586,4.5586,4.5586,4.5586,4.5586,4.5586,4.5586,4.5586,4.5586,4.5586,4.5586,4.5586,4.5586,4.5586,4.5586,4.5586,4.5586,4.5586,4.5586,4.5586,4.5586,4.5586,4.5586,4.5586,4.5586,4.5586,4.5586,4.5586,4.5586,4.5586,4.5586,4.5586,4.5586,4.5586,4.5586,4.5586,4.5586,4.5586,4.5586,4.5586,4.5342,4.5118,4.5052,4.4781,4.4401,4.3986,4.3955,4.3818,4.3513,4.3497,4.3497,4.3497,4.3497,4.3497,4.3497,4.3497,4.3497,4.3497,4.3497,4.3497,4.3497,4.3497,4.3497,4.0212,4.1385,4.2636,4.3711,4.4829,4.5658,4.565,4.562,4.5586,4.5586,4.5586,4.5586,0.0,0.0,0.0,0.0,0.0,0.0,0.0,0.0,0.0,0.0,0.0,0.0,0.0,0.0,0.0,0.0,0.0,0.0,0.0,0.0,0.0,4.5881,4.5881,4.5828,4.5761,4.5761,4.5708,0.0,4.5586,4.5586,4.5586,4.5586,4.5586,4.5586,4.5586,4.5586,4.5586,4.5586,4.5586,4.5586,4.5586,4.5586,4.5586,4.5586,4.5586,4.5586,4.5586,4.5586,4.5586,4.5586,4.5586,4.5586,4.5586,4.5586,4.5586,4.5586,4.5586,4.5586,4.5586,4.5586,4.5586,4.5586,4.5586,4.5586,4.5586,4.5586,4.5586,4.5586,4.5586,4.5586,4.5586,4.5586,4.5586,4.5586,4.5586,4.5586,4.5586,4.555,4.5283,4.4757,4.4631,4.4337,4.3679,4.3597,4.3563,4.3479,4.3497,4.3497,4.3497,4.3497,4.3497,4.3497,4.3497,4.3497,4.3497,4.3497,4.3497,4.3497,4.3497,4.3497,4.1269,4.2322,4.3244,4.4421,4.5276,4.5801,4.5632,4.5586,4.5586,4.5586,4.5586,0.0,0.0,0.0,0.0,0.0,0.0,0.0,0.0,0.0,0.0,0.0,0.0,0.0,0.0,0.0,0.0,0.0,0.0,0.0,0.0,4.5852,4.5899,4.5899,4.5899,4.5881,4.5796,4.5733,4.5665,4.5586,4.5586,4.5586,4.5586,4.5586,4.5586,4.5586,4.5586,4.5586,4.5586,4.5586,4.5586,4.5586,4.5586,4.5586,4.5586,4.5586,4.5586,4.5586,4.5586,4.5586,4.5586,4.5586,4.5586,4.5586,4.5586,4.5586,4.5586,4.5586,4.5586,4.5586,4.5586,4.5586,4.5586,4.5586,4.5586,4.5586,4.5586,4.5586,4.5586,4.5586,4.5586,4.5586,4.5586,4.5586,4.5586,4.5586,4.5586,4.5586,4.5586,4.5457,4.5222,4.4872,4.4701,4.4364,4.3772,4.3931,4.3943,4.3758,4.3931,4.4035,4.4035,4.4035,4.3836,4.3532,4.3646,4.3679,4.3497,4.3679,4.3646,4.3497,4.3497,4.3497,4.2185,4.3277,4.3929,4.5425,4.5796,4.5756,4.5618,4.5586,4.5586,4.5586,4.5586,0.0,0.0,0.0,0.0,0.0,0.0,0.0,0.0,0.0,0.0,0.0,0.0,0.0,0.0,0.0,0.0,0.0,0.0,0.0,4.5815,4.5862,4.5907,4.5932,4.5907,4.5872,4.5828,4.5692,4.5635,4.5635,4.5648,4.5645,4.5645,4.5645,4.5648,4.5635,4.5603,4.562,4.5635,4.5635,4.562,4.5603,4.5632,4.5648,4.5635,4.5648,4.5645,4.5645,4.5645,4.5645,4.5645,4.5645,4.5645,4.5645,4.5645,4.5645,4.5645,4.5635,4.5635,4.5618,4.5603,4.5586,4.5586,4.5586,4.5586,4.5586,4.5586,4.5586,4.5586,4.5586,4.5586,4.5586,4.5586,4.5586,4.5586,4.5586,4.5586,4.5586,4.5586,4.5362,4.5161,4.5096,4.4849,4.4527,4.4146,4.4419,4.4474,4.4117,4.4419,4.458,4.458,4.458,4.4308,4.3712,4.3974,4.3943,4.3597,4.3849,4.3836,4.3497,4.3497,4.3497,3.9828,4.1747,4.3817,4.5401,4.5796,4.5756,4.5618,0.0,4.5586,0.0,0.0,0.0,0.0,0.0,0.0,0.0,0.0,0.0,0.0,0.0,0.0,0.0,0.0,0.0,0.0,0.0,0.0,0.0,0.0,0.0,4.5891,4.589,4.594,4.6075,4.5967,4.589,4.59,4.5808,4.5769,4.5769,4.5828,4.5852,4.5852,4.5852,4.5828,4.5775,4.5651,4.5665,4.5769,4.5769,4.5708,4.5618,4.5794,4.5817,4.5783,4.585,4.5852,4.5852,4.5852,4.5852,4.5852,4.5852,4.5852,4.5852,4.5852,4.5852,4.5841,4.579,4.5769,4.5747,4.5618,4.5586,4.5586,4.5586,4.5586,4.5586,4.5586,4.5586,4.5586,4.5586,4.5586,4.5586,4.5586,4.5586,4.5586,4.5586,4.5586,4.5586,4.5586,4.5568,4.5419,4.5118,4.5052,4.4896,4.4553,4.4553,4.458,4.4527,4.4553,4.458,4.458,4.458,4.4553,4.4447,4.4501,4.4337,4.3924,4.3986,4.3836,4.3497,4.3497,4.3497,4.0334,4.2461,4.4281,4.5394,4.5696,4.568,4.562,4.5586,4.5637,0.0,0.0,0.0,0.0,0.0,0.0,0.0,0.0,0.0,0.0,0.0,0.0,0.0,0.0,0.0,0.0,0.0,0.0,0.0,0.0,4.5899,4.5899,4.5974,4.6039,4.6108,4.6039,4.6001,4.6001,4.59,4.585,4.585,4.5891,4.5899,4.5899,4.5899,4.5872,4.585,4.5782,4.5794,4.585,4.585,4.5817,4.5789,4.5881,4.5891,4.5861,4.5881,4.5899,4.5899,4.5899,4.5899,4.5899,4.5899,4.5899,4.5899,4.5899,4.5899,4.589,4.5852,4.585,4.5839,4.5769,4.5736,4.5723,4.5723,4.5648,4.5586,4.5586,4.5586,4.5586,4.5586,4.5586,4.5586,4.5586,4.5586,4.5586,4.5586,4.5586,4.5586,4.5586,4.5586,4.5531,4.54,4.5381,4.5243,4.4919,4.5033,4.5096,4.4896,4.5074,4.5161,4.5161,4.5161,4.5161,4.5161,4.4966,4.4587,4.4016,4.4252,4.4065,4.3497,4.3497,4.3497,4.0455,4.2383,4.3766,4.4963,4.5432,4.5586,0.0,0.0,4.5635,0.0,0.0,0.0,0.0,0.0,0.0,0.0,0.0,0.0,0.0,0.0,0.0,0.0,0.0,0.0,0.0,0.0,0.0,0.0,0.0,4.5932,4.5899,4.5995,4.6055,4.6108,4.6075,4.6075,4.6108,4.5995,4.594,4.594,4.5988,4.5995,4.5995,4.5995,4.5995,4.5995,4.5924,4.5916,4.594,4.594,4.5924,4.5907,4.5981,4.5981,4.5947,4.5988,4.5995,4.5995,4.5995,4.5995,4.5995,4.5995,4.5995,4.5995,4.5995,4.5995,4.5995,4.5967,4.594,4.5932,4.5907,4.5871,4.582,4.582,4.575,4.5658,4.562,4.5586,4.5586,4.5586,4.5586,4.5586,4.5586,4.5586,4.5586,4.5586,4.5586,4.562,4.5651,4.562,4.562,4.5651,4.562,4.5495,4.5243,4.5476,4.5495,4.5243,4.5457,4.5586,4.5586,4.5586,4.5586,4.5586,4.5342,4.4877,4.4146,4.4447,4.4223,4.3497,4.3497,4.3497,3.8734,4.0062,4.1293,4.3739,4.4989,4.5586,0.0,0.0,0.0,0.0,0.0,0.0,0.0,0.0,0.0,0.0,0.0,0.0,0.0,0.0,0.0,0.0,0.0,0.0,0.0,0.0,0.0,0.0,0.0,4.6039,4.5907,4.5907,4.5974,4.6108,4.5981,4.5974,4.6108,4.6084,4.6084,4.6084,4.6223,4.6289,4.6289,4.6289,4.6289,4.6268,4.6001,4.5974,4.6084,4.6084,4.6008,4.5924,4.6175,4.62,4.6113,4.6225,4.6289,4.6289,4.6289,4.6289,4.6289,4.6289,4.6289,4.6289,4.6289,4.6289,4.6247,4.614,4.6084,4.605,4.5924,4.5899,4.589,4.589,4.589,4.5831,4.5648,4.5586,4.5586,4.5586,4.5586,4.5586,4.5586,4.5586,4.5586,4.5586,4.5586,4.5651,4.5769,4.568,4.5651,4.5789,4.568,4.5586,4.5568,4.5586,4.5586,4.5568,4.5586,4.5586,4.5586,4.5586,4.5586,4.5586,4.5586,4.5243,4.4553,4.458,4.4223,4.3497,4.3497,4.3497,3.8604,3.9892,4.1104,4.3662,4.4528,4.4913,4.547,4.5586,0.0,0.0,0.0,0.0,0.0,0.0,0.0,0.0,0.0,0.0,0.0,0.0,0.0,0.0,0.0,0.0,0.0,0.0,0.0,0.0,0.0,0.0,4.615,4.617,4.6175,4.6225,4.6175,4.6175,4.6225,4.6225,4.6225,4.6225,4.6289,4.6308,4.6308,4.6308,4.6308,4.6289,4.62,4.6175,4.6225,4.6225,4.62,4.6173,4.6268,4.6268,4.6225,4.6289,4.6308,4.6308,4.6308,4.6308,4.6308,4.6308,4.6308,4.6308,4.6308,4.6308,4.6289,4.6246,4.6225,4.6223,4.6173,4.6084,4.6001,4.5916,4.5899,4.5881,4.5817,4.5794,4.5794,4.5794,4.5794,4.5794,4.5794,4.5794,4.5794,4.5794,4.5794,4.5817,4.5861,4.5828,4.5789,4.5809,4.5761,4.5692,4.5603,4.5586,4.5586,4.5586,4.5586,4.5586,4.5586,4.5586,4.5586,4.5586,4.5586,4.5381,4.4919,4.4919,4.4682,4.4213,4.3943,4.3836,3.7815,3.9238,4.0642,4.2893,4.3682,4.4201,4.5336,0.0,0.0,0.0,0.0,0.0,0.0,0.0,0.0,0.0,0.0,0.0,0.0,0.0,0.0,0.0,0.0,0.0,0.0,0.0,0.0,0.0,0.0,0.0,4.6246,4.6289,4.6308,4.6308,4.6308,4.6308,4.6308,4.6308,4.6308,4.6308,4.6308,4.6308,4.6308,4.6308,4.6308,4.6308,4.6308,4.6308,4.6308,4.6308,4.6308,4.6308,4.6308,4.6308,4.6308,4.6308,4.6308,4.6308,4.6308,4.6308,4.6308,4.6308,4.6308,4.6308,4.6308,4.6308,4.6308,4.6308,4.6308,4.6308,4.6308,4.6225,4.6147,4.6069,4.6039,4.6039,4.6039,4.5955,4.5899,4.5899,4.5899,4.5899,4.5899,4.5899,4.5899,4.5899,4.5899,4.5916,4.5967,4.5924,4.5891,4.5836,4.5815,4.5747,4.562,4.5586,4.5586,4.5586,4.5586,4.5586,4.5586,4.5586,4.5586,4.5586,4.5586,4.5495,4.5282,4.514,4.4919,4.458,4.4337,4.4117,0.0,0.0,0.0,0.0,0.0,0.0,4.5182,0.0,0.0,0.0,0.0,0.0,0.0,0.0,0.0,0.0,0.0,0.0,0.0,0.0,0.0,0.0,0.0,0.0,0.0,0.0,0.0,0.0,0.0,4.6246,4.6113,4.6225,4.6308,4.6308,4.6308,4.6308,4.6308,4.6308,4.6308,4.6308,4.6308,4.6308,4.6308,4.6308,4.6308,4.6308,4.6308,4.6308,4.6308,4.6308,4.6308,4.6308,4.6308,4.6308,4.6308,4.6308,4.6308,4.6308,4.6308,4.6308,4.6308,4.6308,4.6308,4.6308,4.6308,4.6308,4.6308,4.6308,4.6308,4.6308,4.6308,4.6308,4.6308,4.6308,4.6308,4.6308,4.6308,4.6108,4.5907,4.5907,4.5907,4.5907,4.5907,4.5907,4.5907,4.5907,4.5907,4.5967,4.6084,4.5988,4.5907,4.5907,4.5847,4.5747,4.562,4.5603,4.5586,4.5586,4.5586,4.5586,4.5586,4.5586,4.5586,4.5586,4.5586,4.5586,4.5586,4.5263,4.4943,4.4631,4.4606,4.4373,3.6238,0.0,0.0,0.0,0.0,0.0,0.0,0.0,0.0,0.0,0.0,0.0,0.0,0.0,0.0,0.0,0.0,0.0,0.0,0.0,0.0,0.0,0.0,0.0,0.0,0.0,0.0,0.0,4.6289,4.6289,4.6247,4.6289,4.6308,4.6308,4.6308,4.6308,4.6308,4.6308,4.6308,4.6308,4.6308,4.6308,4.6308,4.6308,4.6308,4.6308,4.6308,4.6308,4.6308,4.6308,4.6308,4.6308,4.6308,4.6308,4.6308,4.6308,4.6308,4.6308,4.6308,4.6308,4.6308,4.6308,4.6308,4.6308,4.6308,4.6308,4.6308,4.6308,4.6308,4.6308,4.6308,4.6308,4.6308,4.6308,4.6308,4.6308,4.6308,4.6246,4.6198,4.6198,4.6198,4.6198,4.6198,4.6198,4.6198,4.6198,4.6198,4.62,4.6246,4.6202,4.6147,4.6069,4.5944,4.5828,4.5742,4.5668,4.5586,4.5586,4.5586,4.5586,4.5586,4.5586,4.5586,4.5586,4.5586,4.5586,4.5586,4.5513,4.5419,4.5322,4.5055,4.4612,3.6469,3.7429,3.8446,0.0,0.0,0.0,0.0,4.3682,0.0,0.0,0.0,0.0,0.0,0.0,0.0,0.0,0.0,0.0,0.0,0.0,0.0,0.0,0.0,0.0,0.0,0.0,0.0,4.6308,4.6308,4.6308,4.6308,4.6308,4.6308,4.6308,4.6308,4.6308,4.6308,4.6308,4.6308,4.6308,4.6308,4.6308,4.6308,4.6308,4.6308,4.6308,4.6308,4.6308,4.6308,4.6308,4.6308,4.6308,4.6308,4.6308,4.6308,4.6308,4.6308,4.6308,4.6308,4.6308,4.6308,4.6308,4.6308,4.6308,4.6308,4.6308,4.6308,4.6308,4.6308,4.6308,4.6308,4.6308,4.6308,4.6308,4.6308,4.6308,4.6308,4.6308,4.6308,4.6308,4.6308,4.6308,4.6308,4.6308,4.6308,4.6308,4.6308,4.6308,4.6308,4.6308,4.6247,4.6117,4.6033,4.6083,4.6274,4.5911,4.5803,4.6105,4.5797,4.5586,4.5586,4.5586,4.5586,4.5586,4.5586,4.5586,4.5586,4.5586,4.5586,4.5586,4.5262,4.4806,3.6943,3.7761,3.8759,0.0,0.0,0.0,4.3528,4.347,0.0,0.0,0.0,0.0,0.0,0.0,0.0,0.0,0.0,0.0,0.0,0.0,0.0,0.0,0.0,0.0,0.0,4.6308,4.6308,4.6308,4.6308,4.6308,4.6308,4.6308,4.6308,4.6308,4.6308,4.6308,4.6308,4.6308,4.6308,4.6308,4.6308,4.6308,4.6308,4.6308,4.6308,4.6308,4.6308,4.6308,4.6308,4.6308,4.6308,4.6308,4.6308,4.6308,4.6308,4.6308,4.6308,4.6308,4.6308,4.6308,4.6308,4.6308,4.6308,4.6308,4.6308,4.6308,4.6308,4.6308,4.6308,4.6308,4.6308,4.6308,4.6308,4.6308,4.6308,4.6308,4.6308,4.6308,4.6308,4.6308,4.6308,4.6308,4.6308,4.6308,4.6308,4.6308,4.6308,4.6308,4.6308,4.6308,4.6247,4.6124,4.6113,4.6365,4.6996,4.6287,4.6114,4.687,4.6102,4.562,4.5586,4.562,4.562,4.5586,4.5586,4.5586,4.5586,4.5586,4.5586,4.5586,4.5283,4.4966,0.0,0.0,0.0,0.0,0.0,0.0,4.2348,4.2181,0.0,0.0,0.0,0.0,0.0,0.0,0.0,0.0,0.0,0.0,0.0,0.0,0.0,0.0,0.0,0.0,0.0,4.6308,4.6308,4.6308,4.6308,4.6308,4.6308,4.6308,4.6308,4.6308,4.6308,4.6308,4.6308,4.6308,4.6308,4.6308,4.6308,4.6308,4.6308,4.6308,4.6308,4.6308,4.6308,4.6308,4.6308,4.6308,4.6308,4.6308,4.6308,4.6308,4.6308,4.6308,4.6308,4.6308,4.6308,4.6308,4.6308,4.6308,4.6308,4.6308,4.6308,4.6308,4.6308,4.6308,4.6308,4.6308,4.6308,4.6308,4.6308,4.6308,4.6308,4.6308,4.6308,4.6308,4.6308,4.6308,4.6308,4.6308,4.6308,4.6308,4.6308,4.6308,4.6308,4.6308,4.6308,4.6308,4.6289,4.6268,4.6153,4.6431,4.7242,4.6396,4.6164,4.7008,4.6239,4.5723,4.5603,4.5708,4.5708,4.5603,4.5586,4.5586,4.5586,4.5586,4.5586,4.5586,4.5531,4.5322,0.0,0.0,0.0,4.0673,0.0,0.0,0.0,0.0,4.2175,0.0,0.0,0.0,0.0,0.0,0.0,0.0,0.0,0.0,0.0,0.0,0.0,0.0,0.0,0.0,0.0,4.6308,4.6308,4.6308,4.6308,4.6308,4.6308,4.6308,4.6308,4.6308,4.6308,4.6308,4.6308,4.6308,4.6308,4.6308,4.6308,4.6308,4.6308,4.6308,4.6308,4.6308,4.6308,4.6308,4.6308,4.6308,4.6308,4.6308,4.6308,4.6308,4.6308,4.6308,4.6308,4.6308,4.6308,4.6308,4.6308,4.6308,4.6308,4.6308,4.6308,4.6308,4.6308,4.6308,4.6308,4.6308,4.6308,4.6308,4.6308,4.6308,4.6308,4.6308,4.6308,4.6308,4.6308,4.6308,4.6308,4.6308,4.6308,4.6308,4.6308,4.6308,4.6308,4.6308,4.6308,4.668,4.6953,4.6953,4.7281,4.7816,4.863,4.782,4.7398,4.7764,4.6976,4.6282,4.5757,4.6164,4.653,4.6836,4.6855,4.6644,4.624,4.624,4.6009,4.5586,4.5586,4.5419,0.0,0.0,0.0,0.0,0.0,4.1672,0.0,0.0,0.0,4.3465,0.0,0.0,0.0,0.0,0.0,0.0,0.0,0.0,0.0,0.0,0.0,0.0,0.0,0.0,0.0,4.6308,4.6308,4.6308,4.6308,4.6308,4.6308,4.6308,4.6308,4.6308,4.6308,4.6308,4.6308,4.6308,4.6308,4.6308,4.6308,4.6308,4.6308,4.6308,4.6308,4.6308,4.6308,4.6308,4.6308,4.6308,4.6308,4.6308,4.6308,4.6308,4.6308,4.6308,4.6308,4.6308,4.6308,4.6308,4.6308,4.6308,4.6308,4.6308,4.6308,4.6308,4.6308,4.6308,4.6308,4.6308,4.6308,4.6308,4.6308,4.6308,4.6308,4.6348,4.6504,4.6543,4.6601,4.6777,4.6797,4.6699,4.6367,4.6308,4.6367,4.6523,4.6406,4.6426,4.6758,4.7266,4.7656,4.7832,4.8476,4.9217,4.9973,4.922,4.8722,4.8783,4.7809,4.6984,4.6413,4.695,4.7515,4.8086,4.8105,4.7702,4.6913,4.6913,4.6451,4.5586,4.5586,4.5438,0.0,0.0,0.0,0.0,4.2708,0.0,0.0,0.0,4.1643,4.1058,0.0,0.0,0.0,0.0,0.0,0.0,0.0,0.0,0.0,0.0,0.0,0.0,0.0,0.0,0.0,0.0,4.6308,4.6308,4.6308,4.6308,4.6308,4.6308,4.6308,4.6308,4.6308,4.6308,4.6308,4.6308,4.6308,4.6308,4.6308,4.6308,4.6308,4.6308,4.6308,4.6308,4.6308,4.6308,4.6308,4.6308,4.6308,4.6308,4.6308,4.6308,4.6308,4.6308,4.6308,4.6308,4.6308,4.6308,4.6308,4.6308,4.6308,4.6308,4.6308,4.6308,4.6308,4.6308,4.6308,4.6308,4.6308,4.6308,4.6308,4.6308,4.6308,4.6504,4.7285,4.7441,4.7676,4.8457,4.8594,4.8105,4.6562,4.6308,4.6562,4.7344,4.6797,4.6855,4.8418,4.8027,4.7891,4.8672,4.8848,4.9258,5.0097,4.928,4.902,4.9772,4.8289,4.7632,4.8174,4.8165,4.8149,4.8105,4.8105,4.7702,4.6913,4.6913,4.6451,4.5586,4.5586,4.5586,0.0,0.0,0.0,0.0,0.0,0.0,4.1622,0.0,4.1085,0.0,0.0,0.0,0.0,0.0,0.0,0.0,0.0,0.0,0.0,0.0,0.0,0.0,0.0,0.0,0.0,0.0,0.0,0.0,0.0,4.6308,4.6308,4.6308,4.6308,4.6308,4.6308,4.6308,4.6308,4.6308,4.6308,4.6308,4.6308,4.6308,4.6308,4.6308,4.6308,4.6308,4.6308,4.6308,4.6308,4.6308,4.6308,4.6308,4.6308,4.6308,4.6308,4.6308,4.6308,4.6308,4.6308,4.6308,4.6308,4.6308,4.6308,4.6308,4.6308,4.6308,4.6308,4.6308,4.6308,4.6308,4.6308,4.6308,4.6308,4.6308,4.6308,4.6543,4.7402,4.7598,4.7851,4.873,4.8906,4.8672,4.793,4.7812,4.793,4.8301,4.8047,4.7891,4.8125,4.8711,4.9062,4.8906,4.9766,5.0508,5.0879,5.0505,5.0227,5.0129,4.888,4.8262,4.8487,4.8858,4.8984,4.8856,4.8856,4.8221,4.6913,4.6913,4.6451,4.5586,4.5586,4.5586,4.1816,0.0,0.0,0.0,0.0,0.0,0.0,0.0,0.0,0.0,0.0,0.0,0.0,0.0,0.0,0.0,0.0,0.0,0.0,0.0,0.0,0.0,0.0,0.0,0.0,0.0,0.0,0.0,0.0,0.0,4.6308,4.6308,4.6308,4.6308,4.6308,4.6308,4.6308,4.6308,4.6308,4.6308,4.6308,4.6308,4.6308,4.6308,4.6308,4.6308,4.6308,4.6308,4.6308,4.6308,4.6308,4.6308,4.6308,4.6308,4.6308,4.6308,4.6308,4.6308,4.6308,4.6308,4.6308,4.6308,4.6308,4.6308,4.6308,4.6308,4.6308,4.6308,4.6308,4.6308,4.6308,4.6308,4.6308,4.6308,4.6484,4.6894,4.7773,4.8144,4.8555,4.9414,4.959,4.959,4.959,4.9004,4.8711,4.918,4.8848,4.8574,4.8633,4.9355,4.9687,4.9297,5.0351,5.1074,5.1074,5.1269,5.1055,5.0254,4.9717,4.9157,4.8536,4.9237,4.9451,4.9048,4.9048,4.8336,4.6913,4.6913,4.6451,4.5586,4.5586,4.5586,0.0,0.0,0.0,4.1475,0.0,0.0,0.0,0.0,4.1527,0.0,0.0,0.0,0.0,0.0,0.0,4.0706,0.0,0.0,0.0,0.0,0.0,0.0,0.0,0.0,0.0,0.0,0.0,0.0,0.0,0.0,4.6308,4.6308,4.6308,4.6308,4.6308,4.6308,4.6308,4.6308,4.6308,4.6308,4.6308,4.6308,4.6308,4.6308,4.6308,4.6308,4.6308,4.6308,4.6308,4.6308,4.6308,4.6308,4.6308,4.6308,4.6308,4.6308,4.6308,4.6308,4.6308,4.6308,4.6308,4.6308,4.6308,4.6308,4.6308,4.6308,4.6308,4.6308,4.6308,4.6308,4.6308,4.6308,4.6308,4.6308,4.6933,4.7793,4.8672,4.9512,5.0351,5.1152,5.1328,5.1328,5.1328,4.9277,4.8203,4.9902,4.8711,4.8516,5.0957,4.9902,4.9258,5.0078,5.0215,5.0234,5.0234,5.0957,5.1055,5.0254,5.0898,5.0471,4.8574,4.9332,4.9271,4.8144,4.8144,4.774,4.6913,4.6913,4.6451,4.5586,4.5586,4.5586,0.0,0.0,4.414,4.2318,0.0,0.0,0.0,0.0,0.0,0.0,0.0,0.0,0.0,0.0,4.0648,4.0762,4.1103,0.0,0.0,0.0,0.0,0.0,0.0,0.0,0.0,0.0,0.0,0.0,0.0,0.0,0.0,4.6308,4.6308,4.6308,4.6308,4.6308,4.6308,4.6308,4.6308,4.6308,4.6308,4.6308,4.6308,4.6308,4.6308,4.6308,4.6308,4.6308,4.6308,4.6308,4.6308,4.6308,4.6308,4.6308,4.6308,4.6308,4.6308,4.6289,4.62,4.6173,4.6173,4.6173,4.6173,4.6178,4.6268,4.6308,4.6308,4.6308,4.6308,4.6308,4.6308,4.6308,4.6308,4.6308,4.6973,4.7832,4.8711,4.957,5.0449,5.123,5.1406,5.1406,5.1406,5.0234,4.9707,5.082,5.0488,5.0234,5.0566,5.0586,5.0469,5.0234,5.0683,5.0996,5.0996,5.123,5.1055,5.0254,5.0871,5.0689,4.9401,4.9571,4.9442,4.8971,4.7875,4.7432,4.7702,4.7163,4.6759,4.6471,4.6471,4.6144,4.4109,4.4471,0.0,4.3134,4.3185,0.0,4.1577,0.0,0.0,0.0,0.0,0.0,0.0,0.0,0.0,4.1266,4.1145,0.0,0.0,0.0,0.0,0.0,0.0,0.0,0.0,0.0,4.5723,4.5488,0.0,0.0,0.0,0.0,4.6308,4.6308,4.6308,4.6308,4.6308,4.6308,4.6308,4.6308,4.6308,4.6308,4.6308,4.6308,4.6308,4.6308,4.6308,4.6308,4.6308,4.6308,4.6308,4.6308,4.6308,4.6268,4.6226,4.6289,4.6268,4.6202,4.608,4.6033,4.6033,4.6033,4.605,4.6117,4.62,4.6268,4.6308,4.6308,4.6308,4.6308,4.6308,4.6308,4.6308,4.6308,4.7207,4.8223,4.8789,4.9805,5.0781,5.1308,5.1406,5.1406,5.1406,5.0976,5.0801,5.1328,5.1152,5.0898,5.0664,5.082,5.0762,5.0254,5.0664,5.1094,5.1387,5.1406,5.1172,5.0664,5.1027,5.0855,4.9909,4.974,4.9451,4.9037,4.7892,4.7603,4.8172,4.7603,4.7353,4.74,4.7353,4.7028]}]]